<?xml version="1.0" encoding="UTF-8" standalone="no" ?>
<gpx xmlns="http://www.topografix.com/GPX/1/1" xmlns:xsi="http://www.w3.org/2001/XMLSchema-instance" xsi:schemaLocation="http://www.topografix.com/GPX/1/1 http://www.topografix.com/GPX/1/1/gpx.xsd" version="1.1" creator="VisuGPX - https://www.visugpx.com">
  <metadata>
    <name>qcc 26-04-26</name>
  </metadata>
  <trk>
    <name><![CDATA[qcc 28-04-24_1]]></name>
    <extensions>
      <line xmlns="http://www.topografix.com/GPX/gpx_style/0/2">
        <color>0000FF</color>
        <opacity>1</opacity>
        <width>4</width>
      </line>
    </extensions>
    <trkseg>
      <trkpt lat="48.00732" lon="-4.11601">
        <ele>6.4</ele>
        <time>2024-04-10T16:33:40.000Z</time>
      </trkpt>
      <trkpt lat="48.00721" lon="-4.11592">
        <ele>6.3</ele>
        <time>2024-04-10T16:33:41.886Z</time>
      </trkpt>
      <trkpt lat="48.0071" lon="-4.11595">
        <ele>6.4</ele>
        <time>2024-04-10T16:33:43.861Z</time>
      </trkpt>
      <trkpt lat="48.00698" lon="-4.11599">
        <ele>6.6</ele>
        <time>2024-04-10T16:33:46.204Z</time>
      </trkpt>
      <trkpt lat="48.00683" lon="-4.11606">
        <ele>6.5</ele>
        <time>2024-04-10T16:33:48.602Z</time>
      </trkpt>
      <trkpt lat="48.00657" lon="-4.11625">
        <ele>6.3</ele>
        <time>2024-04-10T16:33:52.995Z</time>
      </trkpt>
      <trkpt lat="48.00649" lon="-4.11631">
        <ele>6.3</ele>
        <time>2024-04-10T16:33:54.444Z</time>
      </trkpt>
      <trkpt lat="48.00643" lon="-4.11635">
        <ele>6.1</ele>
        <time>2024-04-10T16:33:55.263Z</time>
      </trkpt>
      <trkpt lat="48.00638" lon="-4.11642">
        <ele>6</ele>
        <time>2024-04-10T16:33:56.234Z</time>
      </trkpt>
      <trkpt lat="48.00633" lon="-4.11645">
        <ele>6</ele>
        <time>2024-04-10T16:33:57.106Z</time>
      </trkpt>
      <trkpt lat="48.00626" lon="-4.11648">
        <ele>6.2</ele>
        <time>2024-04-10T16:33:58.675Z</time>
      </trkpt>
      <trkpt lat="48.00619" lon="-4.11646">
        <ele>6.2</ele>
        <time>2024-04-10T16:33:59.828Z</time>
      </trkpt>
      <trkpt lat="48.00613" lon="-4.11648">
        <ele>6.3</ele>
        <time>2024-04-10T16:34:01.000Z</time>
      </trkpt>
      <trkpt lat="48.00596" lon="-4.11658">
        <ele>6.3</ele>
        <time>2024-04-10T16:34:03.957Z</time>
      </trkpt>
      <trkpt lat="48.00537" lon="-4.117">
        <ele>6.5</ele>
        <time>2024-04-10T16:34:14.852Z</time>
      </trkpt>
      <trkpt lat="48.00511" lon="-4.11712">
        <ele>6.6</ele>
        <time>2024-04-10T16:34:19.416Z</time>
      </trkpt>
      <trkpt lat="48.00484" lon="-4.11719">
        <ele>7.5</ele>
        <time>2024-04-10T16:34:25.693Z</time>
      </trkpt>
      <trkpt lat="48.00478" lon="-4.11721">
        <ele>7.7</ele>
        <time>2024-04-10T16:34:27.096Z</time>
      </trkpt>
      <trkpt lat="48.00469" lon="-4.11731">
        <ele>8</ele>
        <time>2024-04-10T16:34:29.491Z</time>
      </trkpt>
      <trkpt lat="48.00459" lon="-4.11758">
        <ele>9.1</ele>
        <time>2024-04-10T16:34:35.573Z</time>
      </trkpt>
      <trkpt lat="48.00423" lon="-4.11729">
        <ele>8.2</ele>
        <time>2024-04-10T16:34:41.021Z</time>
      </trkpt>
      <trkpt lat="48.00419" lon="-4.11734">
        <ele>8.4</ele>
        <time>2024-04-10T16:34:42.296Z</time>
      </trkpt>
      <trkpt lat="48.00416" lon="-4.11732">
        <ele>8.4</ele>
        <time>2024-04-10T16:34:42.828Z</time>
      </trkpt>
      <trkpt lat="48.00415" lon="-4.11728">
        <ele>8.2</ele>
        <time>2024-04-10T16:34:43.106Z</time>
      </trkpt>
      <trkpt lat="48.00393" lon="-4.1169">
        <ele>7</ele>
        <time>2024-04-10T16:34:47.129Z</time>
      </trkpt>
      <trkpt lat="48.00384" lon="-4.11673">
        <ele>7</ele>
        <time>2024-04-10T16:34:49.477Z</time>
      </trkpt>
      <trkpt lat="48.00362" lon="-4.11617">
        <ele>6</ele>
        <time>2024-04-10T16:34:55.219Z</time>
      </trkpt>
      <trkpt lat="48.00361" lon="-4.11614">
        <ele>6</ele>
        <time>2024-04-10T16:34:55.582Z</time>
      </trkpt>
      <trkpt lat="48.00357" lon="-4.11609">
        <ele>6</ele>
        <time>2024-04-10T16:34:56.426Z</time>
      </trkpt>
      <trkpt lat="48.00351" lon="-4.11597">
        <ele>6</ele>
        <time>2024-04-10T16:34:58.049Z</time>
      </trkpt>
      <trkpt lat="48.00346" lon="-4.11582">
        <ele>6</ele>
        <time>2024-04-10T16:34:59.864Z</time>
      </trkpt>
      <trkpt lat="48.00343" lon="-4.11572">
        <ele>5.9</ele>
        <time>2024-04-10T16:35:00.913Z</time>
      </trkpt>
      <trkpt lat="48.00343" lon="-4.1157">
        <ele>5.8</ele>
        <time>2024-04-10T16:35:01.043Z</time>
      </trkpt>
      <trkpt lat="48.00304" lon="-4.11477">
        <ele>5</ele>
        <time>2024-04-10T16:35:11.800Z</time>
      </trkpt>
      <trkpt lat="48.003" lon="-4.1147">
        <ele>4.9</ele>
        <time>2024-04-10T16:35:12.661Z</time>
      </trkpt>
      <trkpt lat="48.00268" lon="-4.11444">
        <ele>5</ele>
        <time>2024-04-10T16:35:18.715Z</time>
      </trkpt>
      <trkpt lat="48.00252" lon="-4.11432">
        <ele>5</ele>
        <time>2024-04-10T16:35:21.613Z</time>
      </trkpt>
      <trkpt lat="48.00244" lon="-4.11423">
        <ele>5.2</ele>
        <time>2024-04-10T16:35:23.598Z</time>
      </trkpt>
      <trkpt lat="48.00234" lon="-4.11417">
        <ele>5.6</ele>
        <time>2024-04-10T16:35:26.194Z</time>
      </trkpt>
      <trkpt lat="48.0023" lon="-4.11419">
        <ele>5.7</ele>
        <time>2024-04-10T16:35:27.065Z</time>
      </trkpt>
      <trkpt lat="48.00225" lon="-4.11417">
        <ele>5.9</ele>
        <time>2024-04-10T16:35:28.335Z</time>
      </trkpt>
      <trkpt lat="48.00222" lon="-4.11414">
        <ele>6</ele>
        <time>2024-04-10T16:35:29.114Z</time>
      </trkpt>
      <trkpt lat="48.0022" lon="-4.11407">
        <ele>6</ele>
        <time>2024-04-10T16:35:29.939Z</time>
      </trkpt>
      <trkpt lat="48.00201" lon="-4.11391">
        <ele>6</ele>
        <time>2024-04-10T16:35:33.469Z</time>
      </trkpt>
      <trkpt lat="48.00196" lon="-4.11386">
        <ele>6.1</ele>
        <time>2024-04-10T16:35:34.620Z</time>
      </trkpt>
      <trkpt lat="48.0019" lon="-4.1138">
        <ele>6.6</ele>
        <time>2024-04-10T16:35:37.249Z</time>
      </trkpt>
      <trkpt lat="48.00156" lon="-4.11352">
        <ele>10</ele>
        <time>2024-04-10T16:35:55.375Z</time>
      </trkpt>
      <trkpt lat="48.00153" lon="-4.11359">
        <ele>10</ele>
        <time>2024-04-10T16:35:56.275Z</time>
        <extensions>
          <visugpx:TrkExtension xmlns:visugpx="https://www.visugpx.com/editgpx/">
            <visugpx:node>1</visugpx:node>
            </visugpx:TrkExtension>
        </extensions>
      </trkpt>
      <trkpt lat="48.00156" lon="-4.11352">
        <ele>10</ele>
        <time>2024-04-10T16:35:57.176Z</time>
      </trkpt>
      <trkpt lat="48.00136" lon="-4.11337">
        <ele>11.4</ele>
        <time>2024-04-10T16:36:04.622Z</time>
      </trkpt>
      <trkpt lat="48.00103" lon="-4.1131">
        <ele>13.7</ele>
        <time>2024-04-10T16:36:16.906Z</time>
      </trkpt>
      <trkpt lat="48.00095" lon="-4.11303">
        <ele>14.2</ele>
        <time>2024-04-10T16:36:19.660Z</time>
      </trkpt>
      <trkpt lat="48.00084" lon="-4.11294">
        <ele>15</ele>
        <time>2024-04-10T16:36:23.902Z</time>
      </trkpt>
      <trkpt lat="48.00056" lon="-4.11273">
        <ele>17.1</ele>
        <time>2024-04-10T16:36:34.973Z</time>
      </trkpt>
      <trkpt lat="48.00047" lon="-4.11264">
        <ele>18.3</ele>
        <time>2024-04-10T16:36:41.625Z</time>
      </trkpt>
      <trkpt lat="48.00013" lon="-4.11239">
        <ele>21.6</ele>
        <time>2024-04-10T16:36:59.201Z</time>
      </trkpt>
      <trkpt lat="48.00012" lon="-4.11256">
        <ele>21.8</ele>
        <time>2024-04-10T16:37:01.406Z</time>
      </trkpt>
      <trkpt lat="48.00003" lon="-4.11294">
        <ele>24.2</ele>
        <time>2024-04-10T16:37:14.234Z</time>
      </trkpt>
      <trkpt lat="47.99982" lon="-4.1135">
        <ele>26.1</ele>
        <time>2024-04-10T16:37:25.517Z</time>
      </trkpt>
      <trkpt lat="47.99975" lon="-4.11369">
        <ele>26.7</ele>
        <time>2024-04-10T16:37:29.196Z</time>
      </trkpt>
      <trkpt lat="47.99952" lon="-4.11427">
        <ele>28.2</ele>
        <time>2024-04-10T16:37:39.579Z</time>
      </trkpt>
      <trkpt lat="47.9995" lon="-4.11432">
        <ele>28.4</ele>
        <time>2024-04-10T16:37:40.698Z</time>
      </trkpt>
      <trkpt lat="47.99948" lon="-4.11444">
        <ele>28.6</ele>
        <time>2024-04-10T16:37:42.415Z</time>
      </trkpt>
      <trkpt lat="47.99941" lon="-4.11463">
        <ele>29.2</ele>
        <time>2024-04-10T16:37:46.094Z</time>
      </trkpt>
      <trkpt lat="47.99905" lon="-4.11553">
        <ele>31.4</ele>
        <time>2024-04-10T16:38:01.890Z</time>
      </trkpt>
      <trkpt lat="47.99894" lon="-4.11576">
        <ele>31.7</ele>
        <time>2024-04-10T16:38:05.480Z</time>
      </trkpt>
      <trkpt lat="47.99881" lon="-4.11608">
        <ele>32.6</ele>
        <time>2024-04-10T16:38:11.429Z</time>
      </trkpt>
      <trkpt lat="47.99865" lon="-4.11632">
        <ele>33.6</ele>
        <time>2024-04-10T16:38:17.375Z</time>
      </trkpt>
      <trkpt lat="47.99806" lon="-4.11701">
        <ele>35.7</ele>
        <time>2024-04-10T16:38:33.612Z</time>
      </trkpt>
      <trkpt lat="47.99784" lon="-4.11737">
        <ele>36.4</ele>
        <time>2024-04-10T16:38:40.184Z</time>
      </trkpt>
      <trkpt lat="47.99771" lon="-4.11765">
        <ele>37.5</ele>
        <time>2024-04-10T16:38:46.482Z</time>
      </trkpt>
      <trkpt lat="47.99759" lon="-4.11796">
        <ele>38.4</ele>
        <time>2024-04-10T16:38:52.285Z</time>
      </trkpt>
      <trkpt lat="47.99754" lon="-4.11818">
        <ele>39.1</ele>
        <time>2024-04-10T16:38:56.409Z</time>
      </trkpt>
      <trkpt lat="47.99751" lon="-4.11847">
        <ele>39.9</ele>
        <time>2024-04-10T16:39:01.351Z</time>
      </trkpt>
      <trkpt lat="47.9975" lon="-4.11934">
        <ele>41.6</ele>
        <time>2024-04-10T16:39:14.138Z</time>
      </trkpt>
      <trkpt lat="47.9975" lon="-4.11946">
        <ele>42</ele>
        <time>2024-04-10T16:39:16.400Z</time>
      </trkpt>
      <trkpt lat="47.99748" lon="-4.12057">
        <ele>44.3</ele>
        <time>2024-04-10T16:39:33.051Z</time>
      </trkpt>
      <trkpt lat="47.99752" lon="-4.12101">
        <ele>45.3</ele>
        <time>2024-04-10T16:39:39.922Z</time>
      </trkpt>
      <trkpt lat="47.99758" lon="-4.1213">
        <ele>45.2</ele>
        <time>2024-04-10T16:39:43.062Z</time>
      </trkpt>
      <trkpt lat="47.99763" lon="-4.12151">
        <ele>46.2</ele>
        <time>2024-04-10T16:39:48.334Z</time>
      </trkpt>
      <trkpt lat="47.99769" lon="-4.12164">
        <ele>46.7</ele>
        <time>2024-04-10T16:39:51.219Z</time>
      </trkpt>
      <trkpt lat="47.99786" lon="-4.12194">
        <ele>47.1</ele>
        <time>2024-04-10T16:39:56.176Z</time>
      </trkpt>
      <trkpt lat="47.99816" lon="-4.12232">
        <ele>48</ele>
        <time>2024-04-10T16:40:04.223Z</time>
      </trkpt>
      <trkpt lat="47.99829" lon="-4.12253">
        <ele>49.9</ele>
        <time>2024-04-10T16:40:14.594Z</time>
      </trkpt>
      <trkpt lat="47.99841" lon="-4.12271">
        <ele>49.8</ele>
        <time>2024-04-10T16:40:17.200Z</time>
      </trkpt>
      <trkpt lat="47.99851" lon="-4.12292">
        <ele>50.4</ele>
        <time>2024-04-10T16:40:21.241Z</time>
      </trkpt>
      <trkpt lat="47.9986" lon="-4.12319">
        <ele>50.7</ele>
        <time>2024-04-10T16:40:25.031Z</time>
      </trkpt>
      <trkpt lat="47.99875" lon="-4.1241">
        <ele>54.6</ele>
        <time>2024-04-10T16:40:45.797Z</time>
        <extensions>
          <visugpx:TrkExtension xmlns:visugpx="https://www.visugpx.com/editgpx/">
            <visugpx:node>2</visugpx:node>
            </visugpx:TrkExtension>
        </extensions>
      </trkpt>
      <trkpt lat="47.99875" lon="-4.1241">
        <ele>54.6</ele>
        <time>2024-04-10T16:40:45.797Z</time>
      </trkpt>
      <trkpt lat="47.99898" lon="-4.12551">
        <ele>57.1</ele>
        <time>2024-04-10T16:41:06.309Z</time>
      </trkpt>
      <trkpt lat="47.999" lon="-4.12571">
        <ele>57.8</ele>
        <time>2024-04-10T16:41:10.216Z</time>
      </trkpt>
      <trkpt lat="47.99898" lon="-4.12592">
        <ele>58.1</ele>
        <time>2024-04-10T16:41:13.065Z</time>
      </trkpt>
      <trkpt lat="47.99894" lon="-4.12613">
        <ele>57.7</ele>
        <time>2024-04-10T16:41:14.929Z</time>
      </trkpt>
      <trkpt lat="47.9988" lon="-4.12644">
        <ele>57.7</ele>
        <time>2024-04-10T16:41:18.981Z</time>
      </trkpt>
      <trkpt lat="47.99848" lon="-4.12701">
        <ele>58.4</ele>
        <time>2024-04-10T16:41:28.251Z</time>
      </trkpt>
      <trkpt lat="47.9984" lon="-4.12725">
        <ele>58</ele>
        <time>2024-04-10T16:41:30.636Z</time>
      </trkpt>
      <trkpt lat="47.99837" lon="-4.12744">
        <ele>60.4</ele>
        <time>2024-04-10T16:41:39.699Z</time>
      </trkpt>
      <trkpt lat="47.99839" lon="-4.12765">
        <ele>62</ele>
        <time>2024-04-10T16:41:48.573Z</time>
      </trkpt>
      <trkpt lat="47.99849" lon="-4.1279">
        <ele>63.7</ele>
        <time>2024-04-10T16:41:57.629Z</time>
      </trkpt>
      <trkpt lat="47.99856" lon="-4.128">
        <ele>64.1</ele>
        <time>2024-04-10T16:42:00.083Z</time>
      </trkpt>
      <trkpt lat="47.99893" lon="-4.12842">
        <ele>66.7</ele>
        <time>2024-04-10T16:42:14.253Z</time>
      </trkpt>
      <trkpt lat="47.99906" lon="-4.12867">
        <ele>68</ele>
        <time>2024-04-10T16:42:21.191Z</time>
      </trkpt>
      <trkpt lat="47.99916" lon="-4.12891">
        <ele>68.2</ele>
        <time>2024-04-10T16:42:24.589Z</time>
      </trkpt>
      <trkpt lat="47.99923" lon="-4.12912">
        <ele>67.8</ele>
        <time>2024-04-10T16:42:26.623Z</time>
      </trkpt>
      <trkpt lat="47.99931" lon="-4.12948">
        <ele>69.6</ele>
        <time>2024-04-10T16:42:36.078Z</time>
      </trkpt>
      <trkpt lat="47.99934" lon="-4.12991">
        <ele>71</ele>
        <time>2024-04-10T16:42:44.082Z</time>
      </trkpt>
      <trkpt lat="47.99932" lon="-4.13028">
        <ele>70.6</ele>
        <time>2024-04-10T16:42:47.560Z</time>
      </trkpt>
      <trkpt lat="47.99927" lon="-4.13054">
        <ele>71.7</ele>
        <time>2024-04-10T16:42:53.441Z</time>
      </trkpt>
      <trkpt lat="47.99914" lon="-4.13094">
        <ele>74</ele>
        <time>2024-04-10T16:43:05.532Z</time>
      </trkpt>
      <trkpt lat="47.99886" lon="-4.13159">
        <ele>76</ele>
        <time>2024-04-10T16:43:18.226Z</time>
      </trkpt>
      <trkpt lat="47.99882" lon="-4.1317">
        <ele>76.6</ele>
        <time>2024-04-10T16:43:21.376Z</time>
      </trkpt>
      <trkpt lat="47.99879" lon="-4.13188">
        <ele>77</ele>
        <time>2024-04-10T16:43:24.199Z</time>
      </trkpt>
      <trkpt lat="47.9988" lon="-4.13205">
        <ele>77.3</ele>
        <time>2024-04-10T16:43:26.625Z</time>
      </trkpt>
      <trkpt lat="47.99884" lon="-4.13224">
        <ele>77.9</ele>
        <time>2024-04-10T16:43:30.161Z</time>
      </trkpt>
      <trkpt lat="47.99916" lon="-4.13305">
        <ele>80</ele>
        <time>2024-04-10T16:43:44.665Z</time>
      </trkpt>
      <trkpt lat="47.99921" lon="-4.13321">
        <ele>79.6</ele>
        <time>2024-04-10T16:43:46.099Z</time>
      </trkpt>
      <trkpt lat="47.99924" lon="-4.13337">
        <ele>79.7</ele>
        <time>2024-04-10T16:43:48.065Z</time>
      </trkpt>
      <trkpt lat="47.99924" lon="-4.13354">
        <ele>80</ele>
        <time>2024-04-10T16:43:50.485Z</time>
      </trkpt>
      <trkpt lat="47.99919" lon="-4.13382">
        <ele>80.7</ele>
        <time>2024-04-10T16:43:55.100Z</time>
      </trkpt>
      <trkpt lat="47.99898" lon="-4.1345">
        <ele>81.4</ele>
        <time>2024-04-10T16:44:04.422Z</time>
      </trkpt>
      <trkpt lat="47.99894" lon="-4.13472">
        <ele>82.3</ele>
        <time>2024-04-10T16:44:09.264Z</time>
      </trkpt>
      <trkpt lat="47.99893" lon="-4.13496">
        <ele>81.8</ele>
        <time>2024-04-10T16:44:11.258Z</time>
      </trkpt>
      <trkpt lat="47.99894" lon="-4.13522">
        <ele>81.8</ele>
        <time>2024-04-10T16:44:14.079Z</time>
      </trkpt>
      <trkpt lat="47.99909" lon="-4.13679">
        <ele>83.1</ele>
        <time>2024-04-10T16:44:33.473Z</time>
      </trkpt>
      <trkpt lat="47.99912" lon="-4.1373">
        <ele>84.6</ele>
        <time>2024-04-10T16:44:42.422Z</time>
      </trkpt>
      <trkpt lat="47.99913" lon="-4.13738">
        <ele>84.8</ele>
        <time>2024-04-10T16:44:43.727Z</time>
      </trkpt>
      <trkpt lat="47.99914" lon="-4.13792">
        <ele>85.7</ele>
        <time>2024-04-10T16:44:51.291Z</time>
      </trkpt>
      <trkpt lat="47.99906" lon="-4.13939">
        <ele>89.5</ele>
        <time>2024-04-10T16:45:15.462Z</time>
      </trkpt>
      <trkpt lat="47.99903" lon="-4.14035">
        <ele>89.4</ele>
        <time>2024-04-10T16:45:25.721Z</time>
      </trkpt>
      <trkpt lat="47.99903" lon="-4.14063">
        <ele>89</ele>
        <time>2024-04-10T16:45:28.231Z</time>
      </trkpt>
      <trkpt lat="47.99904" lon="-4.14112">
        <ele>89.5</ele>
        <time>2024-04-10T16:45:34.415Z</time>
      </trkpt>
      <trkpt lat="47.99907" lon="-4.1418">
        <ele>89</ele>
        <time>2024-04-10T16:45:41.091Z</time>
      </trkpt>
      <trkpt lat="47.99911" lon="-4.14231">
        <ele>89.3</ele>
        <time>2024-04-10T16:45:47.149Z</time>
      </trkpt>
      <trkpt lat="47.99915" lon="-4.1426">
        <ele>90</ele>
        <time>2024-04-10T16:45:51.822Z</time>
      </trkpt>
      <trkpt lat="47.99924" lon="-4.14306">
        <ele>91</ele>
        <time>2024-04-10T16:45:59.027Z</time>
      </trkpt>
      <trkpt lat="47.9997" lon="-4.14526">
        <ele>95.2</ele>
        <time>2024-04-10T16:46:32.153Z</time>
      </trkpt>
      <trkpt lat="47.99974" lon="-4.14558">
        <ele>96</ele>
        <time>2024-04-10T16:46:37.375Z</time>
      </trkpt>
      <trkpt lat="47.99975" lon="-4.14587">
        <ele>96.9</ele>
        <time>2024-04-10T16:46:42.614Z</time>
      </trkpt>
      <trkpt lat="47.99974" lon="-4.14612">
        <ele>97</ele>
        <time>2024-04-10T16:46:45.488Z</time>
      </trkpt>
      <trkpt lat="47.9997" lon="-4.14643">
        <ele>98.2</ele>
        <time>2024-04-10T16:46:52.002Z</time>
      </trkpt>
      <trkpt lat="47.99957" lon="-4.1471">
        <ele>99.2</ele>
        <time>2024-04-10T16:47:01.403Z</time>
      </trkpt>
      <trkpt lat="47.99952" lon="-4.14744">
        <ele>98.4</ele>
        <time>2024-04-10T16:47:04.219Z</time>
      </trkpt>
      <trkpt lat="47.99951" lon="-4.14764">
        <ele>98.6</ele>
        <time>2024-04-10T16:47:06.740Z</time>
      </trkpt>
      <trkpt lat="47.99956" lon="-4.14768">
        <ele>98.8</ele>
        <time>2024-04-10T16:47:08.076Z</time>
      </trkpt>
      <trkpt lat="47.99962" lon="-4.14781">
        <ele>99</ele>
        <time>2024-04-10T16:47:10.148Z</time>
      </trkpt>
      <trkpt lat="47.99963" lon="-4.14792">
        <ele>99</ele>
        <time>2024-04-10T16:47:11.350Z</time>
      </trkpt>
      <trkpt lat="47.99963" lon="-4.14803">
        <ele>99</ele>
        <time>2024-04-10T16:47:12.542Z</time>
      </trkpt>
      <trkpt lat="47.99966" lon="-4.14816">
        <ele>98.9</ele>
        <time>2024-04-10T16:47:13.890Z</time>
      </trkpt>
      <trkpt lat="47.99973" lon="-4.14835">
        <ele>98.9</ele>
        <time>2024-04-10T16:47:16.239Z</time>
      </trkpt>
      <trkpt lat="47.99985" lon="-4.14857">
        <ele>96.3</ele>
        <time>2024-04-10T16:47:18.084Z</time>
      </trkpt>
      <trkpt lat="48.00005" lon="-4.14884">
        <ele>94</ele>
        <time>2024-04-10T16:47:20.702Z</time>
      </trkpt>
      <trkpt lat="48.00019" lon="-4.14908">
        <ele>97.6</ele>
        <time>2024-04-10T16:47:35.483Z</time>
      </trkpt>
      <trkpt lat="48.00032" lon="-4.14931">
        <ele>100.6</ele>
        <time>2024-04-10T16:47:49.461Z</time>
      </trkpt>
      <trkpt lat="48.00042" lon="-4.14947">
        <ele>101</ele>
        <time>2024-04-10T16:47:52.610Z</time>
      </trkpt>
      <trkpt lat="48.00049" lon="-4.14968">
        <ele>101</ele>
        <time>2024-04-10T16:47:55.151Z</time>
      </trkpt>
      <trkpt lat="48.00066" lon="-4.15076">
        <ele>102</ele>
        <time>2024-04-10T16:48:08.890Z</time>
      </trkpt>
      <trkpt lat="48.00072" lon="-4.15141">
        <ele>101</ele>
        <time>2024-04-10T16:48:14.703Z</time>
      </trkpt>
      <trkpt lat="48.00075" lon="-4.15159">
        <ele>101</ele>
        <time>2024-04-10T16:48:16.712Z</time>
      </trkpt>
      <trkpt lat="48.00082" lon="-4.15167">
        <ele>101</ele>
        <time>2024-04-10T16:48:18.139Z</time>
      </trkpt>
      <trkpt lat="48.00085" lon="-4.15178">
        <ele>100.5</ele>
        <time>2024-04-10T16:48:18.929Z</time>
      </trkpt>
      <trkpt lat="48.00085" lon="-4.15184">
        <ele>100.3</ele>
        <time>2024-04-10T16:48:19.363Z</time>
      </trkpt>
      <trkpt lat="48.00083" lon="-4.15193">
        <ele>100.1</ele>
        <time>2024-04-10T16:48:20.147Z</time>
      </trkpt>
      <trkpt lat="48.00083" lon="-4.15211">
        <ele>100</ele>
        <time>2024-04-10T16:48:21.953Z</time>
      </trkpt>
      <trkpt lat="48.00091" lon="-4.15304">
        <ele>97.8</ele>
        <time>2024-04-10T16:48:29.497Z</time>
      </trkpt>
      <trkpt lat="48.00092" lon="-4.15414">
        <ele>95.1</ele>
        <time>2024-04-10T16:48:38.241Z</time>
      </trkpt>
      <trkpt lat="48.00095" lon="-4.15439">
        <ele>95.3</ele>
        <time>2024-04-10T16:48:41.331Z</time>
      </trkpt>
      <trkpt lat="48.00101" lon="-4.15465">
        <ele>94.6</ele>
        <time>2024-04-10T16:48:43.496Z</time>
      </trkpt>
      <trkpt lat="48.00117" lon="-4.15502">
        <ele>93.4</ele>
        <time>2024-04-10T16:48:46.895Z</time>
      </trkpt>
      <trkpt lat="48.00179" lon="-4.15592">
        <ele>93.2</ele>
        <time>2024-04-10T16:49:00.585Z</time>
      </trkpt>
      <trkpt lat="48.00186" lon="-4.15607">
        <ele>92.9</ele>
        <time>2024-04-10T16:49:02.183Z</time>
      </trkpt>
      <trkpt lat="48.00188" lon="-4.15626">
        <ele>92.1</ele>
        <time>2024-04-10T16:49:03.468Z</time>
      </trkpt>
      <trkpt lat="48.00188" lon="-4.15661">
        <ele>89.5</ele>
        <time>2024-04-10T16:49:05.743Z</time>
      </trkpt>
      <trkpt lat="48.00191" lon="-4.15672">
        <ele>88.8</ele>
        <time>2024-04-10T16:49:06.515Z</time>
      </trkpt>
      <trkpt lat="48.00199" lon="-4.15686">
        <ele>88.8</ele>
        <time>2024-04-10T16:49:08.509Z</time>
      </trkpt>
      <trkpt lat="48.00203" lon="-4.157">
        <ele>88.2</ele>
        <time>2024-04-10T16:49:09.547Z</time>
      </trkpt>
      <trkpt lat="48.00203" lon="-4.15714">
        <ele>88.9</ele>
        <time>2024-04-10T16:49:13.223Z</time>
      </trkpt>
      <trkpt lat="48.00201" lon="-4.15726">
        <ele>88.9</ele>
        <time>2024-04-10T16:49:14.562Z</time>
      </trkpt>
      <trkpt lat="48.00213" lon="-4.15755">
        <ele>88.8</ele>
        <time>2024-04-10T16:49:18.107Z</time>
      </trkpt>
      <trkpt lat="48.00229" lon="-4.15782">
        <ele>86.1</ele>
        <time>2024-04-10T16:49:20.451Z</time>
      </trkpt>
      <trkpt lat="48.00252" lon="-4.1581">
        <ele>85.4</ele>
        <time>2024-04-10T16:49:24.352Z</time>
      </trkpt>
      <trkpt lat="48.00302" lon="-4.1585">
        <ele>82.9</ele>
        <time>2024-04-10T16:49:30.738Z</time>
      </trkpt>
      <trkpt lat="48.0032" lon="-4.15868">
        <ele>83.3</ele>
        <time>2024-04-10T16:49:34.962Z</time>
      </trkpt>
      <trkpt lat="48.0034" lon="-4.15895">
        <ele>84.4</ele>
        <time>2024-04-10T16:49:41.750Z</time>
      </trkpt>
      <trkpt lat="48.00353" lon="-4.15916">
        <ele>85.2</ele>
        <time>2024-04-10T16:49:46.630Z</time>
      </trkpt>
      <trkpt lat="48.00361" lon="-4.1594">
        <ele>85.8</ele>
        <time>2024-04-10T16:49:50.768Z</time>
      </trkpt>
      <trkpt lat="48.0037" lon="-4.15978">
        <ele>85</ele>
        <time>2024-04-10T16:49:54.148Z</time>
      </trkpt>
      <trkpt lat="48.00374" lon="-4.16016">
        <ele>85.6</ele>
        <time>2024-04-10T16:49:59.439Z</time>
        <extensions>
          <visugpx:TrkExtension xmlns:visugpx="https://www.visugpx.com/editgpx/">
            <visugpx:node>3</visugpx:node>
            </visugpx:TrkExtension>
        </extensions>
      </trkpt>
      <trkpt lat="48.00374" lon="-4.16016">
        <ele>85.6</ele>
        <time>2024-04-10T16:49:59.439Z</time>
      </trkpt>
      <trkpt lat="48.00379" lon="-4.16055">
        <ele>86.5</ele>
        <time>2024-04-10T16:50:05.599Z</time>
      </trkpt>
      <trkpt lat="48.00423" lon="-4.16452">
        <ele>93.9</ele>
        <time>2024-04-10T16:51:03.592Z</time>
      </trkpt>
      <trkpt lat="48.00439" lon="-4.16538">
        <ele>95.8</ele>
        <time>2024-04-10T16:51:17.109Z</time>
      </trkpt>
      <trkpt lat="48.00457" lon="-4.1661">
        <ele>95.7</ele>
        <time>2024-04-10T16:51:25.283Z</time>
      </trkpt>
      <trkpt lat="48.00466" lon="-4.1664">
        <ele>96.2</ele>
        <time>2024-04-10T16:51:29.777Z</time>
      </trkpt>
      <trkpt lat="48.00482" lon="-4.16678">
        <ele>96.3</ele>
        <time>2024-04-10T16:51:34.798Z</time>
      </trkpt>
      <trkpt lat="48.00505" lon="-4.16721">
        <ele>98.9</ele>
        <time>2024-04-10T16:51:48.457Z</time>
      </trkpt>
      <trkpt lat="48.00557" lon="-4.16791">
        <ele>99.2</ele>
        <time>2024-04-10T16:52:00.264Z</time>
      </trkpt>
      <trkpt lat="48.00575" lon="-4.16816">
        <ele>99.7</ele>
        <time>2024-04-10T16:52:05.155Z</time>
      </trkpt>
      <trkpt lat="48.00595" lon="-4.16858">
        <ele>100.6</ele>
        <time>2024-04-10T16:52:12.469Z</time>
      </trkpt>
      <trkpt lat="48.00608" lon="-4.16897">
        <ele>101.3</ele>
        <time>2024-04-10T16:52:18.509Z</time>
      </trkpt>
      <trkpt lat="48.00613" lon="-4.16923">
        <ele>100.8</ele>
        <time>2024-04-10T16:52:20.814Z</time>
      </trkpt>
      <trkpt lat="48.00624" lon="-4.16994">
        <ele>102.3</ele>
        <time>2024-04-10T16:52:31.716Z</time>
      </trkpt>
      <trkpt lat="48.0064" lon="-4.17094">
        <ele>104.3</ele>
        <time>2024-04-10T16:52:46.803Z</time>
      </trkpt>
      <trkpt lat="48.00642" lon="-4.17111">
        <ele>104.5</ele>
        <time>2024-04-10T16:52:49.028Z</time>
      </trkpt>
      <trkpt lat="48.00638" lon="-4.17356">
        <ele>111</ele>
        <time>2024-04-10T16:53:29.743Z</time>
      </trkpt>
      <trkpt lat="48.00647" lon="-4.17434">
        <ele>112.6</ele>
        <time>2024-04-10T16:53:41.510Z</time>
      </trkpt>
      <trkpt lat="48.00657" lon="-4.17488">
        <ele>114.6</ele>
        <time>2024-04-10T16:53:52.561Z</time>
      </trkpt>
      <trkpt lat="48.00664" lon="-4.17512">
        <ele>114.3</ele>
        <time>2024-04-10T16:53:54.992Z</time>
      </trkpt>
      <trkpt lat="48.0068" lon="-4.17553">
        <ele>117.1</ele>
        <time>2024-04-10T16:54:09.936Z</time>
      </trkpt>
      <trkpt lat="48.00703" lon="-4.17603">
        <ele>118.4</ele>
        <time>2024-04-10T16:54:19.146Z</time>
      </trkpt>
      <trkpt lat="48.00724" lon="-4.17639">
        <ele>118.6</ele>
        <time>2024-04-10T16:54:24.643Z</time>
      </trkpt>
      <trkpt lat="48.00747" lon="-4.17682">
        <ele>120.8</ele>
        <time>2024-04-10T16:54:36.447Z</time>
      </trkpt>
      <trkpt lat="48.0077" lon="-4.17737">
        <ele>123.5</ele>
        <time>2024-04-10T16:54:50.822Z</time>
      </trkpt>
      <trkpt lat="48.00859" lon="-4.17974">
        <ele>129</ele>
        <time>2024-04-10T16:55:31.239Z</time>
      </trkpt>
      <trkpt lat="48.00893" lon="-4.18061">
        <ele>131.8</ele>
        <time>2024-04-10T16:55:48.367Z</time>
      </trkpt>
      <trkpt lat="48.00911" lon="-4.18114">
        <ele>134.5</ele>
        <time>2024-04-10T16:56:02.585Z</time>
      </trkpt>
      <trkpt lat="48.00938" lon="-4.1821">
        <ele>136.7</ele>
        <time>2024-04-10T16:56:18.310Z</time>
      </trkpt>
      <trkpt lat="48.00958" lon="-4.18285">
        <ele>139.2</ele>
        <time>2024-04-10T16:56:32.865Z</time>
      </trkpt>
      <trkpt lat="48.00974" lon="-4.18349">
        <ele>142.1</ele>
        <time>2024-04-10T16:56:48.256Z</time>
      </trkpt>
      <trkpt lat="48.0098" lon="-4.1838">
        <ele>143</ele>
        <time>2024-04-10T16:56:53.752Z</time>
      </trkpt>
      <trkpt lat="48.00995" lon="-4.18475">
        <ele>145.9</ele>
        <time>2024-04-10T16:57:10.943Z</time>
      </trkpt>
      <trkpt lat="48.01006" lon="-4.18585">
        <ele>147.8</ele>
        <time>2024-04-10T16:57:26.622Z</time>
      </trkpt>
      <trkpt lat="48.01011" lon="-4.18599">
        <ele>147.8</ele>
        <time>2024-04-10T16:57:28.341Z</time>
      </trkpt>
      <trkpt lat="48.01021" lon="-4.18744">
        <ele>148.5</ele>
        <time>2024-04-10T16:57:45.271Z</time>
      </trkpt>
      <trkpt lat="48.01027" lon="-4.18826">
        <ele>147.1</ele>
        <time>2024-04-10T16:57:52.425Z</time>
      </trkpt>
      <trkpt lat="48.0103" lon="-4.18854">
        <ele>146.8</ele>
        <time>2024-04-10T16:57:55.088Z</time>
      </trkpt>
      <trkpt lat="48.01035" lon="-4.18867">
        <ele>146.6</ele>
        <time>2024-04-10T16:57:56.447Z</time>
      </trkpt>
      <trkpt lat="48.0104" lon="-4.18877">
        <ele>146.6</ele>
        <time>2024-04-10T16:57:57.799Z</time>
      </trkpt>
      <trkpt lat="48.01038" lon="-4.18916">
        <ele>147.4</ele>
        <time>2024-04-10T16:58:03.638Z</time>
      </trkpt>
      <trkpt lat="48.01041" lon="-4.1894">
        <ele>147.9</ele>
        <time>2024-04-10T16:58:07.283Z</time>
      </trkpt>
      <trkpt lat="48.01056" lon="-4.19031">
        <ele>150</ele>
        <time>2024-04-10T16:58:21.754Z</time>
      </trkpt>
      <trkpt lat="48.01114" lon="-4.194">
        <ele>146.3</ele>
        <time>2024-04-10T16:58:57.718Z</time>
      </trkpt>
      <trkpt lat="48.01123" lon="-4.19476">
        <ele>146.6</ele>
        <time>2024-04-10T16:59:06.561Z</time>
      </trkpt>
      <trkpt lat="48.01134" lon="-4.19542">
        <ele>145.1</ele>
        <time>2024-04-10T16:59:12.120Z</time>
      </trkpt>
      <trkpt lat="48.0115" lon="-4.19605">
        <ele>145.9</ele>
        <time>2024-04-10T16:59:20.846Z</time>
      </trkpt>
      <trkpt lat="48.01157" lon="-4.19626">
        <ele>146</ele>
        <time>2024-04-10T16:59:23.549Z</time>
      </trkpt>
      <trkpt lat="48.01169" lon="-4.19654">
        <ele>146.2</ele>
        <time>2024-04-10T16:59:27.482Z</time>
      </trkpt>
      <trkpt lat="48.01181" lon="-4.19669">
        <ele>146.5</ele>
        <time>2024-04-10T16:59:30.557Z</time>
      </trkpt>
      <trkpt lat="48.01196" lon="-4.19671">
        <ele>147.1</ele>
        <time>2024-04-10T16:59:34.305Z</time>
      </trkpt>
      <trkpt lat="48.01207" lon="-4.19683">
        <ele>147.6</ele>
        <time>2024-04-10T16:59:37.570Z</time>
      </trkpt>
      <trkpt lat="48.01211" lon="-4.19692">
        <ele>147.2</ele>
        <time>2024-04-10T16:59:38.324Z</time>
      </trkpt>
      <trkpt lat="48.01213" lon="-4.19701">
        <ele>147</ele>
        <time>2024-04-10T16:59:39.108Z</time>
      </trkpt>
      <trkpt lat="48.01215" lon="-4.1972">
        <ele>147</ele>
        <time>2024-04-10T16:59:41.191Z</time>
      </trkpt>
      <trkpt lat="48.01214" lon="-4.19729">
        <ele>146.8</ele>
        <time>2024-04-10T16:59:41.937Z</time>
      </trkpt>
      <trkpt lat="48.01207" lon="-4.19745">
        <ele>146.2</ele>
        <time>2024-04-10T16:59:43.349Z</time>
      </trkpt>
      <trkpt lat="48.01201" lon="-4.19751">
        <ele>146</ele>
        <time>2024-04-10T16:59:44.268Z</time>
      </trkpt>
      <trkpt lat="48.01196" lon="-4.19768">
        <ele>146</ele>
        <time>2024-04-10T16:59:46.279Z</time>
      </trkpt>
      <trkpt lat="48.01195" lon="-4.19785">
        <ele>146</ele>
        <time>2024-04-10T16:59:48.127Z</time>
      </trkpt>
      <trkpt lat="48.01197" lon="-4.19808">
        <ele>145.9</ele>
        <time>2024-04-10T16:59:50.493Z</time>
      </trkpt>
      <trkpt lat="48.01201" lon="-4.19836">
        <ele>145.2</ele>
        <time>2024-04-10T16:59:52.770Z</time>
      </trkpt>
      <trkpt lat="48.0124" lon="-4.20012">
        <ele>145.8</ele>
        <time>2024-04-10T17:00:13.810Z</time>
      </trkpt>
      <trkpt lat="48.0125" lon="-4.20061">
        <ele>146</ele>
        <time>2024-04-10T17:00:19.680Z</time>
        <extensions>
          <visugpx:TrkExtension xmlns:visugpx="https://www.visugpx.com/editgpx/">
            <visugpx:node>4</visugpx:node>
            </visugpx:TrkExtension>
        </extensions>
      </trkpt>
      <trkpt lat="48.01339" lon="-4.20493">
        <ele>148.6</ele>
        <time>2024-04-10T17:01:12.927Z</time>
      </trkpt>
      <trkpt lat="48.01401" lon="-4.2084">
        <ele>152.1</ele>
        <time>2024-04-10T17:01:57.902Z</time>
      </trkpt>
      <trkpt lat="48.01415" lon="-4.20908">
        <ele>147.9</ele>
        <time>2024-04-10T17:02:02.524Z</time>
      </trkpt>
      <trkpt lat="48.01438" lon="-4.21007">
        <ele>148.5</ele>
        <time>2024-04-10T17:02:14.864Z</time>
      </trkpt>
      <trkpt lat="48.01451" lon="-4.21056">
        <ele>146.9</ele>
        <time>2024-04-10T17:02:18.798Z</time>
      </trkpt>
      <trkpt lat="48.01502" lon="-4.21224">
        <ele>143.5</ele>
        <time>2024-04-10T17:02:34.523Z</time>
      </trkpt>
      <trkpt lat="48.01524" lon="-4.21291">
        <ele>140</ele>
        <time>2024-04-10T17:02:39.372Z</time>
      </trkpt>
      <trkpt lat="48.01591" lon="-4.21468">
        <ele>143.4</ele>
        <time>2024-04-10T17:03:07.868Z</time>
      </trkpt>
      <trkpt lat="48.01643" lon="-4.21583">
        <ele>144.6</ele>
        <time>2024-04-10T17:03:24.954Z</time>
      </trkpt>
      <trkpt lat="48.01698" lon="-4.21687">
        <ele>145.3</ele>
        <time>2024-04-10T17:03:40.460Z</time>
      </trkpt>
      <trkpt lat="48.01733" lon="-4.21753">
        <ele>145.3</ele>
        <time>2024-04-10T17:03:49.581Z</time>
      </trkpt>
      <trkpt lat="48.01837" lon="-4.21949">
        <ele>146.4</ele>
        <time>2024-04-10T17:04:18.458Z</time>
      </trkpt>
      <trkpt lat="48.01868" lon="-4.22006">
        <ele>145.6</ele>
        <time>2024-04-10T17:04:25.327Z</time>
      </trkpt>
      <trkpt lat="48.01893" lon="-4.22048">
        <ele>145.5</ele>
        <time>2024-04-10T17:04:31.264Z</time>
      </trkpt>
      <trkpt lat="48.01953" lon="-4.2214">
        <ele>148.6</ele>
        <time>2024-04-10T17:04:51.711Z</time>
      </trkpt>
      <trkpt lat="48.02027" lon="-4.22243">
        <ele>150.3</ele>
        <time>2024-04-10T17:05:11.090Z</time>
      </trkpt>
      <trkpt lat="48.02059" lon="-4.22279">
        <ele>149.5</ele>
        <time>2024-04-10T17:05:16.516Z</time>
      </trkpt>
      <trkpt lat="48.02088" lon="-4.2231">
        <ele>149.9</ele>
        <time>2024-04-10T17:05:22.962Z</time>
      </trkpt>
      <trkpt lat="48.02125" lon="-4.22342">
        <ele>150.4</ele>
        <time>2024-04-10T17:05:30.730Z</time>
      </trkpt>
      <trkpt lat="48.0216" lon="-4.22367">
        <ele>149.2</ele>
        <time>2024-04-10T17:05:35.543Z</time>
      </trkpt>
      <trkpt lat="48.02208" lon="-4.22396">
        <ele>148.9</ele>
        <time>2024-04-10T17:05:43.483Z</time>
      </trkpt>
      <trkpt lat="48.02254" lon="-4.22414">
        <ele>147.4</ele>
        <time>2024-04-10T17:05:49.355Z</time>
      </trkpt>
      <trkpt lat="48.02284" lon="-4.22431">
        <ele>147.8</ele>
        <time>2024-04-10T17:05:55.231Z</time>
      </trkpt>
      <trkpt lat="48.02356" lon="-4.22477">
        <ele>145.1</ele>
        <time>2024-04-10T17:06:04.687Z</time>
      </trkpt>
      <trkpt lat="48.02359" lon="-4.2248">
        <ele>145.1</ele>
        <time>2024-04-10T17:06:05.271Z</time>
      </trkpt>
      <trkpt lat="48.02385" lon="-4.22502">
        <ele>145</ele>
        <time>2024-04-10T17:06:09.957Z</time>
      </trkpt>
      <trkpt lat="48.02428" lon="-4.22546">
        <ele>142</ele>
        <time>2024-04-10T17:06:15.314Z</time>
      </trkpt>
      <trkpt lat="48.02473" lon="-4.22602">
        <ele>140.9</ele>
        <time>2024-04-10T17:06:23.326Z</time>
      </trkpt>
      <trkpt lat="48.02505" lon="-4.22647">
        <ele>139.8</ele>
        <time>2024-04-10T17:06:29.037Z</time>
      </trkpt>
      <trkpt lat="48.02528" lon="-4.22673">
        <ele>139</ele>
        <time>2024-04-10T17:06:32.705Z</time>
      </trkpt>
      <trkpt lat="48.02606" lon="-4.22769">
        <ele>135.9</ele>
        <time>2024-04-10T17:06:45.265Z</time>
      </trkpt>
      <trkpt lat="48.02712" lon="-4.22899">
        <ele>130.8</ele>
        <time>2024-04-10T17:07:01.488Z</time>
      </trkpt>
      <trkpt lat="48.02753" lon="-4.22954">
        <ele>129.5</ele>
        <time>2024-04-10T17:07:08.732Z</time>
      </trkpt>
      <trkpt lat="48.02822" lon="-4.23051">
        <ele>128.7</ele>
        <time>2024-04-10T17:07:22.911Z</time>
      </trkpt>
      <trkpt lat="48.02844" lon="-4.23086">
        <ele>129.3</ele>
        <time>2024-04-10T17:07:29.191Z</time>
      </trkpt>
      <trkpt lat="48.02864" lon="-4.23124">
        <ele>129.7</ele>
        <time>2024-04-10T17:07:35.108Z</time>
      </trkpt>
      <trkpt lat="48.02885" lon="-4.23174">
        <ele>130.5</ele>
        <time>2024-04-10T17:07:42.960Z</time>
      </trkpt>
      <trkpt lat="48.02895" lon="-4.23204">
        <ele>131.6</ele>
        <time>2024-04-10T17:07:49.217Z</time>
      </trkpt>
      <trkpt lat="48.02933" lon="-4.23332">
        <ele>135.7</ele>
        <time>2024-04-10T17:08:13.679Z</time>
      </trkpt>
      <trkpt lat="48.03024" lon="-4.23648">
        <ele>148.2</ele>
        <time>2024-04-10T17:09:22.374Z</time>
      </trkpt>
      <trkpt lat="48.03047" lon="-4.23714">
        <ele>149.5</ele>
        <time>2024-04-10T17:09:32.931Z</time>
      </trkpt>
      <trkpt lat="48.03071" lon="-4.23762">
        <ele>149.8</ele>
        <time>2024-04-10T17:09:39.910Z</time>
      </trkpt>
      <trkpt lat="48.03124" lon="-4.23848">
        <ele>147.9</ele>
        <time>2024-04-10T17:09:50.137Z</time>
      </trkpt>
      <trkpt lat="48.0319" lon="-4.2395">
        <ele>146.8</ele>
        <time>2024-04-10T17:10:03.956Z</time>
      </trkpt>
      <trkpt lat="48.03201" lon="-4.23963">
        <ele>146.2</ele>
        <time>2024-04-10T17:10:05.549Z</time>
      </trkpt>
      <trkpt lat="48.03224" lon="-4.23989">
        <ele>146.6</ele>
        <time>2024-04-10T17:10:10.907Z</time>
      </trkpt>
      <trkpt lat="48.03267" lon="-4.24028">
        <ele>147.6</ele>
        <time>2024-04-10T17:10:20.867Z</time>
      </trkpt>
      <trkpt lat="48.03301" lon="-4.24049">
        <ele>148.9</ele>
        <time>2024-04-10T17:10:29.544Z</time>
      </trkpt>
      <trkpt lat="48.03326" lon="-4.24071">
        <ele>148.9</ele>
        <time>2024-04-10T17:10:34.240Z</time>
      </trkpt>
      <trkpt lat="48.03332" lon="-4.24077">
        <ele>149</ele>
        <time>2024-04-10T17:10:35.581Z</time>
      </trkpt>
      <trkpt lat="48.03361" lon="-4.2411">
        <ele>149</ele>
        <time>2024-04-10T17:10:41.480Z</time>
      </trkpt>
      <trkpt lat="48.03387" lon="-4.24153">
        <ele>148.4</ele>
        <time>2024-04-10T17:10:46.936Z</time>
      </trkpt>
      <trkpt lat="48.03399" lon="-4.24178">
        <ele>148</ele>
        <time>2024-04-10T17:10:49.737Z</time>
      </trkpt>
      <trkpt lat="48.03413" lon="-4.2422">
        <ele>147.6</ele>
        <time>2024-04-10T17:10:54.260Z</time>
      </trkpt>
      <trkpt lat="48.03444" lon="-4.24306">
        <ele>147.9</ele>
        <time>2024-04-10T17:11:05.315Z</time>
      </trkpt>
      <trkpt lat="48.03469" lon="-4.24387">
        <ele>148.7</ele>
        <time>2024-04-10T17:11:16.348Z</time>
      </trkpt>
      <trkpt lat="48.03513" lon="-4.24537">
        <ele>152.9</ele>
        <time>2024-04-10T17:11:43.124Z</time>
      </trkpt>
      <trkpt lat="48.03549" lon="-4.24652">
        <ele>154.7</ele>
        <time>2024-04-10T17:12:00.181Z</time>
      </trkpt>
      <trkpt lat="48.0357" lon="-4.24706">
        <ele>154.1</ele>
        <time>2024-04-10T17:12:06.117Z</time>
      </trkpt>
      <trkpt lat="48.03645" lon="-4.24875">
        <ele>149.9</ele>
        <time>2024-04-10T17:12:22.942Z</time>
      </trkpt>
      <trkpt lat="48.03663" lon="-4.24912">
        <ele>148.3</ele>
        <time>2024-04-10T17:12:26.198Z</time>
        <extensions>
          <visugpx:TrkExtension xmlns:visugpx="https://www.visugpx.com/editgpx/">
            <visugpx:node>5</visugpx:node>
            </visugpx:TrkExtension>
        </extensions>
      </trkpt>
      <trkpt lat="48.03752" lon="-4.25101">
        <ele>146.5</ele>
        <time>2024-04-10T17:12:48.691Z</time>
      </trkpt>
      <trkpt lat="48.03768" lon="-4.25127">
        <ele>146.3</ele>
        <time>2024-04-10T17:12:52.228Z</time>
      </trkpt>
      <trkpt lat="48.03771" lon="-4.25127">
        <ele>146.1</ele>
        <time>2024-04-10T17:12:52.519Z</time>
      </trkpt>
      <trkpt lat="48.03777" lon="-4.25131">
        <ele>145.8</ele>
        <time>2024-04-10T17:12:53.250Z</time>
      </trkpt>
      <trkpt lat="48.03778" lon="-4.25136">
        <ele>145.9</ele>
        <time>2024-04-10T17:12:54.012Z</time>
      </trkpt>
      <trkpt lat="48.03778" lon="-4.25145">
        <ele>146.2</ele>
        <time>2024-04-10T17:12:55.708Z</time>
      </trkpt>
      <trkpt lat="48.03789" lon="-4.25174">
        <ele>146.6</ele>
        <time>2024-04-10T17:13:00.033Z</time>
      </trkpt>
      <trkpt lat="48.03795" lon="-4.25184">
        <ele>146.6</ele>
        <time>2024-04-10T17:13:01.487Z</time>
      </trkpt>
      <trkpt lat="48.03814" lon="-4.25222">
        <ele>145.4</ele>
        <time>2024-04-10T17:13:05.224Z</time>
      </trkpt>
      <trkpt lat="48.03817" lon="-4.2523">
        <ele>145.5</ele>
        <time>2024-04-10T17:13:06.393Z</time>
      </trkpt>
      <trkpt lat="48.03832" lon="-4.25264">
        <ele>145.1</ele>
        <time>2024-04-10T17:13:10.253Z</time>
      </trkpt>
      <trkpt lat="48.03845" lon="-4.25289">
        <ele>144.1</ele>
        <time>2024-04-10T17:13:12.585Z</time>
      </trkpt>
      <trkpt lat="48.04027" lon="-4.25594">
        <ele>151.4</ele>
        <time>2024-04-10T17:14:10.946Z</time>
      </trkpt>
      <trkpt lat="48.04111" lon="-4.25739">
        <ele>153</ele>
        <time>2024-04-10T17:14:34.442Z</time>
      </trkpt>
      <trkpt lat="48.04126" lon="-4.25766">
        <ele>153</ele>
        <time>2024-04-10T17:14:38.242Z</time>
      </trkpt>
      <trkpt lat="48.0426" lon="-4.26005">
        <ele>152.9</ele>
        <time>2024-04-10T17:15:11.849Z</time>
      </trkpt>
      <trkpt lat="48.04382" lon="-4.2623">
        <ele>150.6</ele>
        <time>2024-04-10T17:15:39.976Z</time>
      </trkpt>
      <trkpt lat="48.04448" lon="-4.26344">
        <ele>148.9</ele>
        <time>2024-04-10T17:15:54.000Z</time>
      </trkpt>
      <trkpt lat="48.04492" lon="-4.26421">
        <ele>148.4</ele>
        <time>2024-04-10T17:16:04.236Z</time>
      </trkpt>
      <trkpt lat="48.04564" lon="-4.26535">
        <ele>148.7</ele>
        <time>2024-04-10T17:16:21.682Z</time>
      </trkpt>
      <trkpt lat="48.04625" lon="-4.26617">
        <ele>147.5</ele>
        <time>2024-04-10T17:16:33.310Z</time>
      </trkpt>
      <trkpt lat="48.04647" lon="-4.26642">
        <ele>147</ele>
        <time>2024-04-10T17:16:37.113Z</time>
      </trkpt>
      <trkpt lat="48.04704" lon="-4.26687">
        <ele>145</ele>
        <time>2024-04-10T17:16:45.104Z</time>
      </trkpt>
      <trkpt lat="48.04706" lon="-4.26698">
        <ele>145.2</ele>
        <time>2024-04-10T17:16:46.723Z</time>
      </trkpt>
      <trkpt lat="48.04737" lon="-4.26726">
        <ele>143.5</ele>
        <time>2024-04-10T17:16:50.719Z</time>
      </trkpt>
      <trkpt lat="48.04742" lon="-4.26733">
        <ele>143.4</ele>
        <time>2024-04-10T17:16:51.690Z</time>
      </trkpt>
      <trkpt lat="48.04742" lon="-4.26739">
        <ele>143.5</ele>
        <time>2024-04-10T17:16:52.530Z</time>
      </trkpt>
      <trkpt lat="48.04739" lon="-4.26754">
        <ele>144</ele>
        <time>2024-04-10T17:16:55.404Z</time>
      </trkpt>
      <trkpt lat="48.04731" lon="-4.26771">
        <ele>144.8</ele>
        <time>2024-04-10T17:16:59.732Z</time>
      </trkpt>
      <trkpt lat="48.04735" lon="-4.26781">
        <ele>145</ele>
        <time>2024-04-10T17:17:01.376Z</time>
      </trkpt>
      <trkpt lat="48.04761" lon="-4.26818">
        <ele>144.1</ele>
        <time>2024-04-10T17:17:06.040Z</time>
      </trkpt>
      <trkpt lat="48.04774" lon="-4.26831">
        <ele>143.3</ele>
        <time>2024-04-10T17:17:07.717Z</time>
      </trkpt>
      <trkpt lat="48.04789" lon="-4.26843">
        <ele>142.9</ele>
        <time>2024-04-10T17:17:09.955Z</time>
      </trkpt>
      <trkpt lat="48.04941" lon="-4.26955">
        <ele>136.1</ele>
        <time>2024-04-10T17:17:29.580Z</time>
      </trkpt>
      <trkpt lat="48.04997" lon="-4.26995">
        <ele>134.2</ele>
        <time>2024-04-10T17:17:37.299Z</time>
      </trkpt>
      <trkpt lat="48.05012" lon="-4.27001">
        <ele>133.6</ele>
        <time>2024-04-10T17:17:39.117Z</time>
      </trkpt>
      <trkpt lat="48.05025" lon="-4.27003">
        <ele>133.1</ele>
        <time>2024-04-10T17:17:40.651Z</time>
      </trkpt>
      <trkpt lat="48.05044" lon="-4.27003">
        <ele>131.9</ele>
        <time>2024-04-10T17:17:42.537Z</time>
      </trkpt>
      <trkpt lat="48.0518" lon="-4.26979">
        <ele>124.2</ele>
        <time>2024-04-10T17:17:56.739Z</time>
      </trkpt>
      <trkpt lat="48.05187" lon="-4.26945">
        <ele>123.3</ele>
        <time>2024-04-10T17:17:59.539Z</time>
      </trkpt>
      <trkpt lat="48.05189" lon="-4.26938">
        <ele>123.2</ele>
        <time>2024-04-10T17:18:00.231Z</time>
      </trkpt>
      <trkpt lat="48.0519" lon="-4.26926">
        <ele>123.1</ele>
        <time>2024-04-10T17:18:01.400Z</time>
      </trkpt>
      <trkpt lat="48.05525" lon="-4.27055">
        <ele>122</ele>
        <time>2024-04-10T17:18:55.749Z</time>
      </trkpt>
      <trkpt lat="48.05595" lon="-4.27084">
        <ele>121</ele>
        <time>2024-04-10T17:19:06.124Z</time>
      </trkpt>
      <trkpt lat="48.05685" lon="-4.27135">
        <ele>119</ele>
        <time>2024-04-10T17:19:19.077Z</time>
      </trkpt>
      <trkpt lat="48.05693" lon="-4.27141">
        <ele>119</ele>
        <time>2024-04-10T17:19:20.525Z</time>
      </trkpt>
      <trkpt lat="48.05699" lon="-4.27146">
        <ele>119.1</ele>
        <time>2024-04-10T17:19:21.811Z</time>
      </trkpt>
      <trkpt lat="48.05737" lon="-4.27178">
        <ele>118.4</ele>
        <time>2024-04-10T17:19:27.918Z</time>
      </trkpt>
      <trkpt lat="48.05786" lon="-4.27223">
        <ele>117</ele>
        <time>2024-04-10T17:19:35.434Z</time>
      </trkpt>
      <trkpt lat="48.05828" lon="-4.27266">
        <ele>115.5</ele>
        <time>2024-04-10T17:19:41.821Z</time>
      </trkpt>
      <trkpt lat="48.05951" lon="-4.27401">
        <ele>109.8</ele>
        <time>2024-04-10T17:19:59.850Z</time>
      </trkpt>
      <trkpt lat="48.06001" lon="-4.27458">
        <ele>107.5</ele>
        <time>2024-04-10T17:20:07.323Z</time>
      </trkpt>
      <trkpt lat="48.0602" lon="-4.2748">
        <ele>106.1</ele>
        <time>2024-04-10T17:20:09.782Z</time>
      </trkpt>
      <trkpt lat="48.06034" lon="-4.27497">
        <ele>104.7</ele>
        <time>2024-04-10T17:20:11.533Z</time>
      </trkpt>
      <trkpt lat="48.06056" lon="-4.27527">
        <ele>103.9</ele>
        <time>2024-04-10T17:20:15.346Z</time>
      </trkpt>
      <trkpt lat="48.06077" lon="-4.2756">
        <ele>101.6</ele>
        <time>2024-04-10T17:20:18.304Z</time>
      </trkpt>
      <trkpt lat="48.06116" lon="-4.27625">
        <ele>100.4</ele>
        <time>2024-04-10T17:20:26.176Z</time>
      </trkpt>
      <trkpt lat="48.06195" lon="-4.27768">
        <ele>97.4</ele>
        <time>2024-04-10T17:20:42.405Z</time>
      </trkpt>
      <trkpt lat="48.06233" lon="-4.27852">
        <ele>95.3</ele>
        <time>2024-04-10T17:20:50.814Z</time>
      </trkpt>
      <trkpt lat="48.06246" lon="-4.27882">
        <ele>94.2</ele>
        <time>2024-04-10T17:20:53.467Z</time>
      </trkpt>
      <trkpt lat="48.06259" lon="-4.27875">
        <ele>94.8</ele>
        <time>2024-04-10T17:20:57.061Z</time>
      </trkpt>
      <trkpt lat="48.06263" lon="-4.27889">
        <ele>94.5</ele>
        <time>2024-04-10T17:20:58.337Z</time>
      </trkpt>
      <trkpt lat="48.06266" lon="-4.27916">
        <ele>94.6</ele>
        <time>2024-04-10T17:21:01.460Z</time>
      </trkpt>
      <trkpt lat="48.06271" lon="-4.27941">
        <ele>93.9</ele>
        <time>2024-04-10T17:21:03.479Z</time>
      </trkpt>
      <trkpt lat="48.0628" lon="-4.27971">
        <ele>93.2</ele>
        <time>2024-04-10T17:21:06.187Z</time>
      </trkpt>
      <trkpt lat="48.06298" lon="-4.28023">
        <ele>93</ele>
        <time>2024-04-10T17:21:12.227Z</time>
      </trkpt>
      <trkpt lat="48.06328" lon="-4.28115">
        <ele>92.8</ele>
        <time>2024-04-10T17:21:23.002Z</time>
      </trkpt>
      <trkpt lat="48.06378" lon="-4.28288">
        <ele>93.6</ele>
        <time>2024-04-10T17:21:44.691Z</time>
      </trkpt>
      <trkpt lat="48.06392" lon="-4.28346">
        <ele>92.6</ele>
        <time>2024-04-10T17:21:50.082Z</time>
      </trkpt>
      <trkpt lat="48.06429" lon="-4.28476">
        <ele>91.3</ele>
        <time>2024-04-10T17:22:03.570Z</time>
      </trkpt>
      <trkpt lat="48.06448" lon="-4.28532">
        <ele>88.5</ele>
        <time>2024-04-10T17:22:07.647Z</time>
      </trkpt>
      <trkpt lat="48.06465" lon="-4.28573">
        <ele>87.4</ele>
        <time>2024-04-10T17:22:11.552Z</time>
      </trkpt>
      <trkpt lat="48.0651" lon="-4.28676">
        <ele>82.7</ele>
        <time>2024-04-10T17:22:20.030Z</time>
      </trkpt>
      <trkpt lat="48.06588" lon="-4.28849">
        <ele>76.6</ele>
        <time>2024-04-10T17:22:35.770Z</time>
      </trkpt>
      <trkpt lat="48.06663" lon="-4.29028">
        <ele>71</ele>
        <time>2024-04-10T17:22:52.178Z</time>
      </trkpt>
      <trkpt lat="48.06691" lon="-4.29091">
        <ele>68.7</ele>
        <time>2024-04-10T17:22:57.815Z</time>
      </trkpt>
      <trkpt lat="48.06697" lon="-4.29108">
        <ele>68.2</ele>
        <time>2024-04-10T17:22:59.316Z</time>
      </trkpt>
      <trkpt lat="48.0672" lon="-4.29166">
        <ele>66</ele>
        <time>2024-04-10T17:23:04.227Z</time>
      </trkpt>
      <trkpt lat="48.06723" lon="-4.29174">
        <ele>65.7</ele>
        <time>2024-04-10T17:23:04.894Z</time>
      </trkpt>
      <trkpt lat="48.06737" lon="-4.29213">
        <ele>64.3</ele>
        <time>2024-04-10T17:23:08.150Z</time>
      </trkpt>
      <trkpt lat="48.06742" lon="-4.2923">
        <ele>63.9</ele>
        <time>2024-04-10T17:23:09.675Z</time>
      </trkpt>
      <trkpt lat="48.06755" lon="-4.29283">
        <ele>63.8</ele>
        <time>2024-04-10T17:23:15.632Z</time>
      </trkpt>
      <trkpt lat="48.06764" lon="-4.29332">
        <ele>63</ele>
        <time>2024-04-10T17:23:20.100Z</time>
      </trkpt>
      <trkpt lat="48.0678" lon="-4.29444">
        <ele>61.9</ele>
        <time>2024-04-10T17:23:30.975Z</time>
      </trkpt>
      <trkpt lat="48.06781" lon="-4.29468">
        <ele>61.9</ele>
        <time>2024-04-10T17:23:33.576Z</time>
      </trkpt>
      <trkpt lat="48.06789" lon="-4.29521">
        <ele>61.3</ele>
        <time>2024-04-10T17:23:38.641Z</time>
      </trkpt>
      <trkpt lat="48.06802" lon="-4.29586">
        <ele>60.1</ele>
        <time>2024-04-10T17:23:44.468Z</time>
      </trkpt>
      <trkpt lat="48.06818" lon="-4.29647">
        <ele>60.7</ele>
        <time>2024-04-10T17:23:52.592Z</time>
      </trkpt>
      <trkpt lat="48.06849" lon="-4.29722">
        <ele>57.4</ele>
        <time>2024-04-10T17:23:58.712Z</time>
      </trkpt>
      <trkpt lat="48.06871" lon="-4.29766">
        <ele>55.6</ele>
        <time>2024-04-10T17:24:02.707Z</time>
      </trkpt>
      <trkpt lat="48.06963" lon="-4.29945">
        <ele>48</ele>
        <time>2024-04-10T17:24:18.976Z</time>
      </trkpt>
      <trkpt lat="48.06982" lon="-4.29986">
        <ele>46.5</ele>
        <time>2024-04-10T17:24:22.706Z</time>
      </trkpt>
      <trkpt lat="48.07011" lon="-4.30058">
        <ele>43.9</ele>
        <time>2024-04-10T17:24:28.934Z</time>
      </trkpt>
      <trkpt lat="48.07051" lon="-4.30164">
        <ele>41</ele>
        <time>2024-04-10T17:24:38.672Z</time>
      </trkpt>
      <trkpt lat="48.07085" lon="-4.30265">
        <ele>40.2</ele>
        <time>2024-04-10T17:24:49.772Z</time>
      </trkpt>
      <trkpt lat="48.07145" lon="-4.3047">
        <ele>38.1</ele>
        <time>2024-04-10T17:25:11.083Z</time>
      </trkpt>
      <trkpt lat="48.07177" lon="-4.30559">
        <ele>38.8</ele>
        <time>2024-04-10T17:25:23.189Z</time>
      </trkpt>
      <trkpt lat="48.07227" lon="-4.30675">
        <ele>39.9</ele>
        <time>2024-04-10T17:25:39.989Z</time>
      </trkpt>
      <trkpt lat="48.07262" lon="-4.30742">
        <ele>41.4</ele>
        <time>2024-04-10T17:25:52.080Z</time>
      </trkpt>
      <trkpt lat="48.07285" lon="-4.30783">
        <ele>43.1</ele>
        <time>2024-04-10T17:26:01.870Z</time>
      </trkpt>
      <trkpt lat="48.07323" lon="-4.30846">
        <ele>45.1</ele>
        <time>2024-04-10T17:26:15.234Z</time>
      </trkpt>
      <trkpt lat="48.07408" lon="-4.30971">
        <ele>49</ele>
        <time>2024-04-10T17:26:42.493Z</time>
      </trkpt>
      <trkpt lat="48.07418" lon="-4.30986">
        <ele>49</ele>
        <time>2024-04-10T17:26:44.785Z</time>
      </trkpt>
      <trkpt lat="48.0743" lon="-4.31003">
        <ele>49</ele>
        <time>2024-04-10T17:26:47.460Z</time>
      </trkpt>
      <trkpt lat="48.07442" lon="-4.31021">
        <ele>49</ele>
        <time>2024-04-10T17:26:50.210Z</time>
      </trkpt>
      <trkpt lat="48.07457" lon="-4.31044">
        <ele>48.2</ele>
        <time>2024-04-10T17:26:52.750Z</time>
      </trkpt>
      <trkpt lat="48.07486" lon="-4.31087">
        <ele>48</ele>
        <time>2024-04-10T17:26:59.063Z</time>
      </trkpt>
      <trkpt lat="48.07521" lon="-4.31119">
        <ele>47</ele>
        <time>2024-04-10T17:27:04.423Z</time>
      </trkpt>
      <trkpt lat="48.07541" lon="-4.3113">
        <ele>46.2</ele>
        <time>2024-04-10T17:27:06.938Z</time>
      </trkpt>
      <trkpt lat="48.07553" lon="-4.31134">
        <ele>46</ele>
        <time>2024-04-10T17:27:08.656Z</time>
      </trkpt>
      <trkpt lat="48.0756" lon="-4.31129">
        <ele>45.8</ele>
        <time>2024-04-10T17:27:09.659Z</time>
      </trkpt>
      <trkpt lat="48.0757" lon="-4.31129">
        <ele>45.5</ele>
        <time>2024-04-10T17:27:10.908Z</time>
      </trkpt>
      <trkpt lat="48.07575" lon="-4.31133">
        <ele>45.3</ele>
        <time>2024-04-10T17:27:11.589Z</time>
      </trkpt>
      <trkpt lat="48.0758" lon="-4.31139">
        <ele>45.1</ele>
        <time>2024-04-10T17:27:12.383Z</time>
      </trkpt>
      <trkpt lat="48.07584" lon="-4.31153">
        <ele>45</ele>
        <time>2024-04-10T17:27:13.887Z</time>
      </trkpt>
      <trkpt lat="48.07583" lon="-4.31169">
        <ele>45</ele>
        <time>2024-04-10T17:27:15.625Z</time>
      </trkpt>
      <trkpt lat="48.07579" lon="-4.31176">
        <ele>45.2</ele>
        <time>2024-04-10T17:27:17.029Z</time>
      </trkpt>
      <trkpt lat="48.07578" lon="-4.31195">
        <ele>45.2</ele>
        <time>2024-04-10T17:27:19.091Z</time>
      </trkpt>
      <trkpt lat="48.07579" lon="-4.31221">
        <ele>45.3</ele>
        <time>2024-04-10T17:27:22.069Z</time>
      </trkpt>
      <trkpt lat="48.07583" lon="-4.31251">
        <ele>45</ele>
        <time>2024-04-10T17:27:24.966Z</time>
      </trkpt>
      <trkpt lat="48.07587" lon="-4.31271">
        <ele>45.3</ele>
        <time>2024-04-10T17:27:27.777Z</time>
      </trkpt>
      <trkpt lat="48.07593" lon="-4.31285">
        <ele>44.6</ele>
        <time>2024-04-10T17:27:28.881Z</time>
      </trkpt>
      <trkpt lat="48.07604" lon="-4.31308">
        <ele>44.3</ele>
        <time>2024-04-10T17:27:31.532Z</time>
        <extensions>
          <visugpx:TrkExtension xmlns:visugpx="https://www.visugpx.com/editgpx/">
            <visugpx:node>6</visugpx:node>
            </visugpx:TrkExtension>
        </extensions>
      </trkpt>
      <trkpt lat="48.07641" lon="-4.3138">
        <ele>43.7</ele>
        <time>2024-04-10T17:27:40.502Z</time>
      </trkpt>
      <trkpt lat="48.07684" lon="-4.31461">
        <ele>43</ele>
        <time>2024-04-10T17:27:50.697Z</time>
      </trkpt>
      <trkpt lat="48.07708" lon="-4.31508">
        <ele>42.7</ele>
        <time>2024-04-10T17:27:56.660Z</time>
      </trkpt>
      <trkpt lat="48.0772" lon="-4.3154">
        <ele>41.4</ele>
        <time>2024-04-10T17:27:59.257Z</time>
      </trkpt>
      <trkpt lat="48.07727" lon="-4.31564">
        <ele>40.8</ele>
        <time>2024-04-10T17:28:01.373Z</time>
      </trkpt>
      <trkpt lat="48.07731" lon="-4.3159">
        <ele>40.4</ele>
        <time>2024-04-10T17:28:03.740Z</time>
      </trkpt>
      <trkpt lat="48.07733" lon="-4.31632">
        <ele>39.3</ele>
        <time>2024-04-10T17:28:07.022Z</time>
      </trkpt>
      <trkpt lat="48.07732" lon="-4.31658">
        <ele>38.6</ele>
        <time>2024-04-10T17:28:09.036Z</time>
      </trkpt>
      <trkpt lat="48.0773" lon="-4.31689">
        <ele>37.1</ele>
        <time>2024-04-10T17:28:11.057Z</time>
      </trkpt>
      <trkpt lat="48.07713" lon="-4.31792">
        <ele>33.3</ele>
        <time>2024-04-10T17:28:18.536Z</time>
      </trkpt>
      <trkpt lat="48.0771" lon="-4.31813">
        <ele>31.8</ele>
        <time>2024-04-10T17:28:19.929Z</time>
      </trkpt>
      <trkpt lat="48.07709" lon="-4.31836">
        <ele>30.4</ele>
        <time>2024-04-10T17:28:21.425Z</time>
      </trkpt>
      <trkpt lat="48.07709" lon="-4.31876">
        <ele>29.6</ele>
        <time>2024-04-10T17:28:24.767Z</time>
      </trkpt>
      <trkpt lat="48.07713" lon="-4.31908">
        <ele>29.5</ele>
        <time>2024-04-10T17:28:28.140Z</time>
      </trkpt>
      <trkpt lat="48.07723" lon="-4.31947">
        <ele>29.8</ele>
        <time>2024-04-10T17:28:33.163Z</time>
      </trkpt>
      <trkpt lat="48.07732" lon="-4.31975">
        <ele>28</ele>
        <time>2024-04-10T17:28:35.179Z</time>
      </trkpt>
      <trkpt lat="48.07742" lon="-4.31999">
        <ele>27.8</ele>
        <time>2024-04-10T17:28:37.955Z</time>
      </trkpt>
      <trkpt lat="48.07778" lon="-4.32061">
        <ele>26.2</ele>
        <time>2024-04-10T17:28:44.860Z</time>
      </trkpt>
      <trkpt lat="48.07823" lon="-4.32131">
        <ele>23.7</ele>
        <time>2024-04-10T17:28:52.466Z</time>
      </trkpt>
      <trkpt lat="48.07883" lon="-4.32222">
        <ele>20.8</ele>
        <time>2024-04-10T17:29:02.823Z</time>
      </trkpt>
      <trkpt lat="48.07894" lon="-4.3224">
        <ele>20.3</ele>
        <time>2024-04-10T17:29:04.849Z</time>
      </trkpt>
      <trkpt lat="48.07932" lon="-4.32296">
        <ele>17.7</ele>
        <time>2024-04-10T17:29:10.662Z</time>
      </trkpt>
      <trkpt lat="48.08021" lon="-4.32435">
        <ele>13</ele>
        <time>2024-04-10T17:29:25.958Z</time>
      </trkpt>
      <trkpt lat="48.08038" lon="-4.32462">
        <ele>12.7</ele>
        <time>2024-04-10T17:29:29.550Z</time>
      </trkpt>
      <trkpt lat="48.08049" lon="-4.32483">
        <ele>11.8</ele>
        <time>2024-04-10T17:29:31.470Z</time>
      </trkpt>
      <trkpt lat="48.08059" lon="-4.32514">
        <ele>9.2</ele>
        <time>2024-04-10T17:29:33.704Z</time>
      </trkpt>
      <trkpt lat="48.08066" lon="-4.32558">
        <ele>7.6</ele>
        <time>2024-04-10T17:29:36.906Z</time>
      </trkpt>
      <trkpt lat="48.08066" lon="-4.32604">
        <ele>6.9</ele>
        <time>2024-04-10T17:29:40.975Z</time>
      </trkpt>
      <trkpt lat="48.08068" lon="-4.32619">
        <ele>6.5</ele>
        <time>2024-04-10T17:29:42.167Z</time>
      </trkpt>
      <trkpt lat="48.08074" lon="-4.32645">
        <ele>6.7</ele>
        <time>2024-04-10T17:29:45.479Z</time>
      </trkpt>
      <trkpt lat="48.08077" lon="-4.32654">
        <ele>6.9</ele>
        <time>2024-04-10T17:29:46.964Z</time>
      </trkpt>
      <trkpt lat="48.08083" lon="-4.32663">
        <ele>7</ele>
        <time>2024-04-10T17:29:48.509Z</time>
      </trkpt>
      <trkpt lat="48.08086" lon="-4.32675">
        <ele>7.4</ele>
        <time>2024-04-10T17:29:50.828Z</time>
      </trkpt>
      <trkpt lat="48.08086" lon="-4.32687">
        <ele>7.8</ele>
        <time>2024-04-10T17:29:53.089Z</time>
      </trkpt>
      <trkpt lat="48.08087" lon="-4.32699">
        <ele>8</ele>
        <time>2024-04-10T17:29:54.777Z</time>
      </trkpt>
      <trkpt lat="48.08087" lon="-4.32718">
        <ele>8.1</ele>
        <time>2024-04-10T17:29:56.996Z</time>
      </trkpt>
      <trkpt lat="48.08088" lon="-4.3273">
        <ele>8.2</ele>
        <time>2024-04-10T17:29:58.475Z</time>
      </trkpt>
      <trkpt lat="48.08094" lon="-4.32754">
        <ele>8.4</ele>
        <time>2024-04-10T17:30:01.585Z</time>
      </trkpt>
      <trkpt lat="48.08097" lon="-4.32766">
        <ele>8.8</ele>
        <time>2024-04-10T17:30:03.904Z</time>
      </trkpt>
      <trkpt lat="48.08098" lon="-4.32779">
        <ele>9.1</ele>
        <time>2024-04-10T17:30:05.942Z</time>
      </trkpt>
      <trkpt lat="48.08102" lon="-4.32792">
        <ele>9.5</ele>
        <time>2024-04-10T17:30:08.380Z</time>
      </trkpt>
      <trkpt lat="48.08114" lon="-4.32835">
        <ele>11.2</ele>
        <time>2024-04-10T17:30:17.709Z</time>
      </trkpt>
      <trkpt lat="48.0813" lon="-4.32863">
        <ele>11</ele>
        <time>2024-04-10T17:30:21.405Z</time>
      </trkpt>
      <trkpt lat="48.08133" lon="-4.32866">
        <ele>11.3</ele>
        <time>2024-04-10T17:30:22.992Z</time>
      </trkpt>
      <trkpt lat="48.08168" lon="-4.32894">
        <ele>12</ele>
        <time>2024-04-10T17:30:30.665Z</time>
      </trkpt>
      <trkpt lat="48.08205" lon="-4.32911">
        <ele>14.2</ele>
        <time>2024-04-10T17:30:42.606Z</time>
      </trkpt>
      <trkpt lat="48.0822" lon="-4.32915">
        <ele>14.3</ele>
        <time>2024-04-10T17:30:45.235Z</time>
      </trkpt>
      <trkpt lat="48.08233" lon="-4.32917">
        <ele>14</ele>
        <time>2024-04-10T17:30:46.963Z</time>
      </trkpt>
      <trkpt lat="48.08294" lon="-4.32926">
        <ele>16.6</ele>
        <time>2024-04-10T17:31:02.707Z</time>
      </trkpt>
      <trkpt lat="48.08336" lon="-4.32939">
        <ele>16.7</ele>
        <time>2024-04-10T17:31:09.807Z</time>
      </trkpt>
      <trkpt lat="48.08373" lon="-4.32959">
        <ele>16.6</ele>
        <time>2024-04-10T17:31:16.024Z</time>
      </trkpt>
      <trkpt lat="48.08416" lon="-4.32993">
        <ele>18.4</ele>
        <time>2024-04-10T17:31:27.724Z</time>
      </trkpt>
      <trkpt lat="48.08509" lon="-4.33082">
        <ele>20.4</ele>
        <time>2024-04-10T17:31:49.176Z</time>
      </trkpt>
      <trkpt lat="48.08515" lon="-4.33088">
        <ele>20.3</ele>
        <time>2024-04-10T17:31:50.206Z</time>
      </trkpt>
      <trkpt lat="48.08547" lon="-4.33108">
        <ele>21.4</ele>
        <time>2024-04-10T17:31:58.046Z</time>
      </trkpt>
      <trkpt lat="48.08563" lon="-4.33112">
        <ele>21.3</ele>
        <time>2024-04-10T17:32:00.525Z</time>
      </trkpt>
      <trkpt lat="48.08602" lon="-4.33115">
        <ele>22</ele>
        <time>2024-04-10T17:32:08.099Z</time>
      </trkpt>
      <trkpt lat="48.08628" lon="-4.33111">
        <ele>21.8</ele>
        <time>2024-04-10T17:32:12.040Z</time>
      </trkpt>
      <trkpt lat="48.08648" lon="-4.33106">
        <ele>21.1</ele>
        <time>2024-04-10T17:32:14.488Z</time>
      </trkpt>
      <trkpt lat="48.08664" lon="-4.33098">
        <ele>21.5</ele>
        <time>2024-04-10T17:32:17.972Z</time>
      </trkpt>
      <trkpt lat="48.08694" lon="-4.33076">
        <ele>23.8</ele>
        <time>2024-04-10T17:32:30.071Z</time>
      </trkpt>
      <trkpt lat="48.08706" lon="-4.33062">
        <ele>24</ele>
        <time>2024-04-10T17:32:32.877Z</time>
      </trkpt>
      <trkpt lat="48.08772" lon="-4.32954">
        <ele>26.1</ele>
        <time>2024-04-10T17:32:52.580Z</time>
      </trkpt>
      <trkpt lat="48.08785" lon="-4.32938">
        <ele>26.6</ele>
        <time>2024-04-10T17:32:56.298Z</time>
      </trkpt>
      <trkpt lat="48.08803" lon="-4.32925">
        <ele>26.8</ele>
        <time>2024-04-10T17:32:59.867Z</time>
      </trkpt>
      <trkpt lat="48.08825" lon="-4.32915">
        <ele>27.1</ele>
        <time>2024-04-10T17:33:04.104Z</time>
      </trkpt>
      <trkpt lat="48.08843" lon="-4.32915">
        <ele>27</ele>
        <time>2024-04-10T17:33:06.870Z</time>
      </trkpt>
      <trkpt lat="48.08866" lon="-4.32921">
        <ele>26.3</ele>
        <time>2024-04-10T17:33:09.789Z</time>
      </trkpt>
      <trkpt lat="48.08877" lon="-4.32927">
        <ele>26</ele>
        <time>2024-04-10T17:33:11.303Z</time>
      </trkpt>
      <trkpt lat="48.08923" lon="-4.32972">
        <ele>27.2</ele>
        <time>2024-04-10T17:33:22.420Z</time>
      </trkpt>
      <trkpt lat="48.08953" lon="-4.33002">
        <ele>27</ele>
        <time>2024-04-10T17:33:27.966Z</time>
      </trkpt>
      <trkpt lat="48.08979" lon="-4.33029">
        <ele>27.2</ele>
        <time>2024-04-10T17:33:33.412Z</time>
        <extensions>
          <visugpx:TrkExtension xmlns:visugpx="https://www.visugpx.com/editgpx/">
            <visugpx:node>7</visugpx:node>
            </visugpx:TrkExtension>
        </extensions>
      </trkpt>
      <trkpt lat="48.09023" lon="-4.33076">
        <ele>26.8</ele>
        <time>2024-04-10T17:33:41.582Z</time>
      </trkpt>
      <trkpt lat="48.09036" lon="-4.33095">
        <ele>26.9</ele>
        <time>2024-04-10T17:33:44.684Z</time>
      </trkpt>
      <trkpt lat="48.0904" lon="-4.33094">
        <ele>27.1</ele>
        <time>2024-04-10T17:33:45.819Z</time>
      </trkpt>
      <trkpt lat="48.09043" lon="-4.33095">
        <ele>27.1</ele>
        <time>2024-04-10T17:33:46.317Z</time>
      </trkpt>
      <trkpt lat="48.09048" lon="-4.33101">
        <ele>27.1</ele>
        <time>2024-04-10T17:33:47.354Z</time>
      </trkpt>
      <trkpt lat="48.09049" lon="-4.33105">
        <ele>27</ele>
        <time>2024-04-10T17:33:47.697Z</time>
      </trkpt>
      <trkpt lat="48.09048" lon="-4.33114">
        <ele>26.7</ele>
        <time>2024-04-10T17:33:48.359Z</time>
      </trkpt>
      <trkpt lat="48.09045" lon="-4.3312">
        <ele>26.5</ele>
        <time>2024-04-10T17:33:48.940Z</time>
      </trkpt>
      <trkpt lat="48.0904" lon="-4.33122">
        <ele>26.5</ele>
        <time>2024-04-10T17:33:49.778Z</time>
      </trkpt>
      <trkpt lat="48.09028" lon="-4.33143">
        <ele>27</ele>
        <time>2024-04-10T17:33:53.736Z</time>
      </trkpt>
      <trkpt lat="48.0902" lon="-4.33177">
        <ele>22.8</ele>
        <time>2024-04-10T17:33:56.075Z</time>
      </trkpt>
      <trkpt lat="48.08963" lon="-4.33429">
        <ele>15</ele>
        <time>2024-04-10T17:34:16.111Z</time>
      </trkpt>
      <trkpt lat="48.0896" lon="-4.33445">
        <ele>20</ele>
        <time>2024-04-10T17:34:23.812Z</time>
      </trkpt>
      <trkpt lat="48.08958" lon="-4.3346">
        <ele>20.6</ele>
        <time>2024-04-10T17:34:27.044Z</time>
      </trkpt>
      <trkpt lat="48.08961" lon="-4.33483">
        <ele>22</ele>
        <time>2024-04-10T17:34:34.534Z</time>
      </trkpt>
      <trkpt lat="48.08972" lon="-4.33505">
        <ele>26</ele>
        <time>2024-04-10T17:34:47.269Z</time>
      </trkpt>
      <trkpt lat="48.0899" lon="-4.33533">
        <ele>26.2</ele>
        <time>2024-04-10T17:34:51.799Z</time>
      </trkpt>
      <trkpt lat="48.08992" lon="-4.33533">
        <ele>26.2</ele>
        <time>2024-04-10T17:34:52.123Z</time>
      </trkpt>
      <trkpt lat="48.09004" lon="-4.3353">
        <ele>26.1</ele>
        <time>2024-04-10T17:34:53.948Z</time>
      </trkpt>
      <trkpt lat="48.09012" lon="-4.33531">
        <ele>26.1</ele>
        <time>2024-04-10T17:34:55.248Z</time>
      </trkpt>
      <trkpt lat="48.09018" lon="-4.33537">
        <ele>26.1</ele>
        <time>2024-04-10T17:34:56.416Z</time>
      </trkpt>
      <trkpt lat="48.09108" lon="-4.33591">
        <ele>25.4</ele>
        <time>2024-04-10T17:35:11.094Z</time>
      </trkpt>
      <trkpt lat="48.09156" lon="-4.3362">
        <ele>25.6</ele>
        <time>2024-04-10T17:35:19.791Z</time>
      </trkpt>
      <trkpt lat="48.09193" lon="-4.33644">
        <ele>26.2</ele>
        <time>2024-04-10T17:35:27.364Z</time>
      </trkpt>
      <trkpt lat="48.09207" lon="-4.33661">
        <ele>26.9</ele>
        <time>2024-04-10T17:35:31.797Z</time>
      </trkpt>
      <trkpt lat="48.0923" lon="-4.33689">
        <ele>28.1</ele>
        <time>2024-04-10T17:35:39.233Z</time>
      </trkpt>
      <trkpt lat="48.09255" lon="-4.33718">
        <ele>29.3</ele>
        <time>2024-04-10T17:35:46.927Z</time>
      </trkpt>
      <trkpt lat="48.09278" lon="-4.33741">
        <ele>31</ele>
        <time>2024-04-10T17:35:55.997Z</time>
      </trkpt>
      <trkpt lat="48.09299" lon="-4.33766">
        <ele>31.8</ele>
        <time>2024-04-10T17:36:01.932Z</time>
      </trkpt>
      <trkpt lat="48.09303" lon="-4.33779">
        <ele>31.9</ele>
        <time>2024-04-10T17:36:03.647Z</time>
      </trkpt>
      <trkpt lat="48.09305" lon="-4.33794">
        <ele>32</ele>
        <time>2024-04-10T17:36:05.468Z</time>
      </trkpt>
      <trkpt lat="48.09311" lon="-4.33857">
        <ele>30.4</ele>
        <time>2024-04-10T17:36:10.481Z</time>
      </trkpt>
      <trkpt lat="48.09312" lon="-4.33878">
        <ele>29.5</ele>
        <time>2024-04-10T17:36:11.870Z</time>
      </trkpt>
      <trkpt lat="48.09314" lon="-4.3392">
        <ele>26.8</ele>
        <time>2024-04-10T17:36:14.602Z</time>
      </trkpt>
      <trkpt lat="48.09319" lon="-4.33956">
        <ele>25.1</ele>
        <time>2024-04-10T17:36:16.987Z</time>
      </trkpt>
      <trkpt lat="48.09325" lon="-4.33987">
        <ele>23.8</ele>
        <time>2024-04-10T17:36:19.165Z</time>
      </trkpt>
      <trkpt lat="48.09327" lon="-4.33991">
        <ele>23.6</ele>
        <time>2024-04-10T17:36:19.503Z</time>
      </trkpt>
      <trkpt lat="48.09328" lon="-4.33993">
        <ele>23.4</ele>
        <time>2024-04-10T17:36:19.665Z</time>
      </trkpt>
      <trkpt lat="48.09331" lon="-4.34003">
        <ele>23.1</ele>
        <time>2024-04-10T17:36:20.508Z</time>
      </trkpt>
      <trkpt lat="48.09387" lon="-4.34113">
        <ele>19.2</ele>
        <time>2024-04-10T17:36:31.048Z</time>
      </trkpt>
      <trkpt lat="48.09411" lon="-4.34155">
        <ele>18.4</ele>
        <time>2024-04-10T17:36:35.980Z</time>
      </trkpt>
      <trkpt lat="48.09418" lon="-4.34167">
        <ele>17.9</ele>
        <time>2024-04-10T17:36:37.154Z</time>
      </trkpt>
      <trkpt lat="48.09423" lon="-4.34174">
        <ele>17.6</ele>
        <time>2024-04-10T17:36:37.927Z</time>
      </trkpt>
      <trkpt lat="48.09432" lon="-4.34188">
        <ele>17.5</ele>
        <time>2024-04-10T17:36:39.883Z</time>
      </trkpt>
      <trkpt lat="48.09435" lon="-4.34193">
        <ele>17.6</ele>
        <time>2024-04-10T17:36:40.795Z</time>
      </trkpt>
      <trkpt lat="48.09524" lon="-4.34306">
        <ele>13.3</ele>
        <time>2024-04-10T17:36:54.640Z</time>
      </trkpt>
      <trkpt lat="48.09533" lon="-4.34319">
        <ele>11.8</ele>
        <time>2024-04-10T17:36:55.855Z</time>
      </trkpt>
      <trkpt lat="48.09544" lon="-4.34333">
        <ele>10.1</ele>
        <time>2024-04-10T17:36:57.257Z</time>
      </trkpt>
      <trkpt lat="48.09555" lon="-4.3435">
        <ele>8.7</ele>
        <time>2024-04-10T17:36:58.793Z</time>
      </trkpt>
      <trkpt lat="48.09576" lon="-4.34379">
        <ele>7</ele>
        <time>2024-04-10T17:37:01.694Z</time>
      </trkpt>
      <trkpt lat="48.09592" lon="-4.34401">
        <ele>6.4</ele>
        <time>2024-04-10T17:37:04.460Z</time>
      </trkpt>
      <trkpt lat="48.09609" lon="-4.34422">
        <ele>5.3</ele>
        <time>2024-04-10T17:37:06.843Z</time>
      </trkpt>
      <trkpt lat="48.0961" lon="-4.3442">
        <ele>5.2</ele>
        <time>2024-04-10T17:37:07.012Z</time>
      </trkpt>
      <trkpt lat="48.09613" lon="-4.34419">
        <ele>5.3</ele>
        <time>2024-04-10T17:37:07.714Z</time>
      </trkpt>
      <trkpt lat="48.09619" lon="-4.34426">
        <ele>6.3</ele>
        <time>2024-04-10T17:37:12.981Z</time>
      </trkpt>
      <trkpt lat="48.09621" lon="-4.34431">
        <ele>6.8</ele>
        <time>2024-04-10T17:37:15.658Z</time>
      </trkpt>
      <trkpt lat="48.09622" lon="-4.34436">
        <ele>7.1</ele>
        <time>2024-04-10T17:37:17.253Z</time>
      </trkpt>
      <trkpt lat="48.09621" lon="-4.3444">
        <ele>7.2</ele>
        <time>2024-04-10T17:37:17.924Z</time>
      </trkpt>
      <trkpt lat="48.0962" lon="-4.34463">
        <ele>9.2</ele>
        <time>2024-04-10T17:37:28.553Z</time>
      </trkpt>
      <trkpt lat="48.09601" lon="-4.34536">
        <ele>9.9</ele>
        <time>2024-04-10T17:37:38.228Z</time>
      </trkpt>
      <trkpt lat="48.09549" lon="-4.34659">
        <ele>15.5</ele>
        <time>2024-04-10T17:38:08.522Z</time>
      </trkpt>
      <trkpt lat="48.0954" lon="-4.34703">
        <ele>18.6</ele>
        <time>2024-04-10T17:38:25.494Z</time>
      </trkpt>
      <trkpt lat="48.09545" lon="-4.34786">
        <ele>18.5</ele>
        <time>2024-04-10T17:38:34.353Z</time>
      </trkpt>
      <trkpt lat="48.0955" lon="-4.34869">
        <ele>19.1</ele>
        <time>2024-04-10T17:38:44.373Z</time>
      </trkpt>
      <trkpt lat="48.09548" lon="-4.34877">
        <ele>18.8</ele>
        <time>2024-04-10T17:38:44.979Z</time>
      </trkpt>
      <trkpt lat="48.09551" lon="-4.34893">
        <ele>19.2</ele>
        <time>2024-04-10T17:38:47.619Z</time>
      </trkpt>
      <trkpt lat="48.09555" lon="-4.34921">
        <ele>19.9</ele>
        <time>2024-04-10T17:38:52.197Z</time>
      </trkpt>
      <trkpt lat="48.0956" lon="-4.34948">
        <ele>20.6</ele>
        <time>2024-04-10T17:38:56.721Z</time>
      </trkpt>
      <trkpt lat="48.09564" lon="-4.34963">
        <ele>20.4</ele>
        <time>2024-04-10T17:38:58.200Z</time>
      </trkpt>
      <trkpt lat="48.09626" lon="-4.35065">
        <ele>25.5</ele>
        <time>2024-04-10T17:39:26.076Z</time>
      </trkpt>
      <trkpt lat="48.09632" lon="-4.35072">
        <ele>25.8</ele>
        <time>2024-04-10T17:39:27.960Z</time>
      </trkpt>
      <trkpt lat="48.09643" lon="-4.35074">
        <ele>25.9</ele>
        <time>2024-04-10T17:39:29.920Z</time>
      </trkpt>
      <trkpt lat="48.09647" lon="-4.35091">
        <ele>25.7</ele>
        <time>2024-04-10T17:39:31.598Z</time>
      </trkpt>
      <trkpt lat="48.09749" lon="-4.35145">
        <ele>23.3</ele>
        <time>2024-04-10T17:39:45.991Z</time>
      </trkpt>
      <trkpt lat="48.09757" lon="-4.35145">
        <ele>22.7</ele>
        <time>2024-04-10T17:39:46.768Z</time>
      </trkpt>
      <trkpt lat="48.09795" lon="-4.35151">
        <ele>19.6</ele>
        <time>2024-04-10T17:39:50.480Z</time>
      </trkpt>
      <trkpt lat="48.09839" lon="-4.35178">
        <ele>15.6</ele>
        <time>2024-04-10T17:39:55.099Z</time>
      </trkpt>
      <trkpt lat="48.09852" lon="-4.35186">
        <ele>14.7</ele>
        <time>2024-04-10T17:39:56.486Z</time>
      </trkpt>
      <trkpt lat="48.09873" lon="-4.35189">
        <ele>13.1</ele>
        <time>2024-04-10T17:39:58.535Z</time>
      </trkpt>
      <trkpt lat="48.09916" lon="-4.35188">
        <ele>11.8</ele>
        <time>2024-04-10T17:40:03.901Z</time>
      </trkpt>
      <trkpt lat="48.09921" lon="-4.35189">
        <ele>11.6</ele>
        <time>2024-04-10T17:40:04.487Z</time>
      </trkpt>
      <trkpt lat="48.09925" lon="-4.35189">
        <ele>11.4</ele>
        <time>2024-04-10T17:40:04.919Z</time>
      </trkpt>
      <trkpt lat="48.09956" lon="-4.35201">
        <ele>10.6</ele>
        <time>2024-04-10T17:40:09.083Z</time>
      </trkpt>
      <trkpt lat="48.10023" lon="-4.35238">
        <ele>8.6</ele>
        <time>2024-04-10T17:40:18.149Z</time>
      </trkpt>
      <trkpt lat="48.10042" lon="-4.35248">
        <ele>7.9</ele>
        <time>2024-04-10T17:40:20.576Z</time>
      </trkpt>
      <trkpt lat="48.10058" lon="-4.35254">
        <ele>7.2</ele>
        <time>2024-04-10T17:40:22.455Z</time>
      </trkpt>
      <trkpt lat="48.10073" lon="-4.35258">
        <ele>6.9</ele>
        <time>2024-04-10T17:40:24.525Z</time>
        <extensions>
          <visugpx:TrkExtension xmlns:visugpx="https://www.visugpx.com/editgpx/">
            <visugpx:node>8</visugpx:node>
            </visugpx:TrkExtension>
        </extensions>
      </trkpt>
      <trkpt lat="48.10079" lon="-4.3526">
        <ele>6.9</ele>
        <time>2024-04-10T17:40:25.520Z</time>
      </trkpt>
      <trkpt lat="48.10099" lon="-4.35262">
        <ele>6.6</ele>
        <time>2024-04-10T17:40:28.353Z</time>
      </trkpt>
      <trkpt lat="48.10135" lon="-4.35263">
        <ele>6.5</ele>
        <time>2024-04-10T17:40:34.032Z</time>
      </trkpt>
      <trkpt lat="48.1016" lon="-4.35264">
        <ele>6.1</ele>
        <time>2024-04-10T17:40:37.536Z</time>
      </trkpt>
      <trkpt lat="48.10179" lon="-4.35281">
        <ele>6.2</ele>
        <time>2024-04-10T17:40:41.279Z</time>
      </trkpt>
      <trkpt lat="48.10189" lon="-4.35296">
        <ele>7.3</ele>
        <time>2024-04-10T17:40:47.063Z</time>
      </trkpt>
      <trkpt lat="48.10193" lon="-4.35303">
        <ele>7.8</ele>
        <time>2024-04-10T17:40:49.702Z</time>
      </trkpt>
      <trkpt lat="48.10204" lon="-4.35319">
        <ele>8.5</ele>
        <time>2024-04-10T17:40:53.801Z</time>
      </trkpt>
      <trkpt lat="48.10223" lon="-4.35346">
        <ele>9.4</ele>
        <time>2024-04-10T17:40:59.909Z</time>
      </trkpt>
      <trkpt lat="48.10232" lon="-4.35364">
        <ele>10.9</ele>
        <time>2024-04-10T17:41:08.106Z</time>
      </trkpt>
      <trkpt lat="48.10235" lon="-4.35402">
        <ele>13.6</ele>
        <time>2024-04-10T17:41:23.002Z</time>
      </trkpt>
      <trkpt lat="48.10238" lon="-4.35432">
        <ele>14.8</ele>
        <time>2024-04-10T17:41:29.452Z</time>
      </trkpt>
      <trkpt lat="48.10237" lon="-4.35448">
        <ele>16.3</ele>
        <time>2024-04-10T17:41:36.898Z</time>
      </trkpt>
      <trkpt lat="48.10239" lon="-4.35451">
        <ele>16.3</ele>
        <time>2024-04-10T17:41:37.356Z</time>
      </trkpt>
      <trkpt lat="48.10238" lon="-4.35457">
        <ele>17.3</ele>
        <time>2024-04-10T17:41:40.221Z</time>
      </trkpt>
      <trkpt lat="48.10257" lon="-4.35495">
        <ele>19.9</ele>
        <time>2024-04-10T17:41:53.956Z</time>
      </trkpt>
      <trkpt lat="48.10269" lon="-4.35514">
        <ele>21.1</ele>
        <time>2024-04-10T17:42:00.269Z</time>
      </trkpt>
      <trkpt lat="48.10319" lon="-4.35554">
        <ele>20.9</ele>
        <time>2024-04-10T17:42:09.147Z</time>
      </trkpt>
      <trkpt lat="48.10386" lon="-4.35603">
        <ele>18.9</ele>
        <time>2024-04-10T17:42:18.702Z</time>
      </trkpt>
      <trkpt lat="48.10401" lon="-4.35621">
        <ele>19</ele>
        <time>2024-04-10T17:42:21.975Z</time>
      </trkpt>
      <trkpt lat="48.10481" lon="-4.35747">
        <ele>21.2</ele>
        <time>2024-04-10T17:42:44.739Z</time>
      </trkpt>
      <trkpt lat="48.10487" lon="-4.35766">
        <ele>20.2</ele>
        <time>2024-04-10T17:42:46.102Z</time>
      </trkpt>
      <trkpt lat="48.10487" lon="-4.35776">
        <ele>20.2</ele>
        <time>2024-04-10T17:42:47.183Z</time>
      </trkpt>
      <trkpt lat="48.10484" lon="-4.35797">
        <ele>19.7</ele>
        <time>2024-04-10T17:42:48.910Z</time>
      </trkpt>
      <trkpt lat="48.10483" lon="-4.35816">
        <ele>19.5</ele>
        <time>2024-04-10T17:42:50.698Z</time>
      </trkpt>
      <trkpt lat="48.10486" lon="-4.35833">
        <ele>19.5</ele>
        <time>2024-04-10T17:42:52.599Z</time>
      </trkpt>
      <trkpt lat="48.1049" lon="-4.35849">
        <ele>20.6</ele>
        <time>2024-04-10T17:42:58.569Z</time>
      </trkpt>
      <trkpt lat="48.10515" lon="-4.35902">
        <ele>24.9</ele>
        <time>2024-04-10T17:43:22.039Z</time>
      </trkpt>
      <trkpt lat="48.10552" lon="-4.35984">
        <ele>29.4</ele>
        <time>2024-04-10T17:43:45.730Z</time>
      </trkpt>
      <trkpt lat="48.10579" lon="-4.36043">
        <ele>33.1</ele>
        <time>2024-04-10T17:44:05.182Z</time>
      </trkpt>
      <trkpt lat="48.1059" lon="-4.36074">
        <ele>32.7</ele>
        <time>2024-04-10T17:44:08.437Z</time>
      </trkpt>
      <trkpt lat="48.10595" lon="-4.36099">
        <ele>32.1</ele>
        <time>2024-04-10T17:44:10.543Z</time>
      </trkpt>
      <trkpt lat="48.10597" lon="-4.36114">
        <ele>31.7</ele>
        <time>2024-04-10T17:44:11.734Z</time>
        <extensions>
          <visugpx:TrkExtension xmlns:visugpx="https://www.visugpx.com/editgpx/">
            <visugpx:node>9</visugpx:node>
            </visugpx:TrkExtension>
        </extensions>
      </trkpt>
      <trkpt lat="48.10597" lon="-4.36116">
        <ele>31.8</ele>
        <time>2024-04-10T17:44:12.259Z</time>
      </trkpt>
      <trkpt lat="48.10596" lon="-4.36139">
        <ele>33</ele>
        <time>2024-04-10T17:44:18.570Z</time>
      </trkpt>
      <trkpt lat="48.10592" lon="-4.36155">
        <ele>33.6</ele>
        <time>2024-04-10T17:44:21.901Z</time>
      </trkpt>
      <trkpt lat="48.10567" lon="-4.3624">
        <ele>36.2</ele>
        <time>2024-04-10T17:44:37.735Z</time>
      </trkpt>
      <trkpt lat="48.10548" lon="-4.36297">
        <ele>40.9</ele>
        <time>2024-04-10T17:45:03.783Z</time>
      </trkpt>
      <trkpt lat="48.10542" lon="-4.36319">
        <ele>43.1</ele>
        <time>2024-04-10T17:45:14.793Z</time>
      </trkpt>
      <trkpt lat="48.1054" lon="-4.36332">
        <ele>43.6</ele>
        <time>2024-04-10T17:45:17.516Z</time>
      </trkpt>
      <trkpt lat="48.10539" lon="-4.36365">
        <ele>44.1</ele>
        <time>2024-04-10T17:45:22.019Z</time>
      </trkpt>
      <trkpt lat="48.1054" lon="-4.36384">
        <ele>43.4</ele>
        <time>2024-04-10T17:45:23.349Z</time>
      </trkpt>
      <trkpt lat="48.10547" lon="-4.36426">
        <ele>43.1</ele>
        <time>2024-04-10T17:45:27.603Z</time>
      </trkpt>
      <trkpt lat="48.10552" lon="-4.36444">
        <ele>44</ele>
        <time>2024-04-10T17:45:32.336Z</time>
      </trkpt>
      <trkpt lat="48.10601" lon="-4.36595">
        <ele>51.1</ele>
        <time>2024-04-10T17:46:10.029Z</time>
      </trkpt>
      <trkpt lat="48.1061" lon="-4.36621">
        <ele>52.3</ele>
        <time>2024-04-10T17:46:16.434Z</time>
      </trkpt>
      <trkpt lat="48.10652" lon="-4.36756">
        <ele>56.6</ele>
        <time>2024-04-10T17:46:42.237Z</time>
      </trkpt>
      <trkpt lat="48.10656" lon="-4.3677">
        <ele>56.8</ele>
        <time>2024-04-10T17:46:44.246Z</time>
      </trkpt>
      <trkpt lat="48.10657" lon="-4.36778">
        <ele>57</ele>
        <time>2024-04-10T17:46:45.550Z</time>
      </trkpt>
      <trkpt lat="48.10666" lon="-4.36809">
        <ele>57</ele>
        <time>2024-04-10T17:46:49.204Z</time>
      </trkpt>
      <trkpt lat="48.10669" lon="-4.36852">
        <ele>57</ele>
        <time>2024-04-10T17:46:53.878Z</time>
      </trkpt>
      <trkpt lat="48.10666" lon="-4.369">
        <ele>57.4</ele>
        <time>2024-04-10T17:46:59.772Z</time>
      </trkpt>
      <trkpt lat="48.10653" lon="-4.37027">
        <ele>58</ele>
        <time>2024-04-10T17:47:14.638Z</time>
      </trkpt>
      <trkpt lat="48.10645" lon="-4.37068">
        <ele>58</ele>
        <time>2024-04-10T17:47:19.256Z</time>
      </trkpt>
      <trkpt lat="48.10633" lon="-4.37106">
        <ele>57.8</ele>
        <time>2024-04-10T17:47:23.509Z</time>
      </trkpt>
      <trkpt lat="48.10614" lon="-4.3717">
        <ele>57</ele>
        <time>2024-04-10T17:47:30.001Z</time>
      </trkpt>
      <trkpt lat="48.10589" lon="-4.37247">
        <ele>57</ele>
        <time>2024-04-10T17:47:39.256Z</time>
      </trkpt>
      <trkpt lat="48.10571" lon="-4.37288">
        <ele>57.3</ele>
        <time>2024-04-10T17:47:45.058Z</time>
      </trkpt>
      <trkpt lat="48.10561" lon="-4.37307">
        <ele>56.9</ele>
        <time>2024-04-10T17:47:47.163Z</time>
      </trkpt>
      <trkpt lat="48.10536" lon="-4.37332">
        <ele>56.1</ele>
        <time>2024-04-10T17:47:51.022Z</time>
      </trkpt>
      <trkpt lat="48.1051" lon="-4.37353">
        <ele>55.5</ele>
        <time>2024-04-10T17:47:55.013Z</time>
      </trkpt>
      <trkpt lat="48.10479" lon="-4.37373">
        <ele>53.1</ele>
        <time>2024-04-10T17:47:58.292Z</time>
      </trkpt>
      <trkpt lat="48.10465" lon="-4.37378">
        <ele>52.4</ele>
        <time>2024-04-10T17:47:59.862Z</time>
      </trkpt>
      <trkpt lat="48.10453" lon="-4.37376">
        <ele>52.5</ele>
        <time>2024-04-10T17:48:01.981Z</time>
      </trkpt>
      <trkpt lat="48.10448" lon="-4.37371">
        <ele>52.4</ele>
        <time>2024-04-10T17:48:02.819Z</time>
      </trkpt>
      <trkpt lat="48.10444" lon="-4.37365">
        <ele>52.2</ele>
        <time>2024-04-10T17:48:03.498Z</time>
      </trkpt>
      <trkpt lat="48.10429" lon="-4.37327">
        <ele>53</ele>
        <time>2024-04-10T17:48:09.823Z</time>
      </trkpt>
      <trkpt lat="48.10414" lon="-4.37316">
        <ele>53</ele>
        <time>2024-04-10T17:48:12.527Z</time>
      </trkpt>
      <trkpt lat="48.10358" lon="-4.37346">
        <ele>54.6</ele>
        <time>2024-04-10T17:48:25.254Z</time>
      </trkpt>
      <trkpt lat="48.10308" lon="-4.37356">
        <ele>56.7</ele>
        <time>2024-04-10T17:48:38.086Z</time>
      </trkpt>
      <trkpt lat="48.10227" lon="-4.3736">
        <ele>60.8</ele>
        <time>2024-04-10T17:49:01.146Z</time>
      </trkpt>
      <trkpt lat="48.09927" lon="-4.3735">
        <ele>62.3</ele>
        <time>2024-04-10T17:49:52.129Z</time>
      </trkpt>
      <trkpt lat="48.09912" lon="-4.37353">
        <ele>62.4</ele>
        <time>2024-04-10T17:49:54.741Z</time>
      </trkpt>
      <trkpt lat="48.09911" lon="-4.37358">
        <ele>62.3</ele>
        <time>2024-04-10T17:49:55.181Z</time>
        <extensions>
          <visugpx:TrkExtension xmlns:visugpx="https://www.visugpx.com/editgpx/">
            <visugpx:node>10</visugpx:node>
            </visugpx:TrkExtension>
        </extensions>
      </trkpt>
      <trkpt lat="48.09912" lon="-4.37353">
        <ele>62.4</ele>
        <time>2024-04-10T17:49:55.942Z</time>
      </trkpt>
      <trkpt lat="48.09902" lon="-4.37358">
        <ele>62.6</ele>
        <time>2024-04-10T17:49:58.010Z</time>
      </trkpt>
      <trkpt lat="48.09886" lon="-4.3737">
        <ele>63.2</ele>
        <time>2024-04-10T17:50:02.142Z</time>
      </trkpt>
      <trkpt lat="48.09849" lon="-4.37402">
        <ele>65.1</ele>
        <time>2024-04-10T17:50:13.398Z</time>
      </trkpt>
      <trkpt lat="48.09837" lon="-4.37408">
        <ele>66</ele>
        <time>2024-04-10T17:50:18.125Z</time>
      </trkpt>
      <trkpt lat="48.09831" lon="-4.37409">
        <ele>66.4</ele>
        <time>2024-04-10T17:50:20.236Z</time>
      </trkpt>
      <trkpt lat="48.09824" lon="-4.37405">
        <ele>67.1</ele>
        <time>2024-04-10T17:50:24.011Z</time>
      </trkpt>
      <trkpt lat="48.09818" lon="-4.37398">
        <ele>67.8</ele>
        <time>2024-04-10T17:50:27.776Z</time>
      </trkpt>
      <trkpt lat="48.09796" lon="-4.37349">
        <ele>70.4</ele>
        <time>2024-04-10T17:50:41.506Z</time>
      </trkpt>
      <trkpt lat="48.09781" lon="-4.37337">
        <ele>70.9</ele>
        <time>2024-04-10T17:50:45.250Z</time>
      </trkpt>
      <trkpt lat="48.09757" lon="-4.37327">
        <ele>70.7</ele>
        <time>2024-04-10T17:50:48.994Z</time>
      </trkpt>
      <trkpt lat="48.09728" lon="-4.37323">
        <ele>70.2</ele>
        <time>2024-04-10T17:50:53.034Z</time>
      </trkpt>
      <trkpt lat="48.09709" lon="-4.37323">
        <ele>69.5</ele>
        <time>2024-04-10T17:50:55.288Z</time>
      </trkpt>
      <trkpt lat="48.09688" lon="-4.37325">
        <ele>68.8</ele>
        <time>2024-04-10T17:50:57.853Z</time>
      </trkpt>
      <trkpt lat="48.09681" lon="-4.37393">
        <ele>68</ele>
        <time>2024-04-10T17:51:04.215Z</time>
      </trkpt>
      <trkpt lat="48.09675" lon="-4.37488">
        <ele>68</ele>
        <time>2024-04-10T17:51:14.532Z</time>
      </trkpt>
      <trkpt lat="48.09675" lon="-4.37541">
        <ele>67.3</ele>
        <time>2024-04-10T17:51:19.336Z</time>
      </trkpt>
      <trkpt lat="48.09675" lon="-4.37544">
        <ele>67.3</ele>
        <time>2024-04-10T17:51:19.661Z</time>
      </trkpt>
      <trkpt lat="48.09684" lon="-4.37667">
        <ele>66.6</ele>
        <time>2024-04-10T17:51:32.031Z</time>
      </trkpt>
      <trkpt lat="48.09691" lon="-4.3775">
        <ele>67</ele>
        <time>2024-04-10T17:51:41.729Z</time>
      </trkpt>
      <trkpt lat="48.09699" lon="-4.37815">
        <ele>67.7</ele>
        <time>2024-04-10T17:51:50.104Z</time>
      </trkpt>
      <trkpt lat="48.09706" lon="-4.37846">
        <ele>67.7</ele>
        <time>2024-04-10T17:51:53.643Z</time>
      </trkpt>
      <trkpt lat="48.09715" lon="-4.37881">
        <ele>68.5</ele>
        <time>2024-04-10T17:51:59.320Z</time>
      </trkpt>
      <trkpt lat="48.09732" lon="-4.37924">
        <ele>68.4</ele>
        <time>2024-04-10T17:52:04.572Z</time>
      </trkpt>
      <trkpt lat="48.09748" lon="-4.37954">
        <ele>69</ele>
        <time>2024-04-10T17:52:09.849Z</time>
      </trkpt>
      <trkpt lat="48.09793" lon="-4.38017">
        <ele>70.8</ele>
        <time>2024-04-10T17:52:23.382Z</time>
      </trkpt>
      <trkpt lat="48.09821" lon="-4.38055">
        <ele>72.5</ele>
        <time>2024-04-10T17:52:33.402Z</time>
      </trkpt>
      <trkpt lat="48.09844" lon="-4.38089">
        <ele>73.6</ele>
        <time>2024-04-10T17:52:40.908Z</time>
      </trkpt>
      <trkpt lat="48.09881" lon="-4.38158">
        <ele>77.1</ele>
        <time>2024-04-10T17:52:59.721Z</time>
      </trkpt>
      <trkpt lat="48.09899" lon="-4.38205">
        <ele>78.7</ele>
        <time>2024-04-10T17:53:09.224Z</time>
      </trkpt>
      <trkpt lat="48.0991" lon="-4.38244">
        <ele>79.9</ele>
        <time>2024-04-10T17:53:16.488Z</time>
      </trkpt>
      <trkpt lat="48.09918" lon="-4.38291">
        <ele>80</ele>
        <time>2024-04-10T17:53:21.890Z</time>
      </trkpt>
      <trkpt lat="48.09924" lon="-4.38353">
        <ele>79</ele>
        <time>2024-04-10T17:53:27.379Z</time>
      </trkpt>
      <trkpt lat="48.09923" lon="-4.38466">
        <ele>77.2</ele>
        <time>2024-04-10T17:53:37.285Z</time>
      </trkpt>
      <trkpt lat="48.09916" lon="-4.38614">
        <ele>72.9</ele>
        <time>2024-04-10T17:53:48.495Z</time>
      </trkpt>
      <trkpt lat="48.09913" lon="-4.38724">
        <ele>68.8</ele>
        <time>2024-04-10T17:53:56.143Z</time>
      </trkpt>
      <trkpt lat="48.09905" lon="-4.38985">
        <ele>68.9</ele>
        <time>2024-04-10T17:54:24.546Z</time>
      </trkpt>
      <trkpt lat="48.09905" lon="-4.39008">
        <ele>69.4</ele>
        <time>2024-04-10T17:54:28.052Z</time>
      </trkpt>
      <trkpt lat="48.099" lon="-4.39055">
        <ele>69.6</ele>
        <time>2024-04-10T17:54:33.522Z</time>
      </trkpt>
      <trkpt lat="48.09827" lon="-4.39559">
        <ele>70</ele>
        <time>2024-04-10T17:55:29.901Z</time>
      </trkpt>
      <trkpt lat="48.09775" lon="-4.39923">
        <ele>72.2</ele>
        <time>2024-04-10T17:56:13.786Z</time>
      </trkpt>
      <trkpt lat="48.09755" lon="-4.40065">
        <ele>73</ele>
        <time>2024-04-10T17:56:30.794Z</time>
      </trkpt>
      <trkpt lat="48.09686" lon="-4.40524">
        <ele>79.3</ele>
        <time>2024-04-10T17:57:33.139Z</time>
      </trkpt>
      <trkpt lat="48.09668" lon="-4.40643">
        <ele>79</ele>
        <time>2024-04-10T17:57:45.883Z</time>
      </trkpt>
      <trkpt lat="48.09661" lon="-4.40667">
        <ele>79</ele>
        <time>2024-04-10T17:57:48.714Z</time>
      </trkpt>
      <trkpt lat="48.0965" lon="-4.4072">
        <ele>78.6</ele>
        <time>2024-04-10T17:57:54.149Z</time>
      </trkpt>
      <trkpt lat="48.0964" lon="-4.40752">
        <ele>77.9</ele>
        <time>2024-04-10T17:57:57.106Z</time>
      </trkpt>
      <trkpt lat="48.09636" lon="-4.40764">
        <ele>77.5</ele>
        <time>2024-04-10T17:57:58.110Z</time>
      </trkpt>
      <trkpt lat="48.09621" lon="-4.40817">
        <ele>75.6</ele>
        <time>2024-04-10T17:58:02.281Z</time>
      </trkpt>
      <trkpt lat="48.09594" lon="-4.40905">
        <ele>73.6</ele>
        <time>2024-04-10T17:58:10.308Z</time>
      </trkpt>
      <trkpt lat="48.09576" lon="-4.40977">
        <ele>71.8</ele>
        <time>2024-04-10T17:58:16.482Z</time>
      </trkpt>
      <trkpt lat="48.09558" lon="-4.41029">
        <ele>70.9</ele>
        <time>2024-04-10T17:58:21.651Z</time>
      </trkpt>
      <trkpt lat="48.0954" lon="-4.41074">
        <ele>69.1</ele>
        <time>2024-04-10T17:58:25.402Z</time>
      </trkpt>
      <trkpt lat="48.09521" lon="-4.41112">
        <ele>68</ele>
        <time>2024-04-10T17:58:29.225Z</time>
      </trkpt>
      <trkpt lat="48.09461" lon="-4.41198">
        <ele>65.6</ele>
        <time>2024-04-10T17:58:39.697Z</time>
      </trkpt>
      <trkpt lat="48.09392" lon="-4.41295">
        <ele>64.8</ele>
        <time>2024-04-10T17:58:53.867Z</time>
      </trkpt>
      <trkpt lat="48.09384" lon="-4.41307">
        <ele>65.2</ele>
        <time>2024-04-10T17:58:56.537Z</time>
        <extensions>
          <visugpx:TrkExtension xmlns:visugpx="https://www.visugpx.com/editgpx/">
            <visugpx:node>11</visugpx:node>
            </visugpx:TrkExtension>
        </extensions>
      </trkpt>
      <trkpt lat="48.09326" lon="-4.41393">
        <ele>65.9</ele>
        <time>2024-04-10T17:59:10.908Z</time>
      </trkpt>
      <trkpt lat="48.09241" lon="-4.41527">
        <ele>65</ele>
        <time>2024-04-10T17:59:29.582Z</time>
      </trkpt>
      <trkpt lat="48.09155" lon="-4.4166">
        <ele>66</ele>
        <time>2024-04-10T17:59:51.243Z</time>
      </trkpt>
      <trkpt lat="48.09142" lon="-4.41671">
        <ele>65.8</ele>
        <time>2024-04-10T17:59:53.382Z</time>
      </trkpt>
      <trkpt lat="48.09133" lon="-4.41674">
        <ele>65.8</ele>
        <time>2024-04-10T17:59:54.875Z</time>
      </trkpt>
      <trkpt lat="48.09128" lon="-4.41697">
        <ele>65.4</ele>
        <time>2024-04-10T17:59:56.980Z</time>
      </trkpt>
      <trkpt lat="48.09094" lon="-4.41763">
        <ele>65.9</ele>
        <time>2024-04-10T18:00:06.821Z</time>
      </trkpt>
      <trkpt lat="48.09059" lon="-4.4184">
        <ele>67.8</ele>
        <time>2024-04-10T18:00:20.696Z</time>
      </trkpt>
      <trkpt lat="48.09048" lon="-4.41875">
        <ele>67.8</ele>
        <time>2024-04-10T18:00:24.879Z</time>
      </trkpt>
      <trkpt lat="48.08978" lon="-4.42307">
        <ele>67.8</ele>
        <time>2024-04-10T18:01:12.948Z</time>
      </trkpt>
      <trkpt lat="48.09047" lon="-4.42344">
        <ele>65.3</ele>
        <time>2024-04-10T18:01:21.824Z</time>
      </trkpt>
      <trkpt lat="48.09057" lon="-4.42352">
        <ele>65</ele>
        <time>2024-04-10T18:01:23.281Z</time>
      </trkpt>
      <trkpt lat="48.09068" lon="-4.42366">
        <ele>64.6</ele>
        <time>2024-04-10T18:01:25.118Z</time>
      </trkpt>
      <trkpt lat="48.09091" lon="-4.42381">
        <ele>63.5</ele>
        <time>2024-04-10T18:01:27.948Z</time>
      </trkpt>
      <trkpt lat="48.09126" lon="-4.42406">
        <ele>62.3</ele>
        <time>2024-04-10T18:01:32.759Z</time>
      </trkpt>
      <trkpt lat="48.09132" lon="-4.42427">
        <ele>62.2</ele>
        <time>2024-04-10T18:01:35.083Z</time>
      </trkpt>
      <trkpt lat="48.09135" lon="-4.42452">
        <ele>62.4</ele>
        <time>2024-04-10T18:01:38.169Z</time>
      </trkpt>
      <trkpt lat="48.09134" lon="-4.42474">
        <ele>63</ele>
        <time>2024-04-10T18:01:41.875Z</time>
      </trkpt>
      <trkpt lat="48.09109" lon="-4.42672">
        <ele>62.9</ele>
        <time>2024-04-10T18:02:03.511Z</time>
      </trkpt>
      <trkpt lat="48.09095" lon="-4.42766">
        <ele>62</ele>
        <time>2024-04-10T18:02:12.682Z</time>
      </trkpt>
      <trkpt lat="48.0909" lon="-4.42787">
        <ele>62</ele>
        <time>2024-04-10T18:02:15.093Z</time>
      </trkpt>
      <trkpt lat="48.09079" lon="-4.42819">
        <ele>61.9</ele>
        <time>2024-04-10T18:02:18.836Z</time>
      </trkpt>
      <trkpt lat="48.09031" lon="-4.42937">
        <ele>63</ele>
        <time>2024-04-10T18:02:35.643Z</time>
      </trkpt>
      <trkpt lat="48.08991" lon="-4.43065">
        <ele>63.3</ele>
        <time>2024-04-10T18:02:51.398Z</time>
      </trkpt>
      <trkpt lat="48.08967" lon="-4.4315">
        <ele>58.2</ele>
        <time>2024-04-10T18:02:57.385Z</time>
      </trkpt>
      <trkpt lat="48.08957" lon="-4.4323">
        <ele>54.5</ele>
        <time>2024-04-10T18:03:02.666Z</time>
      </trkpt>
      <trkpt lat="48.08952" lon="-4.43286">
        <ele>52</ele>
        <time>2024-04-10T18:03:06.342Z</time>
      </trkpt>
      <trkpt lat="48.08943" lon="-4.43433">
        <ele>51</ele>
        <time>2024-04-10T18:03:20.883Z</time>
      </trkpt>
      <trkpt lat="48.08925" lon="-4.43631">
        <ele>53.9</ele>
        <time>2024-04-10T18:03:47.853Z</time>
      </trkpt>
      <trkpt lat="48.0892" lon="-4.43661">
        <ele>54</ele>
        <time>2024-04-10T18:03:51.356Z</time>
      </trkpt>
      <trkpt lat="48.08887" lon="-4.43804">
        <ele>54.1</ele>
        <time>2024-04-10T18:04:07.872Z</time>
      </trkpt>
      <trkpt lat="48.0888" lon="-4.43872">
        <ele>55.1</ele>
        <time>2024-04-10T18:04:17.161Z</time>
      </trkpt>
      <trkpt lat="48.08871" lon="-4.43999">
        <ele>56</ele>
        <time>2024-04-10T18:04:32.482Z</time>
      </trkpt>
      <trkpt lat="48.08858" lon="-4.44217">
        <ele>60.9</ele>
        <time>2024-04-10T18:05:06.234Z</time>
      </trkpt>
      <trkpt lat="48.08843" lon="-4.44376">
        <ele>64</ele>
        <time>2024-04-10T18:05:29.711Z</time>
      </trkpt>
      <trkpt lat="48.0884" lon="-4.44413">
        <ele>64.7</ele>
        <time>2024-04-10T18:05:35.113Z</time>
      </trkpt>
      <trkpt lat="48.08822" lon="-4.44609">
        <ele>66.4</ele>
        <time>2024-04-10T18:05:59.417Z</time>
      </trkpt>
      <trkpt lat="48.08806" lon="-4.44807">
        <ele>67.9</ele>
        <time>2024-04-10T18:06:23.518Z</time>
      </trkpt>
      <trkpt lat="48.08799" lon="-4.44883">
        <ele>67</ele>
        <time>2024-04-10T18:06:30.604Z</time>
      </trkpt>
      <trkpt lat="48.0879" lon="-4.45004">
        <ele>66</ele>
        <time>2024-04-10T18:06:42.371Z</time>
      </trkpt>
      <trkpt lat="48.0879" lon="-4.45058">
        <ele>66</ele>
        <time>2024-04-10T18:06:48.210Z</time>
      </trkpt>
      <trkpt lat="48.08796" lon="-4.45188">
        <ele>66.4</ele>
        <time>2024-04-10T18:07:02.941Z</time>
      </trkpt>
      <trkpt lat="48.08802" lon="-4.45314">
        <ele>64</ele>
        <time>2024-04-10T18:07:13.616Z</time>
      </trkpt>
      <trkpt lat="48.08806" lon="-4.45386">
        <ele>63</ele>
        <time>2024-04-10T18:07:20.115Z</time>
      </trkpt>
      <trkpt lat="48.0881" lon="-4.45497">
        <ele>63</ele>
        <time>2024-04-10T18:07:32.136Z</time>
      </trkpt>
      <trkpt lat="48.088" lon="-4.45559">
        <ele>63</ele>
        <time>2024-04-10T18:07:39.033Z</time>
      </trkpt>
      <trkpt lat="48.08769" lon="-4.45718">
        <ele>61.8</ele>
        <time>2024-04-10T18:07:55.248Z</time>
      </trkpt>
      <trkpt lat="48.08717" lon="-4.45972">
        <ele>54</ele>
        <time>2024-04-10T18:08:15.246Z</time>
      </trkpt>
      <trkpt lat="48.08707" lon="-4.46021">
        <ele>51.5</ele>
        <time>2024-04-10T18:08:18.571Z</time>
      </trkpt>
      <trkpt lat="48.08705" lon="-4.46033">
        <ele>51.4</ele>
        <time>2024-04-10T18:08:19.768Z</time>
      </trkpt>
      <trkpt lat="48.08694" lon="-4.46088">
        <ele>54.3</ele>
        <time>2024-04-10T18:08:34.998Z</time>
      </trkpt>
      <trkpt lat="48.08675" lon="-4.46174">
        <ele>56.5</ele>
        <time>2024-04-10T18:08:49.443Z</time>
        <extensions>
          <visugpx:TrkExtension xmlns:visugpx="https://www.visugpx.com/editgpx/">
            <visugpx:node>12</visugpx:node>
            </visugpx:TrkExtension>
        </extensions>
      </trkpt>
      <trkpt lat="48.08661" lon="-4.46243">
        <ele>58.5</ele>
        <time>2024-04-10T18:09:01.681Z</time>
      </trkpt>
      <trkpt lat="48.08649" lon="-4.46287">
        <ele>59.3</ele>
        <time>2024-04-10T18:09:08.346Z</time>
      </trkpt>
      <trkpt lat="48.0864" lon="-4.46317">
        <ele>60.4</ele>
        <time>2024-04-10T18:09:14.556Z</time>
      </trkpt>
      <trkpt lat="48.08616" lon="-4.46383">
        <ele>63</ele>
        <time>2024-04-10T18:09:29.061Z</time>
      </trkpt>
      <trkpt lat="48.08551" lon="-4.46529">
        <ele>65.2</ele>
        <time>2024-04-10T18:09:51.998Z</time>
      </trkpt>
      <trkpt lat="48.08456" lon="-4.46732">
        <ele>66</ele>
        <time>2024-04-10T18:10:20.083Z</time>
      </trkpt>
      <trkpt lat="48.08442" lon="-4.46774">
        <ele>66.9</ele>
        <time>2024-04-10T18:10:26.931Z</time>
      </trkpt>
      <trkpt lat="48.08374" lon="-4.47045">
        <ele>67</ele>
        <time>2024-04-10T18:10:58.392Z</time>
      </trkpt>
      <trkpt lat="48.08348" lon="-4.4716">
        <ele>67.5</ele>
        <time>2024-04-10T18:11:12.331Z</time>
      </trkpt>
      <trkpt lat="48.08338" lon="-4.47204">
        <ele>67.8</ele>
        <time>2024-04-10T18:11:17.858Z</time>
      </trkpt>
      <trkpt lat="48.0832" lon="-4.47328">
        <ele>66.6</ele>
        <time>2024-04-10T18:11:29.926Z</time>
      </trkpt>
      <trkpt lat="48.08312" lon="-4.47403">
        <ele>65.3</ele>
        <time>2024-04-10T18:11:36.491Z</time>
      </trkpt>
      <trkpt lat="48.08307" lon="-4.4748">
        <ele>62.7</ele>
        <time>2024-04-10T18:11:42.065Z</time>
      </trkpt>
      <trkpt lat="48.08292" lon="-4.47676">
        <ele>56.8</ele>
        <time>2024-04-10T18:11:56.832Z</time>
      </trkpt>
      <trkpt lat="48.08291" lon="-4.477">
        <ele>56.3</ele>
        <time>2024-04-10T18:11:58.822Z</time>
      </trkpt>
      <trkpt lat="48.08276" lon="-4.47701">
        <ele>56.8</ele>
        <time>2024-04-10T18:12:02.280Z</time>
      </trkpt>
      <trkpt lat="48.08214" lon="-4.47694">
        <ele>58.3</ele>
        <time>2024-04-10T18:12:15.178Z</time>
      </trkpt>
      <trkpt lat="48.08178" lon="-4.47678">
        <ele>59.9</ele>
        <time>2024-04-10T18:12:24.847Z</time>
      </trkpt>
      <trkpt lat="48.08137" lon="-4.47687">
        <ele>58.6</ele>
        <time>2024-04-10T18:12:29.971Z</time>
      </trkpt>
      <trkpt lat="48.08097" lon="-4.47713">
        <ele>58.5</ele>
        <time>2024-04-10T18:12:36.880Z</time>
      </trkpt>
      <trkpt lat="48.08046" lon="-4.4774">
        <ele>58.3</ele>
        <time>2024-04-10T18:12:45.338Z</time>
      </trkpt>
      <trkpt lat="48.08018" lon="-4.47763">
        <ele>56.6</ele>
        <time>2024-04-10T18:12:48.716Z</time>
      </trkpt>
      <trkpt lat="48.07982" lon="-4.47796">
        <ele>57.7</ele>
        <time>2024-04-10T18:12:57.664Z</time>
      </trkpt>
      <trkpt lat="48.08003" lon="-4.47997">
        <ele>61.6</ele>
        <time>2024-04-10T18:13:27.344Z</time>
      </trkpt>
      <trkpt lat="48.08028" lon="-4.48197">
        <ele>61</ele>
        <time>2024-04-10T18:13:48.459Z</time>
      </trkpt>
      <trkpt lat="48.08031" lon="-4.4834">
        <ele>54.5</ele>
        <time>2024-04-10T18:13:57.743Z</time>
      </trkpt>
      <trkpt lat="48.0803" lon="-4.48411">
        <ele>53.8</ele>
        <time>2024-04-10T18:14:04.462Z</time>
      </trkpt>
      <trkpt lat="48.08032" lon="-4.4848">
        <ele>54.1</ele>
        <time>2024-04-10T18:14:12.419Z</time>
      </trkpt>
      <trkpt lat="48.08032" lon="-4.48483">
        <ele>54.2</ele>
        <time>2024-04-10T18:14:12.984Z</time>
      </trkpt>
      <trkpt lat="48.08032" lon="-4.48634">
        <ele>53.7</ele>
        <time>2024-04-10T18:14:28.576Z</time>
      </trkpt>
      <trkpt lat="48.0803" lon="-4.48667">
        <ele>52.9</ele>
        <time>2024-04-10T18:14:31.216Z</time>
      </trkpt>
      <trkpt lat="48.08026" lon="-4.48702">
        <ele>51.5</ele>
        <time>2024-04-10T18:14:33.633Z</time>
      </trkpt>
      <trkpt lat="48.08016" lon="-4.48753">
        <ele>49.9</ele>
        <time>2024-04-10T18:14:37.603Z</time>
      </trkpt>
      <trkpt lat="48.08005" lon="-4.48793">
        <ele>49.6</ele>
        <time>2024-04-10T18:14:41.856Z</time>
      </trkpt>
      <trkpt lat="48.07975" lon="-4.48883">
        <ele>50.3</ele>
        <time>2024-04-10T18:14:53.908Z</time>
      </trkpt>
      <trkpt lat="48.0794" lon="-4.48991">
        <ele>59.2</ele>
        <time>2024-04-10T18:15:43.245Z</time>
      </trkpt>
      <trkpt lat="48.07928" lon="-4.4903">
        <ele>59.6</ele>
        <time>2024-04-10T18:15:48.580Z</time>
      </trkpt>
      <trkpt lat="48.07922" lon="-4.4904">
        <ele>59.8</ele>
        <time>2024-04-10T18:15:50.406Z</time>
      </trkpt>
      <trkpt lat="48.07913" lon="-4.49047">
        <ele>60</ele>
        <time>2024-04-10T18:15:52.411Z</time>
      </trkpt>
      <trkpt lat="48.07823" lon="-4.49102">
        <ele>62.8</ele>
        <time>2024-04-10T18:16:13.665Z</time>
      </trkpt>
      <trkpt lat="48.07718" lon="-4.4916">
        <ele>66.1</ele>
        <time>2024-04-10T18:16:38.327Z</time>
      </trkpt>
      <trkpt lat="48.07687" lon="-4.49183">
        <ele>68.4</ele>
        <time>2024-04-10T18:16:50.462Z</time>
      </trkpt>
      <trkpt lat="48.07662" lon="-4.49207">
        <ele>69.3</ele>
        <time>2024-04-10T18:16:57.068Z</time>
      </trkpt>
      <trkpt lat="48.07648" lon="-4.49226">
        <ele>69.6</ele>
        <time>2024-04-10T18:17:00.654Z</time>
      </trkpt>
      <trkpt lat="48.07634" lon="-4.49247">
        <ele>70.4</ele>
        <time>2024-04-10T18:17:05.619Z</time>
      </trkpt>
      <trkpt lat="48.07621" lon="-4.49269">
        <ele>71.3</ele>
        <time>2024-04-10T18:17:10.879Z</time>
      </trkpt>
      <trkpt lat="48.07602" lon="-4.4931">
        <ele>72.7</ele>
        <time>2024-04-10T18:17:19.398Z</time>
      </trkpt>
      <trkpt lat="48.07571" lon="-4.49399">
        <ele>76.3</ele>
        <time>2024-04-10T18:17:39.253Z</time>
      </trkpt>
      <trkpt lat="48.07523" lon="-4.49554">
        <ele>85.1</ele>
        <time>2024-04-10T18:18:25.506Z</time>
      </trkpt>
      <trkpt lat="48.0751" lon="-4.49596">
        <ele>86.9</ele>
        <time>2024-04-10T18:18:35.219Z</time>
      </trkpt>
      <trkpt lat="48.07501" lon="-4.49632">
        <ele>88</ele>
        <time>2024-04-10T18:18:41.850Z</time>
      </trkpt>
      <trkpt lat="48.07497" lon="-4.49651">
        <ele>88.5</ele>
        <time>2024-04-10T18:18:45.073Z</time>
      </trkpt>
      <trkpt lat="48.07493" lon="-4.49681">
        <ele>89</ele>
        <time>2024-04-10T18:18:49.329Z</time>
      </trkpt>
      <trkpt lat="48.07492" lon="-4.49701">
        <ele>89</ele>
        <time>2024-04-10T18:18:51.499Z</time>
      </trkpt>
      <trkpt lat="48.075" lon="-4.499">
        <ele>89.6</ele>
        <time>2024-04-10T18:19:14.021Z</time>
      </trkpt>
      <trkpt lat="48.07506" lon="-4.50049">
        <ele>87.1</ele>
        <time>2024-04-10T18:19:26.983Z</time>
      </trkpt>
      <trkpt lat="48.07512" lon="-4.50174">
        <ele>83.9</ele>
        <time>2024-04-10T18:19:36.817Z</time>
      </trkpt>
      <trkpt lat="48.07515" lon="-4.50254">
        <ele>82</ele>
        <time>2024-04-10T18:19:43.234Z</time>
      </trkpt>
      <trkpt lat="48.07514" lon="-4.50271">
        <ele>82</ele>
        <time>2024-04-10T18:19:45.080Z</time>
      </trkpt>
      <trkpt lat="48.07509" lon="-4.50306">
        <ele>81</ele>
        <time>2024-04-10T18:19:47.816Z</time>
      </trkpt>
      <trkpt lat="48.07491" lon="-4.50397">
        <ele>79</ele>
        <time>2024-04-10T18:19:55.648Z</time>
      </trkpt>
      <trkpt lat="48.07487" lon="-4.50437">
        <ele>78.7</ele>
        <time>2024-04-10T18:19:59.599Z</time>
      </trkpt>
      <trkpt lat="48.07494" lon="-4.50581">
        <ele>78.8</ele>
        <time>2024-04-10T18:20:15.371Z</time>
      </trkpt>
      <trkpt lat="48.07494" lon="-4.50594">
        <ele>78.8</ele>
        <time>2024-04-10T18:20:16.778Z</time>
      </trkpt>
      <trkpt lat="48.07489" lon="-4.50602">
        <ele>78.6</ele>
        <time>2024-04-10T18:20:17.712Z</time>
      </trkpt>
      <trkpt lat="48.07494" lon="-4.50617">
        <ele>79</ele>
        <time>2024-04-10T18:20:20.365Z</time>
      </trkpt>
      <trkpt lat="48.07497" lon="-4.50629">
        <ele>79.5</ele>
        <time>2024-04-10T18:20:23.061Z</time>
      </trkpt>
      <trkpt lat="48.07506" lon="-4.50689">
        <ele>81</ele>
        <time>2024-04-10T18:20:32.887Z</time>
      </trkpt>
      <trkpt lat="48.07523" lon="-4.50758">
        <ele>83.5</ele>
        <time>2024-04-10T18:20:46.920Z</time>
        <extensions>
          <visugpx:TrkExtension xmlns:visugpx="https://www.visugpx.com/editgpx/">
            <visugpx:node>13</visugpx:node>
            </visugpx:TrkExtension>
        </extensions>
      </trkpt>
      <trkpt lat="48.07552" lon="-4.50873">
        <ele>85.1</ele>
        <time>2024-04-10T18:21:03.116Z</time>
      </trkpt>
      <trkpt lat="48.07556" lon="-4.50896">
        <ele>85</ele>
        <time>2024-04-10T18:21:05.540Z</time>
      </trkpt>
      <trkpt lat="48.07558" lon="-4.50916">
        <ele>85</ele>
        <time>2024-04-10T18:21:07.727Z</time>
      </trkpt>
      <trkpt lat="48.07558" lon="-4.50943">
        <ele>85</ele>
        <time>2024-04-10T18:21:10.648Z</time>
      </trkpt>
      <trkpt lat="48.07557" lon="-4.50971">
        <ele>86</ele>
        <time>2024-04-10T18:21:16.173Z</time>
      </trkpt>
      <trkpt lat="48.07556" lon="-4.51053">
        <ele>88.9</ele>
        <time>2024-04-10T18:21:32.238Z</time>
      </trkpt>
      <trkpt lat="48.07555" lon="-4.5115">
        <ele>93</ele>
        <time>2024-04-10T18:21:54.009Z</time>
      </trkpt>
      <trkpt lat="48.07555" lon="-4.51181">
        <ele>93</ele>
        <time>2024-04-10T18:21:57.362Z</time>
      </trkpt>
      <trkpt lat="48.07556" lon="-4.51197">
        <ele>92.9</ele>
        <time>2024-04-10T18:21:58.957Z</time>
      </trkpt>
      <trkpt lat="48.07557" lon="-4.51285">
        <ele>89.7</ele>
        <time>2024-04-10T18:22:05.128Z</time>
      </trkpt>
      <trkpt lat="48.07556" lon="-4.51355">
        <ele>88.2</ele>
        <time>2024-04-10T18:22:10.883Z</time>
      </trkpt>
      <trkpt lat="48.07555" lon="-4.51365">
        <ele>87.9</ele>
        <time>2024-04-10T18:22:11.642Z</time>
      </trkpt>
      <trkpt lat="48.0754" lon="-4.51428">
        <ele>86.8</ele>
        <time>2024-04-10T18:22:17.470Z</time>
      </trkpt>
      <trkpt lat="48.07543" lon="-4.51455">
        <ele>86.1</ele>
        <time>2024-04-10T18:22:19.617Z</time>
      </trkpt>
      <trkpt lat="48.07544" lon="-4.51457">
        <ele>86.1</ele>
        <time>2024-04-10T18:22:19.887Z</time>
      </trkpt>
      <trkpt lat="48.07546" lon="-4.51463">
        <ele>85.8</ele>
        <time>2024-04-10T18:22:20.323Z</time>
      </trkpt>
      <trkpt lat="48.07544" lon="-4.51474">
        <ele>85.5</ele>
        <time>2024-04-10T18:22:21.210Z</time>
      </trkpt>
      <trkpt lat="48.07544" lon="-4.51476">
        <ele>85.5</ele>
        <time>2024-04-10T18:22:21.426Z</time>
      </trkpt>
      <trkpt lat="48.07542" lon="-4.5151">
        <ele>85.8</ele>
        <time>2024-04-10T18:22:25.633Z</time>
      </trkpt>
      <trkpt lat="48.07549" lon="-4.51563">
        <ele>83.6</ele>
        <time>2024-04-10T18:22:29.265Z</time>
      </trkpt>
      <trkpt lat="48.07565" lon="-4.51648">
        <ele>79.8</ele>
        <time>2024-04-10T18:22:35.077Z</time>
      </trkpt>
      <trkpt lat="48.07566" lon="-4.51653">
        <ele>79.7</ele>
        <time>2024-04-10T18:22:35.518Z</time>
      </trkpt>
      <trkpt lat="48.07572" lon="-4.51682">
        <ele>78.7</ele>
        <time>2024-04-10T18:22:37.720Z</time>
      </trkpt>
      <trkpt lat="48.07592" lon="-4.5178">
        <ele>78</ele>
        <time>2024-04-10T18:22:47.809Z</time>
      </trkpt>
      <trkpt lat="48.07596" lon="-4.51812">
        <ele>78.5</ele>
        <time>2024-04-10T18:22:52.265Z</time>
      </trkpt>
      <trkpt lat="48.07594" lon="-4.51868">
        <ele>78.4</ele>
        <time>2024-04-10T18:22:58.180Z</time>
      </trkpt>
      <trkpt lat="48.07583" lon="-4.51951">
        <ele>78.2</ele>
        <time>2024-04-10T18:23:07.034Z</time>
      </trkpt>
      <trkpt lat="48.07569" lon="-4.52039">
        <ele>79</ele>
        <time>2024-04-10T18:23:18.192Z</time>
      </trkpt>
      <trkpt lat="48.07547" lon="-4.52166">
        <ele>79</ele>
        <time>2024-04-10T18:23:32.383Z</time>
      </trkpt>
      <trkpt lat="48.07499" lon="-4.52383">
        <ele>80</ele>
        <time>2024-04-10T18:23:58.731Z</time>
      </trkpt>
      <trkpt lat="48.0747" lon="-4.52582">
        <ele>81</ele>
        <time>2024-04-10T18:24:22.397Z</time>
      </trkpt>
      <trkpt lat="48.07439" lon="-4.52818">
        <ele>83</ele>
        <time>2024-04-10T18:24:51.824Z</time>
      </trkpt>
      <trkpt lat="48.0743" lon="-4.52914">
        <ele>84</ele>
        <time>2024-04-10T18:25:04.060Z</time>
      </trkpt>
      <trkpt lat="48.0743" lon="-4.52924">
        <ele>84</ele>
        <time>2024-04-10T18:25:05.142Z</time>
      </trkpt>
      <trkpt lat="48.07426" lon="-4.52947">
        <ele>84</ele>
        <time>2024-04-10T18:25:07.713Z</time>
      </trkpt>
      <trkpt lat="48.07395" lon="-4.5308">
        <ele>82.2</ele>
        <time>2024-04-10T18:25:20.556Z</time>
      </trkpt>
      <trkpt lat="48.0736" lon="-4.53215">
        <ele>81</ele>
        <time>2024-04-10T18:25:34.542Z</time>
      </trkpt>
      <trkpt lat="48.07336" lon="-4.53302">
        <ele>80.1</ele>
        <time>2024-04-10T18:25:43.484Z</time>
      </trkpt>
      <trkpt lat="48.07307" lon="-4.53408">
        <ele>80</ele>
        <time>2024-04-10T18:25:55.721Z</time>
      </trkpt>
      <trkpt lat="48.07296" lon="-4.53453">
        <ele>79.7</ele>
        <time>2024-04-10T18:26:00.475Z</time>
      </trkpt>
      <trkpt lat="48.07279" lon="-4.53507">
        <ele>79</ele>
        <time>2024-04-10T18:26:05.991Z</time>
      </trkpt>
      <trkpt lat="48.0711" lon="-4.5393">
        <ele>78</ele>
        <time>2024-04-10T18:26:57.801Z</time>
      </trkpt>
      <trkpt lat="48.07077" lon="-4.54013">
        <ele>77.6</ele>
        <time>2024-04-10T18:27:07.662Z</time>
      </trkpt>
      <trkpt lat="48.07055" lon="-4.54076">
        <ele>78</ele>
        <time>2024-04-10T18:27:16.011Z</time>
      </trkpt>
      <trkpt lat="48.07028" lon="-4.54166">
        <ele>79</ele>
        <time>2024-04-10T18:27:28.429Z</time>
      </trkpt>
      <trkpt lat="48.06975" lon="-4.54356">
        <ele>81.8</ele>
        <time>2024-04-10T18:27:55.816Z</time>
      </trkpt>
      <trkpt lat="48.06904" lon="-4.54607">
        <ele>85.9</ele>
        <time>2024-04-10T18:28:32.934Z</time>
      </trkpt>
      <trkpt lat="48.06896" lon="-4.54631">
        <ele>86</ele>
        <time>2024-04-10T18:28:35.996Z</time>
      </trkpt>
      <trkpt lat="48.0689" lon="-4.54651">
        <ele>86</ele>
        <time>2024-04-10T18:28:38.368Z</time>
      </trkpt>
      <trkpt lat="48.06866" lon="-4.54702">
        <ele>86.8</ele>
        <time>2024-04-10T18:28:46.562Z</time>
      </trkpt>
      <trkpt lat="48.06843" lon="-4.54738">
        <ele>87</ele>
        <time>2024-04-10T18:28:52.274Z</time>
      </trkpt>
      <trkpt lat="48.06812" lon="-4.54779">
        <ele>88</ele>
        <time>2024-04-10T18:29:00.861Z</time>
      </trkpt>
      <trkpt lat="48.06735" lon="-4.54853">
        <ele>87.8</ele>
        <time>2024-04-10T18:29:15.373Z</time>
      </trkpt>
      <trkpt lat="48.06711" lon="-4.5488">
        <ele>87.6</ele>
        <time>2024-04-10T18:29:19.941Z</time>
      </trkpt>
      <trkpt lat="48.06694" lon="-4.54909">
        <ele>87</ele>
        <time>2024-04-10T18:29:23.341Z</time>
      </trkpt>
      <trkpt lat="48.06676" lon="-4.54949">
        <ele>87.4</ele>
        <time>2024-04-10T18:29:29.240Z</time>
      </trkpt>
      <trkpt lat="48.06666" lon="-4.54982">
        <ele>88</ele>
        <time>2024-04-10T18:29:34.300Z</time>
      </trkpt>
      <trkpt lat="48.06658" lon="-4.55027">
        <ele>87.4</ele>
        <time>2024-04-10T18:29:38.541Z</time>
      </trkpt>
      <trkpt lat="48.06656" lon="-4.55049">
        <ele>88</ele>
        <time>2024-04-10T18:29:42.261Z</time>
      </trkpt>
      <trkpt lat="48.06656" lon="-4.55091">
        <ele>89.2</ele>
        <time>2024-04-10T18:29:49.500Z</time>
      </trkpt>
      <trkpt lat="48.0666" lon="-4.55141">
        <ele>89.8</ele>
        <time>2024-04-10T18:29:56.019Z</time>
      </trkpt>
      <trkpt lat="48.06668" lon="-4.55233">
        <ele>91.4</ele>
        <time>2024-04-10T18:30:09.124Z</time>
      </trkpt>
      <trkpt lat="48.06686" lon="-4.55415">
        <ele>95</ele>
        <time>2024-04-10T18:30:36.152Z</time>
      </trkpt>
      <trkpt lat="48.06711" lon="-4.55673">
        <ele>95.7</ele>
        <time>2024-04-10T18:31:05.468Z</time>
      </trkpt>
      <trkpt lat="48.06719" lon="-4.55772">
        <ele>95.1</ele>
        <time>2024-04-10T18:31:15.396Z</time>
      </trkpt>
      <trkpt lat="48.0672" lon="-4.55836">
        <ele>95.1</ele>
        <time>2024-04-10T18:31:22.321Z</time>
      </trkpt>
      <trkpt lat="48.06692" lon="-4.55828">
        <ele>96.1</ele>
        <time>2024-04-10T18:31:29.024Z</time>
      </trkpt>
      <trkpt lat="48.06664" lon="-4.55813">
        <ele>97.1</ele>
        <time>2024-04-10T18:31:35.899Z</time>
      </trkpt>
      <trkpt lat="48.0665" lon="-4.55804">
        <ele>97.6</ele>
        <time>2024-04-10T18:31:39.388Z</time>
      </trkpt>
      <trkpt lat="48.06628" lon="-4.55787">
        <ele>98</ele>
        <time>2024-04-10T18:31:44.100Z</time>
      </trkpt>
      <trkpt lat="48.06609" lon="-4.55765">
        <ele>98</ele>
        <time>2024-04-10T18:31:47.989Z</time>
      </trkpt>
      <trkpt lat="48.06569" lon="-4.55701">
        <ele>98.6</ele>
        <time>2024-04-10T18:31:58.474Z</time>
        <extensions>
          <visugpx:TrkExtension xmlns:visugpx="https://www.visugpx.com/editgpx/">
            <visugpx:node>14</visugpx:node>
            </visugpx:TrkExtension>
        </extensions>
      </trkpt>
      <trkpt lat="48.06538" lon="-4.55651">
        <ele>99</ele>
        <time>2024-04-10T18:32:06.514Z</time>
      </trkpt>
      <trkpt lat="48.06527" lon="-4.55639">
        <ele>99</ele>
        <time>2024-04-10T18:32:08.718Z</time>
      </trkpt>
      <trkpt lat="48.06513" lon="-4.55628">
        <ele>99</ele>
        <time>2024-04-10T18:32:11.278Z</time>
      </trkpt>
      <trkpt lat="48.06501" lon="-4.55622">
        <ele>99</ele>
        <time>2024-04-10T18:32:13.326Z</time>
      </trkpt>
      <trkpt lat="48.06458" lon="-4.5562">
        <ele>99</ele>
        <time>2024-04-10T18:32:20.291Z</time>
      </trkpt>
      <trkpt lat="48.06303" lon="-4.55621">
        <ele>98</ele>
        <time>2024-04-10T18:32:43.921Z</time>
      </trkpt>
      <trkpt lat="48.0626" lon="-4.55618">
        <ele>97.5</ele>
        <time>2024-04-10T18:32:50.186Z</time>
      </trkpt>
      <trkpt lat="48.06175" lon="-4.5561">
        <ele>95.3</ele>
        <time>2024-04-10T18:33:01.187Z</time>
      </trkpt>
      <trkpt lat="48.06126" lon="-4.55613">
        <ele>94</ele>
        <time>2024-04-10T18:33:07.488Z</time>
      </trkpt>
      <trkpt lat="48.06097" lon="-4.55611">
        <ele>93</ele>
        <time>2024-04-10T18:33:10.995Z</time>
      </trkpt>
      <trkpt lat="48.06082" lon="-4.5561">
        <ele>92</ele>
        <time>2024-04-10T18:33:12.454Z</time>
      </trkpt>
      <trkpt lat="48.0599" lon="-4.55596">
        <ele>88.4</ele>
        <time>2024-04-10T18:33:23.259Z</time>
      </trkpt>
      <trkpt lat="48.05953" lon="-4.55595">
        <ele>86.4</ele>
        <time>2024-04-10T18:33:27.151Z</time>
      </trkpt>
      <trkpt lat="48.05911" lon="-4.55598">
        <ele>83.7</ele>
        <time>2024-04-10T18:33:31.298Z</time>
      </trkpt>
      <trkpt lat="48.05868" lon="-4.55606">
        <ele>80.7</ele>
        <time>2024-04-10T18:33:35.507Z</time>
      </trkpt>
      <trkpt lat="48.05834" lon="-4.55609">
        <ele>80</ele>
        <time>2024-04-10T18:33:40.100Z</time>
      </trkpt>
      <trkpt lat="48.05705" lon="-4.55607">
        <ele>77</ele>
        <time>2024-04-10T18:33:57.114Z</time>
      </trkpt>
      <trkpt lat="48.05663" lon="-4.55603">
        <ele>76.3</ele>
        <time>2024-04-10T18:34:02.979Z</time>
      </trkpt>
      <trkpt lat="48.05587" lon="-4.55587">
        <ele>74.1</ele>
        <time>2024-04-10T18:34:12.672Z</time>
      </trkpt>
      <trkpt lat="48.05539" lon="-4.55585">
        <ele>73</ele>
        <time>2024-04-10T18:34:19.023Z</time>
      </trkpt>
      <trkpt lat="48.05512" lon="-4.55589">
        <ele>73.5</ele>
        <time>2024-04-10T18:34:24.313Z</time>
      </trkpt>
      <trkpt lat="48.05445" lon="-4.55593">
        <ele>74</ele>
        <time>2024-04-10T18:34:35.986Z</time>
      </trkpt>
      <trkpt lat="48.05393" lon="-4.55589">
        <ele>74.9</ele>
        <time>2024-04-10T18:34:46.016Z</time>
        <extensions>
          <visugpx:TrkExtension xmlns:visugpx="https://www.visugpx.com/editgpx/">
            <visugpx:node>15</visugpx:node>
            </visugpx:TrkExtension>
        </extensions>
      </trkpt>
      <trkpt lat="48.0539" lon="-4.55589">
        <ele>75</ele>
        <time>2024-04-10T18:34:46.707Z</time>
      </trkpt>
      <trkpt lat="48.05355" lon="-4.55584">
        <ele>76</ele>
        <time>2024-04-10T18:34:54.362Z</time>
      </trkpt>
      <trkpt lat="48.05321" lon="-4.55582">
        <ele>76.5</ele>
        <time>2024-04-10T18:35:00.740Z</time>
      </trkpt>
      <trkpt lat="48.05295" lon="-4.55583">
        <ele>76.6</ele>
        <time>2024-04-10T18:35:05.109Z</time>
      </trkpt>
      <trkpt lat="48.05263" lon="-4.55491">
        <ele>76.5</ele>
        <time>2024-04-10T18:35:16.180Z</time>
      </trkpt>
      <trkpt lat="48.05256" lon="-4.55475">
        <ele>76.2</ele>
        <time>2024-04-10T18:35:17.863Z</time>
      </trkpt>
      <trkpt lat="48.05212" lon="-4.55403">
        <ele>74.6</ele>
        <time>2024-04-10T18:35:26.374Z</time>
      </trkpt>
      <trkpt lat="48.05199" lon="-4.55391">
        <ele>74.2</ele>
        <time>2024-04-10T18:35:28.342Z</time>
      </trkpt>
      <trkpt lat="48.05169" lon="-4.55388">
        <ele>73.1</ele>
        <time>2024-04-10T18:35:31.916Z</time>
      </trkpt>
      <trkpt lat="48.05165" lon="-4.55374">
        <ele>72.9</ele>
        <time>2024-04-10T18:35:33.299Z</time>
      </trkpt>
      <trkpt lat="48.05182" lon="-4.5529">
        <ele>73.6</ele>
        <time>2024-04-10T18:35:43.985Z</time>
      </trkpt>
      <trkpt lat="48.05183" lon="-4.55209">
        <ele>74</ele>
        <time>2024-04-10T18:35:53.406Z</time>
      </trkpt>
      <trkpt lat="48.05181" lon="-4.55158">
        <ele>74.2</ele>
        <time>2024-04-10T18:35:59.257Z</time>
      </trkpt>
      <trkpt lat="48.05145" lon="-4.54619">
        <ele>74.7</ele>
        <time>2024-04-10T18:36:58.654Z</time>
        <extensions>
          <visugpx:TrkExtension xmlns:visugpx="https://www.visugpx.com/editgpx/">
            <visugpx:node>16</visugpx:node>
            </visugpx:TrkExtension>
        </extensions>
      </trkpt>
      <trkpt lat="48.05145" lon="-4.54619">
        <ele>74.7</ele>
        <time>2024-04-10T18:36:58.654Z</time>
      </trkpt>
      <trkpt lat="48.05143" lon="-4.54594">
        <ele>74.2</ele>
        <time>2024-04-10T18:37:00.762Z</time>
      </trkpt>
      <trkpt lat="48.05138" lon="-4.54543">
        <ele>73.5</ele>
        <time>2024-04-10T18:37:05.418Z</time>
      </trkpt>
      <trkpt lat="48.0513" lon="-4.54493">
        <ele>72.9</ele>
        <time>2024-04-10T18:37:10.174Z</time>
      </trkpt>
      <trkpt lat="48.0512" lon="-4.54453">
        <ele>72.3</ele>
        <time>2024-04-10T18:37:14.009Z</time>
      </trkpt>
      <trkpt lat="48.0508" lon="-4.54339">
        <ele>69.9</ele>
        <time>2024-04-10T18:37:24.945Z</time>
      </trkpt>
      <trkpt lat="48.05061" lon="-4.54291">
        <ele>70.1</ele>
        <time>2024-04-10T18:37:31.304Z</time>
      </trkpt>
      <trkpt lat="48.04968" lon="-4.54079">
        <ele>69.8</ele>
        <time>2024-04-10T18:37:58.290Z</time>
      </trkpt>
      <trkpt lat="48.04914" lon="-4.53941">
        <ele>71.1</ele>
        <time>2024-04-10T18:38:17.807Z</time>
      </trkpt>
      <trkpt lat="48.04814" lon="-4.53678">
        <ele>71</ele>
        <time>2024-04-10T18:38:50.397Z</time>
      </trkpt>
      <trkpt lat="48.04796" lon="-4.53641">
        <ele>71</ele>
        <time>2024-04-10T18:38:55.350Z</time>
      </trkpt>
      <trkpt lat="48.04776" lon="-4.53605">
        <ele>70.9</ele>
        <time>2024-04-10T18:39:00.265Z</time>
      </trkpt>
      <trkpt lat="48.04729" lon="-4.53542">
        <ele>70</ele>
        <time>2024-04-10T18:39:09.242Z</time>
      </trkpt>
      <trkpt lat="48.04689" lon="-4.53479">
        <ele>68.8</ele>
        <time>2024-04-10T18:39:17.067Z</time>
      </trkpt>
      <trkpt lat="48.04681" lon="-4.53463">
        <ele>68.5</ele>
        <time>2024-04-10T18:39:18.840Z</time>
      </trkpt>
      <trkpt lat="48.04641" lon="-4.53358">
        <ele>66</ele>
        <time>2024-04-10T18:39:28.864Z</time>
      </trkpt>
      <trkpt lat="48.04609" lon="-4.53285">
        <ele>62.5</ele>
        <time>2024-04-10T18:39:34.773Z</time>
      </trkpt>
      <trkpt lat="48.04577" lon="-4.53216">
        <ele>59.5</ele>
        <time>2024-04-10T18:39:40.703Z</time>
      </trkpt>
      <trkpt lat="48.04541" lon="-4.5315">
        <ele>55.8</ele>
        <time>2024-04-10T18:39:46.293Z</time>
      </trkpt>
      <trkpt lat="48.04526" lon="-4.53126">
        <ele>53.9</ele>
        <time>2024-04-10T18:39:48.426Z</time>
      </trkpt>
      <trkpt lat="48.04517" lon="-4.53116">
        <ele>53.4</ele>
        <time>2024-04-10T18:39:49.684Z</time>
        <extensions>
          <visugpx:TrkExtension xmlns:visugpx="https://www.visugpx.com/editgpx/">
            <visugpx:node>17</visugpx:node>
            </visugpx:TrkExtension>
        </extensions>
      </trkpt>
      <trkpt lat="48.04464" lon="-4.53055">
        <ele>49.4</ele>
        <time>2024-04-10T18:39:56.462Z</time>
      </trkpt>
      <trkpt lat="48.04454" lon="-4.53044">
        <ele>48.7</ele>
        <time>2024-04-10T18:39:57.748Z</time>
      </trkpt>
      <trkpt lat="48.04377" lon="-4.52957">
        <ele>44.7</ele>
        <time>2024-04-10T18:40:08.818Z</time>
      </trkpt>
      <trkpt lat="48.04347" lon="-4.52923">
        <ele>42.9</ele>
        <time>2024-04-10T18:40:12.947Z</time>
      </trkpt>
      <trkpt lat="48.04328" lon="-4.52897">
        <ele>40.8</ele>
        <time>2024-04-10T18:40:15.448Z</time>
      </trkpt>
      <trkpt lat="48.04314" lon="-4.52872">
        <ele>39.8</ele>
        <time>2024-04-10T18:40:17.872Z</time>
      </trkpt>
      <trkpt lat="48.04298" lon="-4.52833">
        <ele>37.2</ele>
        <time>2024-04-10T18:40:20.844Z</time>
      </trkpt>
      <trkpt lat="48.04285" lon="-4.52794">
        <ele>36.4</ele>
        <time>2024-04-10T18:40:24.559Z</time>
      </trkpt>
      <trkpt lat="48.04256" lon="-4.527">
        <ele>31.3</ele>
        <time>2024-04-10T18:40:31.282Z</time>
      </trkpt>
      <trkpt lat="48.04231" lon="-4.52658">
        <ele>28.2</ele>
        <time>2024-04-10T18:40:34.934Z</time>
      </trkpt>
      <trkpt lat="48.04211" lon="-4.52637">
        <ele>26.6</ele>
        <time>2024-04-10T18:40:37.325Z</time>
      </trkpt>
      <trkpt lat="48.04099" lon="-4.52557">
        <ele>15.4</ele>
        <time>2024-04-10T18:40:49.381Z</time>
      </trkpt>
      <trkpt lat="48.04077" lon="-4.52539">
        <ele>12.3</ele>
        <time>2024-04-10T18:40:51.817Z</time>
      </trkpt>
      <trkpt lat="48.0406" lon="-4.52522">
        <ele>11.7</ele>
        <time>2024-04-10T18:40:54.386Z</time>
      </trkpt>
      <trkpt lat="48.04135" lon="-4.52411">
        <ele>9.3</ele>
        <time>2024-04-10T18:41:08.359Z</time>
      </trkpt>
      <trkpt lat="48.04244" lon="-4.5221">
        <ele>3.8</ele>
        <time>2024-04-10T18:41:29.689Z</time>
      </trkpt>
      <trkpt lat="48.04254" lon="-4.52183">
        <ele>4.1</ele>
        <time>2024-04-10T18:41:33.551Z</time>
      </trkpt>
      <trkpt lat="48.04258" lon="-4.52164">
        <ele>4.4</ele>
        <time>2024-04-10T18:41:36.265Z</time>
      </trkpt>
      <trkpt lat="48.0426" lon="-4.52148">
        <ele>4.8</ele>
        <time>2024-04-10T18:41:38.876Z</time>
      </trkpt>
      <trkpt lat="48.04258" lon="-4.52116">
        <ele>6.1</ele>
        <time>2024-04-10T18:41:45.832Z</time>
      </trkpt>
      <trkpt lat="48.04242" lon="-4.52023">
        <ele>7.7</ele>
        <time>2024-04-10T18:41:59.270Z</time>
      </trkpt>
      <trkpt lat="48.04226" lon="-4.51927">
        <ele>8.1</ele>
        <time>2024-04-10T18:42:10.625Z</time>
      </trkpt>
      <trkpt lat="48.04213" lon="-4.51847">
        <ele>8.5</ele>
        <time>2024-04-10T18:42:20.189Z</time>
      </trkpt>
      <trkpt lat="48.04208" lon="-4.51818">
        <ele>9</ele>
        <time>2024-04-10T18:42:24.382Z</time>
      </trkpt>
      <trkpt lat="48.04176" lon="-4.51615">
        <ele>16.2</ele>
        <time>2024-04-10T18:43:04.593Z</time>
      </trkpt>
      <trkpt lat="48.04169" lon="-4.51563">
        <ele>16.8</ele>
        <time>2024-04-10T18:43:11.398Z</time>
      </trkpt>
      <trkpt lat="48.04162" lon="-4.51473">
        <ele>17</ele>
        <time>2024-04-10T18:43:21.521Z</time>
      </trkpt>
      <trkpt lat="48.04163" lon="-4.51411">
        <ele>15.7</ele>
        <time>2024-04-10T18:43:26.649Z</time>
      </trkpt>
      <trkpt lat="48.0417" lon="-4.51321">
        <ele>12.3</ele>
        <time>2024-04-10T18:43:32.936Z</time>
      </trkpt>
      <trkpt lat="48.04173" lon="-4.51292">
        <ele>10.9</ele>
        <time>2024-04-10T18:43:34.841Z</time>
      </trkpt>
      <trkpt lat="48.04177" lon="-4.51265">
        <ele>9.9</ele>
        <time>2024-04-10T18:43:36.786Z</time>
      </trkpt>
      <trkpt lat="48.04184" lon="-4.51237">
        <ele>8.7</ele>
        <time>2024-04-10T18:43:38.809Z</time>
      </trkpt>
      <trkpt lat="48.04193" lon="-4.51219">
        <ele>7.8</ele>
        <time>2024-04-10T18:43:40.331Z</time>
      </trkpt>
      <trkpt lat="48.04212" lon="-4.51189">
        <ele>7.5</ele>
        <time>2024-04-10T18:43:44.379Z</time>
      </trkpt>
      <trkpt lat="48.04226" lon="-4.51161">
        <ele>8.2</ele>
        <time>2024-04-10T18:43:49.558Z</time>
      </trkpt>
      <trkpt lat="48.04237" lon="-4.51133">
        <ele>9.3</ele>
        <time>2024-04-10T18:43:55.741Z</time>
      </trkpt>
      <trkpt lat="48.04243" lon="-4.51104">
        <ele>9.8</ele>
        <time>2024-04-10T18:43:59.976Z</time>
      </trkpt>
      <trkpt lat="48.04244" lon="-4.51085">
        <ele>9.3</ele>
        <time>2024-04-10T18:44:01.461Z</time>
      </trkpt>
      <trkpt lat="48.04246" lon="-4.50995">
        <ele>5.7</ele>
        <time>2024-04-10T18:44:07.564Z</time>
      </trkpt>
      <trkpt lat="48.04248" lon="-4.50875">
        <ele>4.9</ele>
        <time>2024-04-10T18:44:19.417Z</time>
      </trkpt>
      <trkpt lat="48.04247" lon="-4.50854">
        <ele>5</ele>
        <time>2024-04-10T18:44:21.859Z</time>
      </trkpt>
      <trkpt lat="48.04244" lon="-4.50823">
        <ele>5.6</ele>
        <time>2024-04-10T18:44:26.429Z</time>
      </trkpt>
      <trkpt lat="48.04244" lon="-4.5082">
        <ele>5.7</ele>
        <time>2024-04-10T18:44:26.995Z</time>
      </trkpt>
      <trkpt lat="48.04222" lon="-4.50735">
        <ele>8.5</ele>
        <time>2024-04-10T18:44:43.347Z</time>
      </trkpt>
      <trkpt lat="48.042" lon="-4.50659">
        <ele>12.3</ele>
        <time>2024-04-10T18:45:03.341Z</time>
      </trkpt>
      <trkpt lat="48.04193" lon="-4.50634">
        <ele>13.1</ele>
        <time>2024-04-10T18:45:08.096Z</time>
      </trkpt>
      <trkpt lat="48.04184" lon="-4.50593">
        <ele>15.2</ele>
        <time>2024-04-10T18:45:19.120Z</time>
      </trkpt>
      <trkpt lat="48.04174" lon="-4.50502">
        <ele>19.2</ele>
        <time>2024-04-10T18:45:40.284Z</time>
      </trkpt>
      <trkpt lat="48.04172" lon="-4.50436">
        <ele>20.7</ele>
        <time>2024-04-10T18:45:50.534Z</time>
      </trkpt>
      <trkpt lat="48.04176" lon="-4.50386">
        <ele>22.3</ele>
        <time>2024-04-10T18:45:59.749Z</time>
      </trkpt>
      <trkpt lat="48.04184" lon="-4.50299">
        <ele>22.5</ele>
        <time>2024-04-10T18:46:09.570Z</time>
      </trkpt>
      <trkpt lat="48.04185" lon="-4.50267">
        <ele>21.9</ele>
        <time>2024-04-10T18:46:12.289Z</time>
      </trkpt>
      <trkpt lat="48.04182" lon="-4.50197">
        <ele>21.2</ele>
        <time>2024-04-10T18:46:18.921Z</time>
      </trkpt>
      <trkpt lat="48.04172" lon="-4.50122">
        <ele>19.3</ele>
        <time>2024-04-10T18:46:24.974Z</time>
      </trkpt>
      <trkpt lat="48.04172" lon="-4.50122">
        <ele>19.3</ele>
        <time>2024-04-10T18:46:24.974Z</time>
        <extensions>
          <visugpx:TrkExtension xmlns:visugpx="https://www.visugpx.com/editgpx/">
            <visugpx:node>18</visugpx:node>
            </visugpx:TrkExtension>
        </extensions>
      </trkpt>
      <trkpt lat="48.04166" lon="-4.50077">
        <ele>19.2</ele>
        <time>2024-04-10T18:46:29.790Z</time>
      </trkpt>
      <trkpt lat="48.04138" lon="-4.49897">
        <ele>19.3</ele>
        <time>2024-04-10T18:46:49.948Z</time>
      </trkpt>
      <trkpt lat="48.04113" lon="-4.49768">
        <ele>16.9</ele>
        <time>2024-04-10T18:47:01.465Z</time>
      </trkpt>
      <trkpt lat="48.04112" lon="-4.49747">
        <ele>16.1</ele>
        <time>2024-04-10T18:47:02.919Z</time>
      </trkpt>
      <trkpt lat="48.04113" lon="-4.49725">
        <ele>16.2</ele>
        <time>2024-04-10T18:47:05.468Z</time>
      </trkpt>
      <trkpt lat="48.04099" lon="-4.49708">
        <ele>15.1</ele>
        <time>2024-04-10T18:47:07.282Z</time>
      </trkpt>
      <trkpt lat="48.04096" lon="-4.49694">
        <ele>14.9</ele>
        <time>2024-04-10T18:47:08.610Z</time>
      </trkpt>
      <trkpt lat="48.04084" lon="-4.49641">
        <ele>13.1</ele>
        <time>2024-04-10T18:47:12.706Z</time>
      </trkpt>
      <trkpt lat="48.04057" lon="-4.49518">
        <ele>7.7</ele>
        <time>2024-04-10T18:47:21.338Z</time>
      </trkpt>
      <trkpt lat="48.04039" lon="-4.49419">
        <ele>6.6</ele>
        <time>2024-04-10T18:47:30.947Z</time>
      </trkpt>
      <trkpt lat="48.04032" lon="-4.49386">
        <ele>5.3</ele>
        <time>2024-04-10T18:47:33.349Z</time>
      </trkpt>
      <trkpt lat="48.04027" lon="-4.49357">
        <ele>6.2</ele>
        <time>2024-04-10T18:47:38.655Z</time>
      </trkpt>
      <trkpt lat="48.04024" lon="-4.49329">
        <ele>7.6</ele>
        <time>2024-04-10T18:47:46.004Z</time>
      </trkpt>
      <trkpt lat="48.04031" lon="-4.49183">
        <ele>15.6</ele>
        <time>2024-04-10T18:48:28.250Z</time>
      </trkpt>
      <trkpt lat="48.04033" lon="-4.49163">
        <ele>16.2</ele>
        <time>2024-04-10T18:48:31.808Z</time>
      </trkpt>
      <trkpt lat="48.04043" lon="-4.49116">
        <ele>19.1</ele>
        <time>2024-04-10T18:48:47.278Z</time>
      </trkpt>
      <trkpt lat="48.04042" lon="-4.49111">
        <ele>19.1</ele>
        <time>2024-04-10T18:48:47.843Z</time>
      </trkpt>
      <trkpt lat="48.04041" lon="-4.49106">
        <ele>19</ele>
        <time>2024-04-10T18:48:48.284Z</time>
      </trkpt>
      <trkpt lat="48.04004" lon="-4.4899">
        <ele>13.6</ele>
        <time>2024-04-10T18:48:56.830Z</time>
      </trkpt>
      <trkpt lat="48.03995" lon="-4.48963">
        <ele>12.8</ele>
        <time>2024-04-10T18:48:59.174Z</time>
      </trkpt>
      <trkpt lat="48.03939" lon="-4.48787">
        <ele>5.9</ele>
        <time>2024-04-10T18:49:12.983Z</time>
      </trkpt>
      <trkpt lat="48.03935" lon="-4.48777">
        <ele>5.3</ele>
        <time>2024-04-10T18:49:13.740Z</time>
      </trkpt>
      <trkpt lat="48.03928" lon="-4.4877">
        <ele>4.8</ele>
        <time>2024-04-10T18:49:14.596Z</time>
      </trkpt>
      <trkpt lat="48.03902" lon="-4.48762">
        <ele>3.5</ele>
        <time>2024-04-10T18:49:17.485Z</time>
      </trkpt>
      <trkpt lat="48.03895" lon="-4.48757">
        <ele>3.6</ele>
        <time>2024-04-10T18:49:18.912Z</time>
      </trkpt>
      <trkpt lat="48.03883" lon="-4.48741">
        <ele>3.2</ele>
        <time>2024-04-10T18:49:21.004Z</time>
      </trkpt>
      <trkpt lat="48.03879" lon="-4.48735">
        <ele>2.8</ele>
        <time>2024-04-10T18:49:21.555Z</time>
      </trkpt>
      <trkpt lat="48.03831" lon="-4.48662">
        <ele>3.2</ele>
        <time>2024-04-10T18:49:33.283Z</time>
      </trkpt>
      <trkpt lat="48.03813" lon="-4.48628">
        <ele>4.3</ele>
        <time>2024-04-10T18:49:40.336Z</time>
      </trkpt>
      <trkpt lat="48.0381" lon="-4.48618">
        <ele>4.6</ele>
        <time>2024-04-10T18:49:42.185Z</time>
      </trkpt>
      <trkpt lat="48.03802" lon="-4.48605">
        <ele>5.2</ele>
        <time>2024-04-10T18:49:45.555Z</time>
      </trkpt>
      <trkpt lat="48.03809" lon="-4.4859">
        <ele>4.9</ele>
        <time>2024-04-10T18:49:47.151Z</time>
      </trkpt>
      <trkpt lat="48.03811" lon="-4.48581">
        <ele>5</ele>
        <time>2024-04-10T18:49:48.353Z</time>
      </trkpt>
      <trkpt lat="48.03815" lon="-4.48552">
        <ele>6.4</ele>
        <time>2024-04-10T18:49:55.708Z</time>
      </trkpt>
      <trkpt lat="48.0382" lon="-4.48529">
        <ele>6.5</ele>
        <time>2024-04-10T18:49:58.488Z</time>
      </trkpt>
      <trkpt lat="48.03829" lon="-4.48506">
        <ele>6.9</ele>
        <time>2024-04-10T18:50:02.116Z</time>
      </trkpt>
      <trkpt lat="48.03831" lon="-4.48495">
        <ele>7.1</ele>
        <time>2024-04-10T18:50:03.735Z</time>
      </trkpt>
      <trkpt lat="48.03828" lon="-4.48484">
        <ele>7.2</ele>
        <time>2024-04-10T18:50:05.192Z</time>
      </trkpt>
      <trkpt lat="48.03819" lon="-4.48465">
        <ele>7.5</ele>
        <time>2024-04-10T18:50:08.255Z</time>
      </trkpt>
      <trkpt lat="48.03814" lon="-4.48452">
        <ele>7.7</ele>
        <time>2024-04-10T18:50:10.243Z</time>
      </trkpt>
      <trkpt lat="48.03798" lon="-4.48388">
        <ele>9.3</ele>
        <time>2024-04-10T18:50:20.978Z</time>
      </trkpt>
      <trkpt lat="48.03781" lon="-4.48288">
        <ele>10.4</ele>
        <time>2024-04-10T18:50:34.080Z</time>
      </trkpt>
      <trkpt lat="48.03781" lon="-4.48282">
        <ele>10.6</ele>
        <time>2024-04-10T18:50:35.211Z</time>
      </trkpt>
      <trkpt lat="48.03763" lon="-4.48139">
        <ele>10</ele>
        <time>2024-04-10T18:50:50.082Z</time>
      </trkpt>
      <trkpt lat="48.03757" lon="-4.48096">
        <ele>9.7</ele>
        <time>2024-04-10T18:50:54.410Z</time>
      </trkpt>
      <trkpt lat="48.03756" lon="-4.48089">
        <ele>9.8</ele>
        <time>2024-04-10T18:50:55.369Z</time>
      </trkpt>
      <trkpt lat="48.03754" lon="-4.48063">
        <ele>9.9</ele>
        <time>2024-04-10T18:50:58.363Z</time>
      </trkpt>
      <trkpt lat="48.03756" lon="-4.47967">
        <ele>12</ele>
        <time>2024-04-10T18:51:13.048Z</time>
      </trkpt>
      <trkpt lat="48.03754" lon="-4.47907">
        <ele>14</ele>
        <time>2024-04-10T18:51:24.362Z</time>
      </trkpt>
      <trkpt lat="48.03747" lon="-4.47849">
        <ele>15</ele>
        <time>2024-04-10T18:51:32.651Z</time>
      </trkpt>
      <trkpt lat="48.03744" lon="-4.47798">
        <ele>15.2</ele>
        <time>2024-04-10T18:51:38.516Z</time>
      </trkpt>
      <trkpt lat="48.03741" lon="-4.47766">
        <ele>15.6</ele>
        <time>2024-04-10T18:51:42.733Z</time>
      </trkpt>
      <trkpt lat="48.03772" lon="-4.47748">
        <ele>15.3</ele>
        <time>2024-04-10T18:51:47.686Z</time>
      </trkpt>
      <trkpt lat="48.03765" lon="-4.47729">
        <ele>15.9</ele>
        <time>2024-04-10T18:51:51.364Z</time>
      </trkpt>
      <trkpt lat="48.03737" lon="-4.47641">
        <ele>17</ele>
        <time>2024-04-10T18:52:03.862Z</time>
      </trkpt>
      <trkpt lat="48.03673" lon="-4.47416">
        <ele>20.8</ele>
        <time>2024-04-10T18:52:37.450Z</time>
      </trkpt>
      <trkpt lat="48.03665" lon="-4.47345">
        <ele>20.1</ele>
        <time>2024-04-10T18:52:44.281Z</time>
      </trkpt>
      <trkpt lat="48.03663" lon="-4.47312">
        <ele>20.1</ele>
        <time>2024-04-10T18:52:47.868Z</time>
      </trkpt>
      <trkpt lat="48.03663" lon="-4.47152">
        <ele>19</ele>
        <time>2024-04-10T18:53:03.625Z</time>
      </trkpt>
      <trkpt lat="48.03664" lon="-4.47028">
        <ele>19.2</ele>
        <time>2024-04-10T18:53:17.363Z</time>
      </trkpt>
      <trkpt lat="48.03664" lon="-4.46991">
        <ele>18.8</ele>
        <time>2024-04-10T18:53:20.824Z</time>
      </trkpt>
      <trkpt lat="48.03657" lon="-4.46899">
        <ele>18.7</ele>
        <time>2024-04-10T18:53:30.695Z</time>
      </trkpt>
      <trkpt lat="48.03649" lon="-4.46845">
        <ele>23.1</ele>
        <time>2024-04-10T18:53:54.984Z</time>
      </trkpt>
      <trkpt lat="48.03632" lon="-4.46789">
        <ele>26.8</ele>
        <time>2024-04-10T18:54:14.801Z</time>
      </trkpt>
      <trkpt lat="48.03596" lon="-4.46698">
        <ele>33</ele>
        <time>2024-04-10T18:54:47.860Z</time>
      </trkpt>
      <trkpt lat="48.03586" lon="-4.46678">
        <ele>33.9</ele>
        <time>2024-04-10T18:54:52.817Z</time>
      </trkpt>
      <trkpt lat="48.03553" lon="-4.46626">
        <ele>36.6</ele>
        <time>2024-04-10T18:55:07.507Z</time>
      </trkpt>
      <trkpt lat="48.03546" lon="-4.46608">
        <ele>37.5</ele>
        <time>2024-04-10T18:55:12.271Z</time>
      </trkpt>
      <trkpt lat="48.03542" lon="-4.46594">
        <ele>38.1</ele>
        <time>2024-04-10T18:55:15.499Z</time>
      </trkpt>
      <trkpt lat="48.03541" lon="-4.46581">
        <ele>38.5</ele>
        <time>2024-04-10T18:55:17.840Z</time>
      </trkpt>
      <trkpt lat="48.03542" lon="-4.46553">
        <ele>38</ele>
        <time>2024-04-10T18:55:20.246Z</time>
      </trkpt>
      <trkpt lat="48.03543" lon="-4.46544">
        <ele>38.2</ele>
        <time>2024-04-10T18:55:21.643Z</time>
      </trkpt>
      <trkpt lat="48.03553" lon="-4.46436">
        <ele>41.1</ele>
        <time>2024-04-10T18:55:39.775Z</time>
      </trkpt>
      <trkpt lat="48.03558" lon="-4.46403">
        <ele>41.4</ele>
        <time>2024-04-10T18:55:43.954Z</time>
      </trkpt>
      <trkpt lat="48.03566" lon="-4.46335">
        <ele>42.6</ele>
        <time>2024-04-10T18:55:53.732Z</time>
      </trkpt>
      <trkpt lat="48.03573" lon="-4.46183">
        <ele>42.1</ele>
        <time>2024-04-10T18:56:09.485Z</time>
      </trkpt>
      <trkpt lat="48.0358" lon="-4.45979">
        <ele>41.4</ele>
        <time>2024-04-10T18:56:30.562Z</time>
      </trkpt>
      <trkpt lat="48.03579" lon="-4.45938">
        <ele>40.5</ele>
        <time>2024-04-10T18:56:33.917Z</time>
      </trkpt>
      <trkpt lat="48.03575" lon="-4.45892">
        <ele>40.9</ele>
        <time>2024-04-10T18:56:39.624Z</time>
      </trkpt>
      <trkpt lat="48.03559" lon="-4.45799">
        <ele>39.8</ele>
        <time>2024-04-10T18:56:48.535Z</time>
      </trkpt>
      <trkpt lat="48.03556" lon="-4.45758">
        <ele>39.3</ele>
        <time>2024-04-10T18:56:52.330Z</time>
      </trkpt>
      <trkpt lat="48.0356" lon="-4.45692">
        <ele>38.8</ele>
        <time>2024-04-10T18:56:58.799Z</time>
      </trkpt>
      <trkpt lat="48.03572" lon="-4.45552">
        <ele>37.1</ele>
        <time>2024-04-10T18:57:11.799Z</time>
      </trkpt>
      <trkpt lat="48.03573" lon="-4.45522">
        <ele>36.1</ele>
        <time>2024-04-10T18:57:13.973Z</time>
      </trkpt>
      <trkpt lat="48.03584" lon="-4.45418">
        <ele>35</ele>
        <time>2024-04-10T18:57:23.870Z</time>
      </trkpt>
      <trkpt lat="48.03589" lon="-4.45334">
        <ele>35.6</ele>
        <time>2024-04-10T18:57:34.006Z</time>
      </trkpt>
      <trkpt lat="48.0359" lon="-4.45302">
        <ele>35.2</ele>
        <time>2024-04-10T18:57:36.941Z</time>
      </trkpt>
      <trkpt lat="48.03586" lon="-4.4516">
        <ele>29.6</ele>
        <time>2024-04-10T18:57:46.627Z</time>
      </trkpt>
      <trkpt lat="48.03585" lon="-4.45114">
        <ele>28.8</ele>
        <time>2024-04-10T18:57:50.597Z</time>
      </trkpt>
      <trkpt lat="48.0358" lon="-4.44937">
        <ele>29.7</ele>
        <time>2024-04-10T18:58:11.248Z</time>
      </trkpt>
      <trkpt lat="48.0358" lon="-4.44878">
        <ele>29</ele>
        <time>2024-04-10T18:58:16.694Z</time>
      </trkpt>
      <trkpt lat="48.03589" lon="-4.44821">
        <ele>29</ele>
        <time>2024-04-10T18:58:23.034Z</time>
      </trkpt>
      <trkpt lat="48.03617" lon="-4.44705">
        <ele>32.4</ele>
        <time>2024-04-10T18:58:43.910Z</time>
      </trkpt>
      <trkpt lat="48.03635" lon="-4.4458">
        <ele>33.3</ele>
        <time>2024-04-10T18:58:59.262Z</time>
        <extensions>
          <visugpx:TrkExtension xmlns:visugpx="https://www.visugpx.com/editgpx/">
            <visugpx:node>19</visugpx:node>
            </visugpx:TrkExtension>
        </extensions>
      </trkpt>
      <trkpt lat="48.03635" lon="-4.4458">
        <ele>33.3</ele>
        <time>2024-04-10T18:58:59.262Z</time>
      </trkpt>
      <trkpt lat="48.03648" lon="-4.44506">
        <ele>33.2</ele>
        <time>2024-04-10T18:59:07.392Z</time>
      </trkpt>
      <trkpt lat="48.03649" lon="-4.44504">
        <ele>33.2</ele>
        <time>2024-04-10T18:59:07.662Z</time>
      </trkpt>
      <trkpt lat="48.03678" lon="-4.44382">
        <ele>32.7</ele>
        <time>2024-04-10T18:59:20.943Z</time>
      </trkpt>
      <trkpt lat="48.03692" lon="-4.44313">
        <ele>31.4</ele>
        <time>2024-04-10T18:59:27.115Z</time>
      </trkpt>
      <trkpt lat="48.03701" lon="-4.44263">
        <ele>29</ele>
        <time>2024-04-10T18:59:30.478Z</time>
      </trkpt>
      <trkpt lat="48.03702" lon="-4.44232">
        <ele>28.6</ele>
        <time>2024-04-10T18:59:33.306Z</time>
      </trkpt>
      <trkpt lat="48.03683" lon="-4.44033">
        <ele>34.2</ele>
        <time>2024-04-10T19:00:07.512Z</time>
      </trkpt>
      <trkpt lat="48.03674" lon="-4.43994">
        <ele>35</ele>
        <time>2024-04-10T19:00:13.557Z</time>
      </trkpt>
      <trkpt lat="48.03664" lon="-4.43979">
        <ele>35.9</ele>
        <time>2024-04-10T19:00:18.333Z</time>
      </trkpt>
      <trkpt lat="48.03647" lon="-4.43963">
        <ele>36.8</ele>
        <time>2024-04-10T19:00:23.647Z</time>
      </trkpt>
      <trkpt lat="48.03516" lon="-4.43889">
        <ele>46.3</ele>
        <time>2024-04-10T19:01:13.676Z</time>
      </trkpt>
      <trkpt lat="48.03506" lon="-4.43878">
        <ele>47</ele>
        <time>2024-04-10T19:01:17.483Z</time>
      </trkpt>
      <trkpt lat="48.03497" lon="-4.43864">
        <ele>47.4</ele>
        <time>2024-04-10T19:01:20.388Z</time>
      </trkpt>
      <trkpt lat="48.03492" lon="-4.4385">
        <ele>47.9</ele>
        <time>2024-04-10T19:01:23.278Z</time>
      </trkpt>
      <trkpt lat="48.03489" lon="-4.43833">
        <ele>48.2</ele>
        <time>2024-04-10T19:01:25.755Z</time>
      </trkpt>
      <trkpt lat="48.03489" lon="-4.43812">
        <ele>48.2</ele>
        <time>2024-04-10T19:01:28.028Z</time>
      </trkpt>
      <trkpt lat="48.03493" lon="-4.43784">
        <ele>48.3</ele>
        <time>2024-04-10T19:01:31.288Z</time>
      </trkpt>
      <trkpt lat="48.03518" lon="-4.43678">
        <ele>48.4</ele>
        <time>2024-04-10T19:01:43.611Z</time>
      </trkpt>
      <trkpt lat="48.03517" lon="-4.43659">
        <ele>48.9</ele>
        <time>2024-04-10T19:01:46.760Z</time>
      </trkpt>
      <trkpt lat="48.03511" lon="-4.43604">
        <ele>50.3</ele>
        <time>2024-04-10T19:01:55.785Z</time>
      </trkpt>
      <trkpt lat="48.03501" lon="-4.43605">
        <ele>50.9</ele>
        <time>2024-04-10T19:01:59.003Z</time>
      </trkpt>
      <trkpt lat="48.03487" lon="-4.43604">
        <ele>51.9</ele>
        <time>2024-04-10T19:02:04.254Z</time>
      </trkpt>
      <trkpt lat="48.03443" lon="-4.43596">
        <ele>55.1</ele>
        <time>2024-04-10T19:02:21.055Z</time>
      </trkpt>
      <trkpt lat="48.03414" lon="-4.4359">
        <ele>57.1</ele>
        <time>2024-04-10T19:02:31.581Z</time>
      </trkpt>
      <trkpt lat="48.03382" lon="-4.43585">
        <ele>58.5</ele>
        <time>2024-04-10T19:02:39.957Z</time>
      </trkpt>
      <trkpt lat="48.03348" lon="-4.43582">
        <ele>60.5</ele>
        <time>2024-04-10T19:02:50.728Z</time>
      </trkpt>
      <trkpt lat="48.03313" lon="-4.43585">
        <ele>61</ele>
        <time>2024-04-10T19:02:57.270Z</time>
      </trkpt>
      <trkpt lat="48.03278" lon="-4.43587">
        <ele>62</ele>
        <time>2024-04-10T19:03:04.906Z</time>
      </trkpt>
      <trkpt lat="48.032" lon="-4.43575">
        <ele>63.8</ele>
        <time>2024-04-10T19:03:20.964Z</time>
      </trkpt>
      <trkpt lat="48.03127" lon="-4.43587">
        <ele>64.1</ele>
        <time>2024-04-10T19:03:33.330Z</time>
      </trkpt>
      <trkpt lat="48.03091" lon="-4.43589">
        <ele>65.5</ele>
        <time>2024-04-10T19:03:42.192Z</time>
      </trkpt>
      <trkpt lat="48.03063" lon="-4.43588">
        <ele>66.7</ele>
        <time>2024-04-10T19:03:49.423Z</time>
        <extensions>
          <visugpx:TrkExtension xmlns:visugpx="https://www.visugpx.com/editgpx/">
            <visugpx:node>20</visugpx:node>
            </visugpx:TrkExtension>
        </extensions>
      </trkpt>
      <trkpt lat="48.03039" lon="-4.43588">
        <ele>68.2</ele>
        <time>2024-04-10T19:03:57.403Z</time>
      </trkpt>
      <trkpt lat="48.02935" lon="-4.43579">
        <ele>75.3</ele>
        <time>2024-04-10T19:04:34.780Z</time>
      </trkpt>
      <trkpt lat="48.02925" lon="-4.43576">
        <ele>75.7</ele>
        <time>2024-04-10T19:04:37.300Z</time>
      </trkpt>
      <trkpt lat="48.02918" lon="-4.43572">
        <ele>76</ele>
        <time>2024-04-10T19:04:39.169Z</time>
      </trkpt>
      <trkpt lat="48.02914" lon="-4.43567">
        <ele>76</ele>
        <time>2024-04-10T19:04:40.013Z</time>
      </trkpt>
      <trkpt lat="48.02905" lon="-4.43561">
        <ele>76.1</ele>
        <time>2024-04-10T19:04:41.776Z</time>
      </trkpt>
      <trkpt lat="48.02901" lon="-4.43561">
        <ele>76.1</ele>
        <time>2024-04-10T19:04:42.423Z</time>
      </trkpt>
      <trkpt lat="48.02897" lon="-4.43557">
        <ele>76</ele>
        <time>2024-04-10T19:04:43.071Z</time>
      </trkpt>
      <trkpt lat="48.02897" lon="-4.4355">
        <ele>75.9</ele>
        <time>2024-04-10T19:04:43.698Z</time>
      </trkpt>
      <trkpt lat="48.029" lon="-4.43545">
        <ele>75.8</ele>
        <time>2024-04-10T19:04:44.295Z</time>
      </trkpt>
      <trkpt lat="48.02902" lon="-4.43525">
        <ele>75.4</ele>
        <time>2024-04-10T19:04:45.991Z</time>
      </trkpt>
      <trkpt lat="48.02868" lon="-4.43404">
        <ele>69.7</ele>
        <time>2024-04-10T19:04:54.609Z</time>
      </trkpt>
      <trkpt lat="48.02862" lon="-4.43375">
        <ele>67.9</ele>
        <time>2024-04-10T19:04:56.581Z</time>
      </trkpt>
      <trkpt lat="48.02857" lon="-4.43342">
        <ele>65.8</ele>
        <time>2024-04-10T19:04:58.779Z</time>
      </trkpt>
      <trkpt lat="48.02857" lon="-4.43251">
        <ele>66</ele>
        <time>2024-04-10T19:05:08.947Z</time>
      </trkpt>
      <trkpt lat="48.0286" lon="-4.43214">
        <ele>67.3</ele>
        <time>2024-04-10T19:05:16.183Z</time>
      </trkpt>
      <trkpt lat="48.02873" lon="-4.43155">
        <ele>70.2</ele>
        <time>2024-04-10T19:05:31.426Z</time>
      </trkpt>
      <trkpt lat="48.02885" lon="-4.43091">
        <ele>72.7</ele>
        <time>2024-04-10T19:05:45.032Z</time>
      </trkpt>
      <trkpt lat="48.02886" lon="-4.43071">
        <ele>73.5</ele>
        <time>2024-04-10T19:05:49.326Z</time>
      </trkpt>
      <trkpt lat="48.02885" lon="-4.43015">
        <ele>74.7</ele>
        <time>2024-04-10T19:05:57.826Z</time>
      </trkpt>
      <trkpt lat="48.0287" lon="-4.42824">
        <ele>79</ele>
        <time>2024-04-10T19:06:27.488Z</time>
      </trkpt>
      <trkpt lat="48.02866" lon="-4.42664">
        <ele>80.5</ele>
        <time>2024-04-10T19:06:47.416Z</time>
      </trkpt>
      <trkpt lat="48.02865" lon="-4.42602">
        <ele>80.8</ele>
        <time>2024-04-10T19:06:54.620Z</time>
      </trkpt>
      <trkpt lat="48.02865" lon="-4.42595">
        <ele>80.8</ele>
        <time>2024-04-10T19:06:55.378Z</time>
      </trkpt>
      <trkpt lat="48.02865" lon="-4.42546">
        <ele>81.7</ele>
        <time>2024-04-10T19:07:02.434Z</time>
      </trkpt>
      <trkpt lat="48.02862" lon="-4.42471">
        <ele>82.9</ele>
        <time>2024-04-10T19:07:12.830Z</time>
      </trkpt>
      <trkpt lat="48.02858" lon="-4.42442">
        <ele>83.1</ele>
        <time>2024-04-10T19:07:16.370Z</time>
      </trkpt>
      <trkpt lat="48.02845" lon="-4.42388">
        <ele>84.2</ele>
        <time>2024-04-10T19:07:24.748Z</time>
      </trkpt>
      <trkpt lat="48.02806" lon="-4.42275">
        <ele>87.1</ele>
        <time>2024-04-10T19:07:44.516Z</time>
      </trkpt>
      <trkpt lat="48.02799" lon="-4.4225">
        <ele>88.2</ele>
        <time>2024-04-10T19:07:50.399Z</time>
      </trkpt>
      <trkpt lat="48.02789" lon="-4.42206">
        <ele>88.6</ele>
        <time>2024-04-10T19:07:56.115Z</time>
      </trkpt>
      <trkpt lat="48.02777" lon="-4.42068">
        <ele>87</ele>
        <time>2024-04-10T19:08:09.023Z</time>
      </trkpt>
      <trkpt lat="48.02775" lon="-4.42034">
        <ele>86.4</ele>
        <time>2024-04-10T19:08:11.961Z</time>
      </trkpt>
      <trkpt lat="48.02768" lon="-4.41995">
        <ele>85.6</ele>
        <time>2024-04-10T19:08:15.346Z</time>
      </trkpt>
      <trkpt lat="48.02735" lon="-4.4185">
        <ele>84.1</ele>
        <time>2024-04-10T19:08:29.867Z</time>
      </trkpt>
      <trkpt lat="48.02715" lon="-4.417">
        <ele>84.9</ele>
        <time>2024-04-10T19:08:47.740Z</time>
      </trkpt>
      <trkpt lat="48.02714" lon="-4.4164">
        <ele>86</ele>
        <time>2024-04-10T19:08:56.378Z</time>
      </trkpt>
      <trkpt lat="48.02717" lon="-4.41597">
        <ele>86.6</ele>
        <time>2024-04-10T19:09:02.158Z</time>
      </trkpt>
      <trkpt lat="48.02731" lon="-4.41468">
        <ele>88.7</ele>
        <time>2024-04-10T19:09:20.270Z</time>
      </trkpt>
      <trkpt lat="48.02737" lon="-4.41399">
        <ele>89.5</ele>
        <time>2024-04-10T19:09:29.224Z</time>
      </trkpt>
      <trkpt lat="48.02737" lon="-4.41334">
        <ele>89.5</ele>
        <time>2024-04-10T19:09:36.262Z</time>
      </trkpt>
      <trkpt lat="48.02731" lon="-4.41283">
        <ele>89.4</ele>
        <time>2024-04-10T19:09:41.718Z</time>
      </trkpt>
      <trkpt lat="48.0272" lon="-4.41216">
        <ele>89.1</ele>
        <time>2024-04-10T19:09:48.748Z</time>
      </trkpt>
      <trkpt lat="48.02702" lon="-4.41168">
        <ele>89.7</ele>
        <time>2024-04-10T19:09:55.764Z</time>
      </trkpt>
      <trkpt lat="48.02646" lon="-4.41044">
        <ele>89.6</ele>
        <time>2024-04-10T19:10:11.811Z</time>
      </trkpt>
      <trkpt lat="48.02632" lon="-4.4099">
        <ele>90</ele>
        <time>2024-04-10T19:10:18.752Z</time>
      </trkpt>
      <trkpt lat="48.02623" lon="-4.40925">
        <ele>90.3</ele>
        <time>2024-04-10T19:10:26.426Z</time>
      </trkpt>
      <trkpt lat="48.02617" lon="-4.40857">
        <ele>90.3</ele>
        <time>2024-04-10T19:10:33.852Z</time>
      </trkpt>
      <trkpt lat="48.02619" lon="-4.40846">
        <ele>90.7</ele>
        <time>2024-04-10T19:10:36.074Z</time>
      </trkpt>
      <trkpt lat="48.02616" lon="-4.4084">
        <ele>90.8</ele>
        <time>2024-04-10T19:10:37.067Z</time>
      </trkpt>
      <trkpt lat="48.02618" lon="-4.40836">
        <ele>90.9</ele>
        <time>2024-04-10T19:10:37.807Z</time>
      </trkpt>
      <trkpt lat="48.02614" lon="-4.40823">
        <ele>91</ele>
        <time>2024-04-10T19:10:39.524Z</time>
      </trkpt>
      <trkpt lat="48.026" lon="-4.40678">
        <ele>91</ele>
        <time>2024-04-10T19:10:55.386Z</time>
      </trkpt>
      <trkpt lat="48.02582" lon="-4.40498">
        <ele>91.1</ele>
        <time>2024-04-10T19:11:15.246Z</time>
      </trkpt>
      <trkpt lat="48.0256" lon="-4.40276">
        <ele>92.2</ele>
        <time>2024-04-10T19:11:41.342Z</time>
      </trkpt>
      <trkpt lat="48.02556" lon="-4.40211">
        <ele>93</ele>
        <time>2024-04-10T19:11:49.845Z</time>
      </trkpt>
      <trkpt lat="48.02542" lon="-4.39864">
        <ele>86.6</ele>
        <time>2024-04-10T19:12:19.473Z</time>
      </trkpt>
      <trkpt lat="48.02537" lon="-4.39772">
        <ele>82.5</ele>
        <time>2024-04-10T19:12:25.480Z</time>
      </trkpt>
      <trkpt lat="48.02525" lon="-4.39713">
        <ele>79.8</ele>
        <time>2024-04-10T19:12:29.516Z</time>
      </trkpt>
      <trkpt lat="48.025" lon="-4.39606">
        <ele>76.2</ele>
        <time>2024-04-10T19:12:37.850Z</time>
      </trkpt>
      <trkpt lat="48.02495" lon="-4.39589">
        <ele>76.8</ele>
        <time>2024-04-10T19:12:41.284Z</time>
      </trkpt>
      <trkpt lat="48.0249" lon="-4.39563">
        <ele>77.7</ele>
        <time>2024-04-10T19:12:46.376Z</time>
      </trkpt>
      <trkpt lat="48.02475" lon="-4.39268">
        <ele>83</ele>
        <time>2024-04-10T19:13:28.661Z</time>
      </trkpt>
      <trkpt lat="48.02449" lon="-4.39072">
        <ele>83.2</ele>
        <time>2024-04-10T19:13:50.608Z</time>
      </trkpt>
      <trkpt lat="48.02437" lon="-4.38997">
        <ele>82.7</ele>
        <time>2024-04-10T19:13:58.244Z</time>
      </trkpt>
      <trkpt lat="48.0241" lon="-4.38885">
        <ele>82</ele>
        <time>2024-04-10T19:14:10.129Z</time>
      </trkpt>
      <trkpt lat="48.02349" lon="-4.38691">
        <ele>82.6</ele>
        <time>2024-04-10T19:14:34.295Z</time>
      </trkpt>
      <trkpt lat="48.02339" lon="-4.38652">
        <ele>82.6</ele>
        <time>2024-04-10T19:14:38.817Z</time>
      </trkpt>
      <trkpt lat="48.02327" lon="-4.38604">
        <ele>83.2</ele>
        <time>2024-04-10T19:14:45.434Z</time>
      </trkpt>
      <trkpt lat="48.02318" lon="-4.38541">
        <ele>83.4</ele>
        <time>2024-04-10T19:14:52.729Z</time>
      </trkpt>
      <trkpt lat="48.02283" lon="-4.38266">
        <ele>85.2</ele>
        <time>2024-04-10T19:15:26.037Z</time>
      </trkpt>
      <trkpt lat="48.02282" lon="-4.38249">
        <ele>85.2</ele>
        <time>2024-04-10T19:15:27.885Z</time>
      </trkpt>
      <trkpt lat="48.02277" lon="-4.38187">
        <ele>86</ele>
        <time>2024-04-10T19:15:36.092Z</time>
      </trkpt>
      <trkpt lat="48.02272" lon="-4.38078">
        <ele>86.8</ele>
        <time>2024-04-10T19:15:49.270Z</time>
      </trkpt>
      <trkpt lat="48.02263" lon="-4.38018">
        <ele>86.5</ele>
        <time>2024-04-10T19:15:55.492Z</time>
      </trkpt>
      <trkpt lat="48.02247" lon="-4.37935">
        <ele>87.2</ele>
        <time>2024-04-10T19:16:06.035Z</time>
      </trkpt>
      <trkpt lat="48.02234" lon="-4.37891">
        <ele>87.4</ele>
        <time>2024-04-10T19:16:11.567Z</time>
      </trkpt>
      <trkpt lat="48.02201" lon="-4.37791">
        <ele>86.6</ele>
        <time>2024-04-10T19:16:22.509Z</time>
      </trkpt>
      <trkpt lat="48.02181" lon="-4.37736">
        <ele>87.3</ele>
        <time>2024-04-10T19:16:30.526Z</time>
      </trkpt>
      <trkpt lat="48.02133" lon="-4.3761">
        <ele>88.8</ele>
        <time>2024-04-10T19:16:48.852Z</time>
      </trkpt>
      <trkpt lat="48.02122" lon="-4.37592">
        <ele>88.8</ele>
        <time>2024-04-10T19:16:51.492Z</time>
      </trkpt>
      <trkpt lat="48.02066" lon="-4.37508">
        <ele>88.3</ele>
        <time>2024-04-10T19:17:03.602Z</time>
      </trkpt>
      <trkpt lat="48.02036" lon="-4.37466">
        <ele>87.3</ele>
        <time>2024-04-10T19:17:08.975Z</time>
      </trkpt>
      <trkpt lat="48.01969" lon="-4.37387">
        <ele>84.9</ele>
        <time>2024-04-10T19:17:19.798Z</time>
      </trkpt>
      <trkpt lat="48.01951" lon="-4.37371">
        <ele>84.2</ele>
        <time>2024-04-10T19:17:22.347Z</time>
      </trkpt>
      <trkpt lat="48.01827" lon="-4.37218">
        <ele>85</ele>
        <time>2024-04-10T19:17:49.657Z</time>
      </trkpt>
      <trkpt lat="48.01795" lon="-4.37167">
        <ele>85.4</ele>
        <time>2024-04-10T19:17:57.889Z</time>
      </trkpt>
      <trkpt lat="48.01765" lon="-4.37111">
        <ele>87.5</ele>
        <time>2024-04-10T19:18:10.421Z</time>
      </trkpt>
      <trkpt lat="48.01756" lon="-4.37083">
        <ele>87.8</ele>
        <time>2024-04-10T19:18:14.306Z</time>
      </trkpt>
      <trkpt lat="48.01745" lon="-4.37039">
        <ele>89.1</ele>
        <time>2024-04-10T19:18:22.274Z</time>
      </trkpt>
      <trkpt lat="48.0173" lon="-4.36933">
        <ele>90.7</ele>
        <time>2024-04-10T19:18:36.973Z</time>
      </trkpt>
      <trkpt lat="48.01713" lon="-4.36851">
        <ele>91.3</ele>
        <time>2024-04-10T19:18:47.276Z</time>
      </trkpt>
      <trkpt lat="48.01704" lon="-4.36827">
        <ele>91.5</ele>
        <time>2024-04-10T19:18:50.592Z</time>
      </trkpt>
      <trkpt lat="48.01664" lon="-4.36749">
        <ele>92</ele>
        <time>2024-04-10T19:19:02.054Z</time>
      </trkpt>
      <trkpt lat="48.01641" lon="-4.36699">
        <ele>92</ele>
        <time>2024-04-10T19:19:08.625Z</time>
      </trkpt>
      <trkpt lat="48.0163" lon="-4.36645">
        <ele>92.3</ele>
        <time>2024-04-10T19:19:15.231Z</time>
      </trkpt>
      <trkpt lat="48.0162" lon="-4.36579">
        <ele>92.7</ele>
        <time>2024-04-10T19:19:23.221Z</time>
        <extensions>
          <visugpx:TrkExtension xmlns:visugpx="https://www.visugpx.com/editgpx/">
            <visugpx:node>21</visugpx:node>
            </visugpx:TrkExtension>
        </extensions>
      </trkpt>
      <trkpt lat="48.01614" lon="-4.36533">
        <ele>92.9</ele>
        <time>2024-04-10T19:19:28.620Z</time>
      </trkpt>
      <trkpt lat="48.01605" lon="-4.36451">
        <ele>92.2</ele>
        <time>2024-04-10T19:19:36.642Z</time>
      </trkpt>
      <trkpt lat="48.01603" lon="-4.36347">
        <ele>92.3</ele>
        <time>2024-04-10T19:19:48.064Z</time>
      </trkpt>
      <trkpt lat="48.01596" lon="-4.36272">
        <ele>91.5</ele>
        <time>2024-04-10T19:19:55.175Z</time>
      </trkpt>
      <trkpt lat="48.01581" lon="-4.36188">
        <ele>92.1</ele>
        <time>2024-04-10T19:20:05.595Z</time>
      </trkpt>
      <trkpt lat="48.0157" lon="-4.36142">
        <ele>92.5</ele>
        <time>2024-04-10T19:20:11.566Z</time>
      </trkpt>
      <trkpt lat="48.01554" lon="-4.36085">
        <ele>92</ele>
        <time>2024-04-10T19:20:17.560Z</time>
      </trkpt>
      <trkpt lat="48.01546" lon="-4.36056">
        <ele>92</ele>
        <time>2024-04-10T19:20:20.957Z</time>
      </trkpt>
      <trkpt lat="48.01525" lon="-4.35967">
        <ele>90.8</ele>
        <time>2024-04-10T19:20:29.580Z</time>
      </trkpt>
      <trkpt lat="48.0152" lon="-4.35968">
        <ele>90.9</ele>
        <time>2024-04-10T19:20:30.578Z</time>
      </trkpt>
      <trkpt lat="48.01516" lon="-4.35962">
        <ele>90.8</ele>
        <time>2024-04-10T19:20:31.361Z</time>
      </trkpt>
      <trkpt lat="48.01516" lon="-4.35956">
        <ele>90.7</ele>
        <time>2024-04-10T19:20:31.883Z</time>
      </trkpt>
      <trkpt lat="48.01513" lon="-4.35942">
        <ele>90.6</ele>
        <time>2024-04-10T19:20:33.333Z</time>
      </trkpt>
      <trkpt lat="48.01508" lon="-4.35887">
        <ele>91.4</ele>
        <time>2024-04-10T19:20:40.821Z</time>
      </trkpt>
      <trkpt lat="48.01504" lon="-4.35861">
        <ele>91</ele>
        <time>2024-04-10T19:20:43.191Z</time>
      </trkpt>
      <trkpt lat="48.01496" lon="-4.35818">
        <ele>91.1</ele>
        <time>2024-04-10T19:20:48.182Z</time>
      </trkpt>
      <trkpt lat="48.01488" lon="-4.35784">
        <ele>91</ele>
        <time>2024-04-10T19:20:51.936Z</time>
      </trkpt>
      <trkpt lat="48.01473" lon="-4.35719">
        <ele>89.9</ele>
        <time>2024-04-10T19:20:57.970Z</time>
      </trkpt>
      <trkpt lat="48.01461" lon="-4.35671">
        <ele>89.1</ele>
        <time>2024-04-10T19:21:02.487Z</time>
      </trkpt>
      <trkpt lat="48.01422" lon="-4.35503">
        <ele>89</ele>
        <time>2024-04-10T19:21:21.592Z</time>
      </trkpt>
      <trkpt lat="48.01407" lon="-4.35429">
        <ele>89.7</ele>
        <time>2024-04-10T19:21:31.171Z</time>
      </trkpt>
      <trkpt lat="48.01396" lon="-4.35348">
        <ele>91.1</ele>
        <time>2024-04-10T19:21:42.794Z</time>
      </trkpt>
      <trkpt lat="48.0139" lon="-4.35255">
        <ele>92</ele>
        <time>2024-04-10T19:21:54.473Z</time>
      </trkpt>
      <trkpt lat="48.01385" lon="-4.35138">
        <ele>93.1</ele>
        <time>2024-04-10T19:22:09.072Z</time>
      </trkpt>
      <trkpt lat="48.01366" lon="-4.34541">
        <ele>91</ele>
        <time>2024-04-10T19:23:10.696Z</time>
      </trkpt>
      <trkpt lat="48.01359" lon="-4.34441">
        <ele>91</ele>
        <time>2024-04-10T19:23:21.584Z</time>
      </trkpt>
      <trkpt lat="48.01352" lon="-4.3437">
        <ele>91</ele>
        <time>2024-04-10T19:23:29.356Z</time>
      </trkpt>
      <trkpt lat="48.01338" lon="-4.34274">
        <ele>92</ele>
        <time>2024-04-10T19:23:41.744Z</time>
      </trkpt>
      <trkpt lat="48.01285" lon="-4.33948">
        <ele>94.7</ele>
        <time>2024-04-10T19:24:22.665Z</time>
      </trkpt>
      <trkpt lat="48.01272" lon="-4.33875">
        <ele>93.5</ele>
        <time>2024-04-10T19:24:29.303Z</time>
      </trkpt>
      <trkpt lat="48.01247" lon="-4.33696">
        <ele>93.1</ele>
        <time>2024-04-10T19:24:48.507Z</time>
      </trkpt>
      <trkpt lat="48.01238" lon="-4.33478">
        <ele>96</ele>
        <time>2024-04-10T19:25:17.434Z</time>
      </trkpt>
      <trkpt lat="48.01229" lon="-4.33107">
        <ele>98</ele>
        <time>2024-04-10T19:26:00.927Z</time>
      </trkpt>
      <trkpt lat="48.01227" lon="-4.33044">
        <ele>98</ele>
        <time>2024-04-10T19:26:07.757Z</time>
      </trkpt>
      <trkpt lat="48.01222" lon="-4.33009">
        <ele>98</ele>
        <time>2024-04-10T19:26:11.633Z</time>
      </trkpt>
      <trkpt lat="48.01213" lon="-4.32981">
        <ele>98</ele>
        <time>2024-04-10T19:26:14.997Z</time>
      </trkpt>
      <trkpt lat="48.01196" lon="-4.32941">
        <ele>97.9</ele>
        <time>2024-04-10T19:26:19.979Z</time>
      </trkpt>
      <trkpt lat="48.01179" lon="-4.3292">
        <ele>97.1</ele>
        <time>2024-04-10T19:26:22.607Z</time>
      </trkpt>
      <trkpt lat="48.01159" lon="-4.329">
        <ele>96.1</ele>
        <time>2024-04-10T19:26:25.365Z</time>
      </trkpt>
      <trkpt lat="48.01132" lon="-4.32882">
        <ele>94.5</ele>
        <time>2024-04-10T19:26:28.474Z</time>
      </trkpt>
      <trkpt lat="48.01087" lon="-4.32865">
        <ele>94.8</ele>
        <time>2024-04-10T19:26:36.474Z</time>
      </trkpt>
      <trkpt lat="48.00983" lon="-4.32823">
        <ele>101.2</ele>
        <time>2024-04-10T19:27:10.852Z</time>
      </trkpt>
      <trkpt lat="48.00963" lon="-4.3281">
        <ele>103</ele>
        <time>2024-04-10T19:27:20.368Z</time>
      </trkpt>
      <trkpt lat="48.00926" lon="-4.32875">
        <ele>106.3</ele>
        <time>2024-04-10T19:27:38.205Z</time>
      </trkpt>
      <trkpt lat="48.00923" lon="-4.32879">
        <ele>106.5</ele>
        <time>2024-04-10T19:27:39.337Z</time>
      </trkpt>
      <trkpt lat="48.00852" lon="-4.33004">
        <ele>114.7</ele>
        <time>2024-04-10T19:28:22.389Z</time>
      </trkpt>
      <trkpt lat="48.00836" lon="-4.33026">
        <ele>115.8</ele>
        <time>2024-04-10T19:28:28.576Z</time>
        <extensions>
          <visugpx:TrkExtension xmlns:visugpx="https://www.visugpx.com/editgpx/">
            <visugpx:node>22</visugpx:node>
            </visugpx:TrkExtension>
        </extensions>
      </trkpt>
      <trkpt lat="48.00836" lon="-4.33026">
        <ele>115.8</ele>
        <time>2024-04-10T19:28:28.576Z</time>
      </trkpt>
      <trkpt lat="48.00818" lon="-4.33053">
        <ele>117.1</ele>
        <time>2024-04-10T19:28:35.868Z</time>
      </trkpt>
      <trkpt lat="48.00793" lon="-4.33082">
        <ele>117.9</ele>
        <time>2024-04-10T19:28:42.518Z</time>
      </trkpt>
      <trkpt lat="48.00766" lon="-4.33108">
        <ele>119.4</ele>
        <time>2024-04-10T19:28:51.218Z</time>
      </trkpt>
      <trkpt lat="48.00724" lon="-4.33141">
        <ele>121.8</ele>
        <time>2024-04-10T19:29:04.717Z</time>
      </trkpt>
      <trkpt lat="48.007" lon="-4.33158">
        <ele>122.7</ele>
        <time>2024-04-10T19:29:10.875Z</time>
      </trkpt>
      <trkpt lat="48.0066" lon="-4.33181">
        <ele>125.1</ele>
        <time>2024-04-10T19:29:23.953Z</time>
      </trkpt>
      <trkpt lat="48.0048" lon="-4.33285">
        <ele>128</ele>
        <time>2024-04-10T19:30:00.251Z</time>
      </trkpt>
      <trkpt lat="48.0038" lon="-4.33341">
        <ele>127</ele>
        <time>2024-04-10T19:30:16.108Z</time>
      </trkpt>
      <trkpt lat="48.00307" lon="-4.33386">
        <ele>125.1</ele>
        <time>2024-04-10T19:30:26.454Z</time>
      </trkpt>
      <trkpt lat="48.002" lon="-4.33475">
        <ele>121.4</ele>
        <time>2024-04-10T19:30:41.734Z</time>
      </trkpt>
      <trkpt lat="48.00149" lon="-4.33518">
        <ele>120.2</ele>
        <time>2024-04-10T19:30:49.634Z</time>
      </trkpt>
      <trkpt lat="48.00146" lon="-4.33521">
        <ele>120.2</ele>
        <time>2024-04-10T19:30:50.218Z</time>
      </trkpt>
      <trkpt lat="48.00118" lon="-4.33547">
        <ele>119.2</ele>
        <time>2024-04-10T19:30:54.328Z</time>
      </trkpt>
      <trkpt lat="48.00114" lon="-4.33549">
        <ele>119.1</ele>
        <time>2024-04-10T19:30:54.882Z</time>
      </trkpt>
      <trkpt lat="48.00106" lon="-4.33557">
        <ele>119.1</ele>
        <time>2024-04-10T19:30:56.440Z</time>
      </trkpt>
      <trkpt lat="48.00098" lon="-4.33563">
        <ele>119.3</ele>
        <time>2024-04-10T19:30:58.261Z</time>
      </trkpt>
      <trkpt lat="48.00091" lon="-4.33568">
        <ele>119.4</ele>
        <time>2024-04-10T19:30:59.688Z</time>
      </trkpt>
      <trkpt lat="48.00066" lon="-4.33585">
        <ele>120</ele>
        <time>2024-04-10T19:31:05.245Z</time>
      </trkpt>
      <trkpt lat="48.0006" lon="-4.33588">
        <ele>120</ele>
        <time>2024-04-10T19:31:06.269Z</time>
      </trkpt>
      <trkpt lat="48.00047" lon="-4.33586">
        <ele>120</ele>
        <time>2024-04-10T19:31:08.385Z</time>
      </trkpt>
      <trkpt lat="48.00031" lon="-4.33578">
        <ele>120</ele>
        <time>2024-04-10T19:31:11.116Z</time>
      </trkpt>
      <trkpt lat="48.0003" lon="-4.33577">
        <ele>120</ele>
        <time>2024-04-10T19:31:11.311Z</time>
      </trkpt>
      <trkpt lat="48.00023" lon="-4.33578">
        <ele>120.2</ele>
        <time>2024-04-10T19:31:12.842Z</time>
      </trkpt>
      <trkpt lat="48.0002" lon="-4.3358">
        <ele>120.3</ele>
        <time>2024-04-10T19:31:13.574Z</time>
      </trkpt>
      <trkpt lat="48.00011" lon="-4.33594">
        <ele>120.8</ele>
        <time>2024-04-10T19:31:16.755Z</time>
      </trkpt>
      <trkpt lat="48.00004" lon="-4.3353">
        <ele>120.9</ele>
        <time>2024-04-10T19:31:23.937Z</time>
      </trkpt>
      <trkpt lat="48.00002" lon="-4.3352">
        <ele>120.6</ele>
        <time>2024-04-10T19:31:24.729Z</time>
      </trkpt>
      <trkpt lat="48.00015" lon="-4.3355">
        <ele>120.5</ele>
        <time>2024-04-10T19:31:28.452Z</time>
      </trkpt>
      <trkpt lat="48.00016" lon="-4.33552">
        <ele>120.4</ele>
        <time>2024-04-10T19:31:28.621Z</time>
        <extensions>
          <visugpx:TrkExtension xmlns:visugpx="https://www.visugpx.com/editgpx/">
            <visugpx:node>23</visugpx:node>
            </visugpx:TrkExtension>
        </extensions>
      </trkpt>
      <trkpt lat="48.00028" lon="-4.33574">
        <ele>120</ele>
        <time>2024-04-10T19:31:31.172Z</time>
      </trkpt>
      <trkpt lat="48.0003" lon="-4.33577">
        <ele>120</ele>
        <time>2024-04-10T19:31:31.630Z</time>
      </trkpt>
      <trkpt lat="48.00023" lon="-4.33578">
        <ele>120.2</ele>
        <time>2024-04-10T19:31:33.161Z</time>
      </trkpt>
      <trkpt lat="48.0002" lon="-4.3358">
        <ele>120.3</ele>
        <time>2024-04-10T19:31:33.893Z</time>
      </trkpt>
      <trkpt lat="48.00011" lon="-4.33594">
        <ele>120.8</ele>
        <time>2024-04-10T19:31:37.074Z</time>
      </trkpt>
      <trkpt lat="48.00004" lon="-4.3353">
        <ele>120.9</ele>
        <time>2024-04-10T19:31:44.256Z</time>
      </trkpt>
      <trkpt lat="48.00002" lon="-4.3352">
        <ele>120.6</ele>
        <time>2024-04-10T19:31:45.048Z</time>
      </trkpt>
      <trkpt lat="47.99998" lon="-4.33482">
        <ele>120.1</ele>
        <time>2024-04-10T19:31:48.552Z</time>
      </trkpt>
      <trkpt lat="47.99996" lon="-4.33438">
        <ele>119.1</ele>
        <time>2024-04-10T19:31:52.132Z</time>
      </trkpt>
      <trkpt lat="47.99996" lon="-4.33381">
        <ele>117.7</ele>
        <time>2024-04-10T19:31:56.662Z</time>
      </trkpt>
      <trkpt lat="47.99992" lon="-4.33364">
        <ele>117.1</ele>
        <time>2024-04-10T19:31:57.967Z</time>
      </trkpt>
      <trkpt lat="47.99991" lon="-4.33363">
        <ele>117.1</ele>
        <time>2024-04-10T19:31:58.162Z</time>
      </trkpt>
      <trkpt lat="47.99987" lon="-4.33358">
        <ele>117.1</ele>
        <time>2024-04-10T19:31:59.006Z</time>
      </trkpt>
      <trkpt lat="47.99987" lon="-4.33351">
        <ele>117.2</ele>
        <time>2024-04-10T19:31:59.949Z</time>
      </trkpt>
      <trkpt lat="47.99989" lon="-4.33346">
        <ele>117.3</ele>
        <time>2024-04-10T19:32:00.771Z</time>
      </trkpt>
      <trkpt lat="47.99992" lon="-4.33342">
        <ele>117.5</ele>
        <time>2024-04-10T19:32:01.903Z</time>
      </trkpt>
      <trkpt lat="47.99996" lon="-4.33327">
        <ele>118.1</ele>
        <time>2024-04-10T19:32:05.180Z</time>
      </trkpt>
      <trkpt lat="48.00001" lon="-4.3309">
        <ele>121.2</ele>
        <time>2024-04-10T19:32:36.487Z</time>
      </trkpt>
      <trkpt lat="48.00001" lon="-4.33085">
        <ele>121.1</ele>
        <time>2024-04-10T19:32:36.905Z</time>
      </trkpt>
      <trkpt lat="48.00001" lon="-4.33076">
        <ele>121</ele>
        <time>2024-04-10T19:32:37.745Z</time>
      </trkpt>
      <trkpt lat="48.00004" lon="-4.32896">
        <ele>121</ele>
        <time>2024-04-10T19:32:57.249Z</time>
      </trkpt>
      <trkpt lat="48.00006" lon="-4.32807">
        <ele>121.2</ele>
        <time>2024-04-10T19:33:07.212Z</time>
      </trkpt>
      <trkpt lat="48.00007" lon="-4.32755">
        <ele>120.4</ele>
        <time>2024-04-10T19:33:11.813Z</time>
      </trkpt>
      <trkpt lat="48.00001" lon="-4.32568">
        <ele>114.4</ele>
        <time>2024-04-10T19:33:25.547Z</time>
      </trkpt>
      <trkpt lat="47.99997" lon="-4.32495">
        <ele>111.1</ele>
        <time>2024-04-10T19:33:30.308Z</time>
      </trkpt>
      <trkpt lat="47.99987" lon="-4.32292">
        <ele>110.9</ele>
        <time>2024-04-10T19:33:52.053Z</time>
      </trkpt>
      <trkpt lat="47.99982" lon="-4.32239">
        <ele>111.8</ele>
        <time>2024-04-10T19:33:59.566Z</time>
      </trkpt>
      <trkpt lat="47.99974" lon="-4.32187">
        <ele>111.5</ele>
        <time>2024-04-10T19:34:04.913Z</time>
      </trkpt>
      <trkpt lat="47.99966" lon="-4.32144">
        <ele>111.3</ele>
        <time>2024-04-10T19:34:09.456Z</time>
      </trkpt>
      <trkpt lat="47.99954" lon="-4.32098">
        <ele>111.7</ele>
        <time>2024-04-10T19:34:15.484Z</time>
      </trkpt>
      <trkpt lat="47.99909" lon="-4.31988">
        <ele>111.4</ele>
        <time>2024-04-10T19:34:29.001Z</time>
      </trkpt>
      <trkpt lat="47.99901" lon="-4.31966">
        <ele>111.2</ele>
        <time>2024-04-10T19:34:31.433Z</time>
      </trkpt>
      <trkpt lat="47.99895" lon="-4.31941">
        <ele>109.9</ele>
        <time>2024-04-10T19:34:33.160Z</time>
      </trkpt>
      <trkpt lat="47.9989" lon="-4.31908">
        <ele>108.7</ele>
        <time>2024-04-10T19:34:35.558Z</time>
      </trkpt>
      <trkpt lat="47.99882" lon="-4.31848">
        <ele>108.8</ele>
        <time>2024-04-10T19:34:42.342Z</time>
      </trkpt>
      <trkpt lat="47.99874" lon="-4.31734">
        <ele>108.6</ele>
        <time>2024-04-10T19:34:54.457Z</time>
      </trkpt>
      <trkpt lat="47.99869" lon="-4.31637">
        <ele>108.7</ele>
        <time>2024-04-10T19:35:05.152Z</time>
      </trkpt>
      <trkpt lat="47.99861" lon="-4.31495">
        <ele>107</ele>
        <time>2024-04-10T19:35:18.307Z</time>
      </trkpt>
      <trkpt lat="47.99853" lon="-4.31284">
        <ele>106</ele>
        <time>2024-04-10T19:35:39.745Z</time>
      </trkpt>
      <trkpt lat="47.99853" lon="-4.31225">
        <ele>105.4</ele>
        <time>2024-04-10T19:35:45.315Z</time>
      </trkpt>
      <trkpt lat="47.99857" lon="-4.3115">
        <ele>106.1</ele>
        <time>2024-04-10T19:35:54.674Z</time>
      </trkpt>
      <trkpt lat="47.99862" lon="-4.31104">
        <ele>106.2</ele>
        <time>2024-04-10T19:35:59.880Z</time>
      </trkpt>
      <trkpt lat="47.99884" lon="-4.30941">
        <ele>108.9</ele>
        <time>2024-04-10T19:36:22.999Z</time>
      </trkpt>
      <trkpt lat="47.99886" lon="-4.30911">
        <ele>108.1</ele>
        <time>2024-04-10T19:36:25.344Z</time>
      </trkpt>
      <trkpt lat="47.99887" lon="-4.3081">
        <ele>107.1</ele>
        <time>2024-04-10T19:36:34.913Z</time>
      </trkpt>
      <trkpt lat="47.99897" lon="-4.30629">
        <ele>105.7</ele>
        <time>2024-04-10T19:36:52.617Z</time>
      </trkpt>
      <trkpt lat="47.99897" lon="-4.30629">
        <ele>105.7</ele>
        <time>2024-04-10T19:36:52.617Z</time>
        <extensions>
          <visugpx:TrkExtension xmlns:visugpx="https://www.visugpx.com/editgpx/">
            <visugpx:node>24</visugpx:node>
            </visugpx:TrkExtension>
        </extensions>
      </trkpt>
      <trkpt lat="47.99903" lon="-4.30517">
        <ele>105.5</ele>
        <time>2024-04-10T19:37:04.487Z</time>
      </trkpt>
      <trkpt lat="47.99912" lon="-4.30432">
        <ele>106.2</ele>
        <time>2024-04-10T19:37:15.000Z</time>
      </trkpt>
      <trkpt lat="47.99922" lon="-4.30353">
        <ele>106</ele>
        <time>2024-04-10T19:37:23.411Z</time>
      </trkpt>
      <trkpt lat="47.9994" lon="-4.30241">
        <ele>106.2</ele>
        <time>2024-04-10T19:37:36.203Z</time>
      </trkpt>
      <trkpt lat="47.9998" lon="-4.3005">
        <ele>107.9</ele>
        <time>2024-04-10T19:38:00.788Z</time>
      </trkpt>
      <trkpt lat="47.99985" lon="-4.30015">
        <ele>108.3</ele>
        <time>2024-04-10T19:38:05.373Z</time>
      </trkpt>
      <trkpt lat="47.99987" lon="-4.2998">
        <ele>108.5</ele>
        <time>2024-04-10T19:38:09.508Z</time>
      </trkpt>
      <trkpt lat="47.99985" lon="-4.29927">
        <ele>109.5</ele>
        <time>2024-04-10T19:38:17.217Z</time>
      </trkpt>
      <trkpt lat="47.9998" lon="-4.2971">
        <ele>111.7</ele>
        <time>2024-04-10T19:38:44.577Z</time>
      </trkpt>
      <trkpt lat="47.99975" lon="-4.29644">
        <ele>112</ele>
        <time>2024-04-10T19:38:52.260Z</time>
      </trkpt>
      <trkpt lat="47.99926" lon="-4.29362">
        <ele>115</ele>
        <time>2024-04-10T19:39:29.069Z</time>
      </trkpt>
      <trkpt lat="47.99913" lon="-4.29307">
        <ele>115</ele>
        <time>2024-04-10T19:39:35.387Z</time>
      </trkpt>
      <trkpt lat="47.99902" lon="-4.29267">
        <ele>116.2</ele>
        <time>2024-04-10T19:39:42.734Z</time>
      </trkpt>
      <trkpt lat="47.9989" lon="-4.29234">
        <ele>116.6</ele>
        <time>2024-04-10T19:39:47.506Z</time>
      </trkpt>
      <trkpt lat="47.99865" lon="-4.29178">
        <ele>117.6</ele>
        <time>2024-04-10T19:39:56.655Z</time>
      </trkpt>
      <trkpt lat="47.99842" lon="-4.29138">
        <ele>118</ele>
        <time>2024-04-10T19:40:03.044Z</time>
      </trkpt>
      <trkpt lat="47.99805" lon="-4.29061">
        <ele>120</ele>
        <time>2024-04-10T19:40:17.353Z</time>
      </trkpt>
      <trkpt lat="47.99799" lon="-4.29041">
        <ele>120.5</ele>
        <time>2024-04-10T19:40:20.762Z</time>
      </trkpt>
      <trkpt lat="47.99784" lon="-4.28985">
        <ele>122</ele>
        <time>2024-04-10T19:40:30.490Z</time>
      </trkpt>
      <trkpt lat="47.9978" lon="-4.28956">
        <ele>122.6</ele>
        <time>2024-04-10T19:40:34.896Z</time>
      </trkpt>
      <trkpt lat="47.99779" lon="-4.28921">
        <ele>123</ele>
        <time>2024-04-10T19:40:39.401Z</time>
      </trkpt>
      <trkpt lat="47.99779" lon="-4.28915">
        <ele>123</ele>
        <time>2024-04-10T19:40:40.051Z</time>
      </trkpt>
      <trkpt lat="47.99788" lon="-4.28765">
        <ele>125</ele>
        <time>2024-04-10T19:41:00.002Z</time>
      </trkpt>
      <trkpt lat="47.998" lon="-4.28661">
        <ele>125.6</ele>
        <time>2024-04-10T19:41:12.425Z</time>
      </trkpt>
      <trkpt lat="47.99806" lon="-4.28616">
        <ele>126</ele>
        <time>2024-04-10T19:41:18.081Z</time>
      </trkpt>
      <trkpt lat="47.99812" lon="-4.28587">
        <ele>125.3</ele>
        <time>2024-04-10T19:41:20.534Z</time>
      </trkpt>
      <trkpt lat="47.9982" lon="-4.28552">
        <ele>125</ele>
        <time>2024-04-10T19:41:24.121Z</time>
      </trkpt>
      <trkpt lat="47.99835" lon="-4.28503">
        <ele>126</ele>
        <time>2024-04-10T19:41:31.909Z</time>
      </trkpt>
      <trkpt lat="47.99899" lon="-4.28301">
        <ele>132.5</ele>
        <time>2024-04-10T19:42:10.819Z</time>
      </trkpt>
      <trkpt lat="47.99909" lon="-4.2825">
        <ele>134</ele>
        <time>2024-04-10T19:42:19.927Z</time>
      </trkpt>
      <trkpt lat="47.9992" lon="-4.28114">
        <ele>134</ele>
        <time>2024-04-10T19:42:34.767Z</time>
      </trkpt>
      <trkpt lat="47.99926" lon="-4.28078">
        <ele>133.8</ele>
        <time>2024-04-10T19:42:38.496Z</time>
      </trkpt>
      <trkpt lat="47.99947" lon="-4.27982">
        <ele>130.4</ele>
        <time>2024-04-10T19:42:45.785Z</time>
      </trkpt>
      <trkpt lat="47.99959" lon="-4.27916">
        <ele>129</ele>
        <time>2024-04-10T19:42:51.479Z</time>
      </trkpt>
      <trkpt lat="47.99984" lon="-4.27757">
        <ele>128.1</ele>
        <time>2024-04-10T19:43:07.873Z</time>
      </trkpt>
      <trkpt lat="47.99991" lon="-4.27696">
        <ele>129.3</ele>
        <time>2024-04-10T19:43:16.945Z</time>
      </trkpt>
      <trkpt lat="48.00003" lon="-4.2746">
        <ele>130.2</ele>
        <time>2024-04-10T19:43:44.034Z</time>
      </trkpt>
      <trkpt lat="48.00003" lon="-4.27415">
        <ele>131.3</ele>
        <time>2024-04-10T19:43:51.237Z</time>
      </trkpt>
      <trkpt lat="47.99999" lon="-4.27384">
        <ele>131.9</ele>
        <time>2024-04-10T19:43:55.835Z</time>
      </trkpt>
      <trkpt lat="47.99995" lon="-4.27367">
        <ele>131.6</ele>
        <time>2024-04-10T19:43:57.404Z</time>
      </trkpt>
      <trkpt lat="47.99963" lon="-4.27218">
        <ele>135.4</ele>
        <time>2024-04-10T19:44:22.381Z</time>
      </trkpt>
      <trkpt lat="47.99949" lon="-4.27157">
        <ele>137.3</ele>
        <time>2024-04-10T19:44:33.687Z</time>
      </trkpt>
      <trkpt lat="47.99936" lon="-4.27128">
        <ele>137.8</ele>
        <time>2024-04-10T19:44:38.390Z</time>
      </trkpt>
      <trkpt lat="47.99929" lon="-4.27124">
        <ele>137.7</ele>
        <time>2024-04-10T19:44:39.465Z</time>
      </trkpt>
      <trkpt lat="47.99927" lon="-4.27121">
        <ele>137.8</ele>
        <time>2024-04-10T19:44:40.133Z</time>
      </trkpt>
      <trkpt lat="47.99925" lon="-4.27116">
        <ele>137.9</ele>
        <time>2024-04-10T19:44:40.955Z</time>
      </trkpt>
      <trkpt lat="47.99924" lon="-4.27106">
        <ele>138</ele>
        <time>2024-04-10T19:44:42.225Z</time>
      </trkpt>
      <trkpt lat="47.99925" lon="-4.27101">
        <ele>138.1</ele>
        <time>2024-04-10T19:44:42.987Z</time>
      </trkpt>
      <trkpt lat="47.99929" lon="-4.27093">
        <ele>138.3</ele>
        <time>2024-04-10T19:44:44.467Z</time>
      </trkpt>
      <trkpt lat="47.99929" lon="-4.27069">
        <ele>139</ele>
        <time>2024-04-10T19:44:48.651Z</time>
      </trkpt>
      <trkpt lat="47.99885" lon="-4.26746">
        <ele>140.6</ele>
        <time>2024-04-10T19:45:26.971Z</time>
      </trkpt>
      <trkpt lat="47.99876" lon="-4.26574">
        <ele>135.6</ele>
        <time>2024-04-10T19:45:40.040Z</time>
      </trkpt>
      <trkpt lat="47.99875" lon="-4.26544">
        <ele>134.1</ele>
        <time>2024-04-10T19:45:41.993Z</time>
      </trkpt>
      <trkpt lat="47.99869" lon="-4.26371">
        <ele>132.2</ele>
        <time>2024-04-10T19:45:58.181Z</time>
      </trkpt>
      <trkpt lat="47.99861" lon="-4.26147">
        <ele>137.7</ele>
        <time>2024-04-10T19:46:34.135Z</time>
      </trkpt>
      <trkpt lat="47.99855" lon="-4.26095">
        <ele>140.4</ele>
        <time>2024-04-10T19:46:48.321Z</time>
      </trkpt>
      <trkpt lat="47.99843" lon="-4.26031">
        <ele>142.2</ele>
        <time>2024-04-10T19:46:59.476Z</time>
      </trkpt>
      <trkpt lat="47.99833" lon="-4.25989">
        <ele>142.4</ele>
        <time>2024-04-10T19:47:04.630Z</time>
      </trkpt>
      <trkpt lat="47.99818" lon="-4.25942">
        <ele>144</ele>
        <time>2024-04-10T19:47:13.977Z</time>
      </trkpt>
      <trkpt lat="47.99798" lon="-4.25892">
        <ele>144.4</ele>
        <time>2024-04-10T19:47:20.957Z</time>
      </trkpt>
      <trkpt lat="47.99689" lon="-4.25684">
        <ele>142.7</ele>
        <time>2024-04-10T19:47:47.150Z</time>
      </trkpt>
      <trkpt lat="47.99669" lon="-4.25636">
        <ele>143</ele>
        <time>2024-04-10T19:47:53.768Z</time>
      </trkpt>
      <trkpt lat="47.99654" lon="-4.25593">
        <ele>141.6</ele>
        <time>2024-04-10T19:47:57.446Z</time>
      </trkpt>
      <trkpt lat="47.99639" lon="-4.25545">
        <ele>142</ele>
        <time>2024-04-10T19:48:03.860Z</time>
      </trkpt>
      <trkpt lat="47.99621" lon="-4.25465">
        <ele>141</ele>
        <time>2024-04-10T19:48:11.660Z</time>
      </trkpt>
      <trkpt lat="47.99617" lon="-4.2544">
        <ele>141</ele>
        <time>2024-04-10T19:48:14.445Z</time>
      </trkpt>
      <trkpt lat="47.99572" lon="-4.25173">
        <ele>142.4</ele>
        <time>2024-04-10T19:48:46.566Z</time>
      </trkpt>
      <trkpt lat="47.99567" lon="-4.25148">
        <ele>143</ele>
        <time>2024-04-10T19:48:50.637Z</time>
      </trkpt>
      <trkpt lat="47.99555" lon="-4.25084">
        <ele>143</ele>
        <time>2024-04-10T19:48:57.837Z</time>
      </trkpt>
      <trkpt lat="47.99539" lon="-4.24983">
        <ele>144.2</ele>
        <time>2024-04-10T19:49:11.215Z</time>
      </trkpt>
      <trkpt lat="47.99528" lon="-4.24901">
        <ele>145</ele>
        <time>2024-04-10T19:49:21.661Z</time>
      </trkpt>
      <trkpt lat="47.99519" lon="-4.24805">
        <ele>146</ele>
        <time>2024-04-10T19:49:33.912Z</time>
      </trkpt>
      <trkpt lat="47.99519" lon="-4.24732">
        <ele>146.6</ele>
        <time>2024-04-10T19:49:42.843Z</time>
      </trkpt>
      <trkpt lat="47.99522" lon="-4.24666">
        <ele>145.4</ele>
        <time>2024-04-10T19:49:48.503Z</time>
      </trkpt>
      <trkpt lat="47.99541" lon="-4.24425">
        <ele>142.1</ele>
        <time>2024-04-10T19:50:10.443Z</time>
      </trkpt>
      <trkpt lat="47.99543" lon="-4.24375">
        <ele>142.1</ele>
        <time>2024-04-10T19:50:15.869Z</time>
      </trkpt>
      <trkpt lat="47.99542" lon="-4.24277">
        <ele>144.5</ele>
        <time>2024-04-10T19:50:31.570Z</time>
      </trkpt>
      <trkpt lat="47.99542" lon="-4.24262">
        <ele>145.1</ele>
        <time>2024-04-10T19:50:34.789Z</time>
      </trkpt>
      <trkpt lat="47.9954" lon="-4.24212">
        <ele>147.4</ele>
        <time>2024-04-10T19:50:46.891Z</time>
      </trkpt>
      <trkpt lat="47.99508" lon="-4.2385">
        <ele>151</ele>
        <time>2024-04-10T19:51:32.710Z</time>
        <extensions>
          <visugpx:TrkExtension xmlns:visugpx="https://www.visugpx.com/editgpx/">
            <visugpx:node>25</visugpx:node>
            </visugpx:TrkExtension>
        </extensions>
      </trkpt>
      <trkpt lat="47.99507" lon="-4.23836">
        <ele>150.2</ele>
        <time>2024-04-10T19:51:33.625Z</time>
      </trkpt>
      <trkpt lat="47.99506" lon="-4.23829">
        <ele>150</ele>
        <time>2024-04-10T19:51:34.174Z</time>
      </trkpt>
      <trkpt lat="47.99497" lon="-4.23736">
        <ele>149.9</ele>
        <time>2024-04-10T19:51:44.202Z</time>
      </trkpt>
      <trkpt lat="47.99483" lon="-4.23645">
        <ele>148.5</ele>
        <time>2024-04-10T19:51:52.500Z</time>
      </trkpt>
      <trkpt lat="47.99463" lon="-4.23544">
        <ele>146.3</ele>
        <time>2024-04-10T19:52:01.227Z</time>
      </trkpt>
      <trkpt lat="47.99442" lon="-4.23463">
        <ele>146.4</ele>
        <time>2024-04-10T19:52:10.794Z</time>
      </trkpt>
      <trkpt lat="47.99428" lon="-4.23459">
        <ele>145</ele>
        <time>2024-04-10T19:52:12.178Z</time>
      </trkpt>
      <trkpt lat="47.99421" lon="-4.2345">
        <ele>144.3</ele>
        <time>2024-04-10T19:52:13.075Z</time>
      </trkpt>
      <trkpt lat="47.99394" lon="-4.23374">
        <ele>142.4</ele>
        <time>2024-04-10T19:52:20.108Z</time>
      </trkpt>
      <trkpt lat="47.99379" lon="-4.23322">
        <ele>140.9</ele>
        <time>2024-04-10T19:52:24.515Z</time>
      </trkpt>
      <trkpt lat="47.99373" lon="-4.23286">
        <ele>139.9</ele>
        <time>2024-04-10T19:52:27.387Z</time>
      </trkpt>
      <trkpt lat="47.99359" lon="-4.23194">
        <ele>139.1</ele>
        <time>2024-04-10T19:52:36.493Z</time>
      </trkpt>
      <trkpt lat="47.99373" lon="-4.23182">
        <ele>139.4</ele>
        <time>2024-04-10T19:52:39.645Z</time>
      </trkpt>
      <trkpt lat="47.99359" lon="-4.23125">
        <ele>138.1</ele>
        <time>2024-04-10T19:52:44.646Z</time>
      </trkpt>
      <trkpt lat="47.99342" lon="-4.23036">
        <ele>135.4</ele>
        <time>2024-04-10T19:52:51.644Z</time>
      </trkpt>
      <trkpt lat="47.99329" lon="-4.2296">
        <ele>132.7</ele>
        <time>2024-04-10T19:52:57.263Z</time>
      </trkpt>
      <trkpt lat="47.99326" lon="-4.22946">
        <ele>132.3</ele>
        <time>2024-04-10T19:52:58.398Z</time>
      </trkpt>
      <trkpt lat="47.99269" lon="-4.22576">
        <ele>128.9</ele>
        <time>2024-04-10T19:53:34.814Z</time>
      </trkpt>
      <trkpt lat="47.99234" lon="-4.22326">
        <ele>131.7</ele>
        <time>2024-04-10T19:54:07.425Z</time>
      </trkpt>
      <trkpt lat="47.99222" lon="-4.22204">
        <ele>129</ele>
        <time>2024-04-10T19:54:17.526Z</time>
      </trkpt>
      <trkpt lat="47.99211" lon="-4.22026">
        <ele>126.2</ele>
        <time>2024-04-10T19:54:33.284Z</time>
      </trkpt>
      <trkpt lat="47.99209" lon="-4.21901">
        <ele>124.2</ele>
        <time>2024-04-10T19:54:44.262Z</time>
      </trkpt>
      <trkpt lat="47.99209" lon="-4.21798">
        <ele>122.5</ele>
        <time>2024-04-10T19:54:53.249Z</time>
      </trkpt>
      <trkpt lat="47.99215" lon="-4.21655">
        <ele>121.7</ele>
        <time>2024-04-10T19:55:07.619Z</time>
      </trkpt>
      <trkpt lat="47.99219" lon="-4.21529">
        <ele>123</ele>
        <time>2024-04-10T19:55:23.559Z</time>
      </trkpt>
      <trkpt lat="47.99219" lon="-4.21439">
        <ele>124</ele>
        <time>2024-04-10T19:55:35.078Z</time>
      </trkpt>
      <trkpt lat="47.99204" lon="-4.21226">
        <ele>121.5</ele>
        <time>2024-04-10T19:55:54.917Z</time>
      </trkpt>
      <trkpt lat="47.99203" lon="-4.21167">
        <ele>121.2</ele>
        <time>2024-04-10T19:56:00.876Z</time>
      </trkpt>
      <trkpt lat="47.99204" lon="-4.21111">
        <ele>119.1</ele>
        <time>2024-04-10T19:56:04.769Z</time>
      </trkpt>
      <trkpt lat="47.99214" lon="-4.21032">
        <ele>117.4</ele>
        <time>2024-04-10T19:56:11.412Z</time>
      </trkpt>
      <trkpt lat="47.99227" lon="-4.20982">
        <ele>116.8</ele>
        <time>2024-04-10T19:56:16.411Z</time>
      </trkpt>
      <trkpt lat="47.99297" lon="-4.20772">
        <ele>115.1</ele>
        <time>2024-04-10T19:56:39.424Z</time>
      </trkpt>
      <trkpt lat="47.99363" lon="-4.20581">
        <ele>114</ele>
        <time>2024-04-10T19:57:01.118Z</time>
      </trkpt>
      <trkpt lat="47.99483" lon="-4.2029">
        <ele>112.2</ele>
        <time>2024-04-10T19:57:35.544Z</time>
      </trkpt>
      <trkpt lat="47.99569" lon="-4.20085">
        <ele>112.5</ele>
        <time>2024-04-10T19:58:02.224Z</time>
      </trkpt>
      <trkpt lat="47.996" lon="-4.20017">
        <ele>114.3</ele>
        <time>2024-04-10T19:58:14.813Z</time>
      </trkpt>
      <trkpt lat="47.99635" lon="-4.19956">
        <ele>119</ele>
        <time>2024-04-10T19:58:39.861Z</time>
      </trkpt>
      <trkpt lat="47.99724" lon="-4.19825">
        <ele>126.6</ele>
        <time>2024-04-10T19:59:20.488Z</time>
      </trkpt>
      <trkpt lat="47.99757" lon="-4.19774">
        <ele>129.6</ele>
        <time>2024-04-10T19:59:36.420Z</time>
      </trkpt>
      <trkpt lat="47.9979" lon="-4.19713">
        <ele>132.6</ele>
        <time>2024-04-10T19:59:52.680Z</time>
      </trkpt>
      <trkpt lat="47.99811" lon="-4.19665">
        <ele>133.5</ele>
        <time>2024-04-10T20:00:00.582Z</time>
      </trkpt>
      <trkpt lat="47.99831" lon="-4.19608">
        <ele>135</ele>
        <time>2024-04-10T20:00:10.679Z</time>
      </trkpt>
      <trkpt lat="47.99835" lon="-4.19595">
        <ele>135.1</ele>
        <time>2024-04-10T20:00:12.397Z</time>
      </trkpt>
      <trkpt lat="47.99841" lon="-4.1957">
        <ele>135.6</ele>
        <time>2024-04-10T20:00:16.253Z</time>
      </trkpt>
      <trkpt lat="47.99863" lon="-4.19488">
        <ele>136.5</ele>
        <time>2024-04-10T20:00:27.395Z</time>
      </trkpt>
      <trkpt lat="47.99861" lon="-4.19467">
        <ele>136.8</ele>
        <time>2024-04-10T20:00:30.245Z</time>
      </trkpt>
      <trkpt lat="47.99857" lon="-4.1946">
        <ele>136.2</ele>
        <time>2024-04-10T20:00:30.843Z</time>
      </trkpt>
      <trkpt lat="47.99855" lon="-4.19451">
        <ele>135.9</ele>
        <time>2024-04-10T20:00:31.542Z</time>
      </trkpt>
      <trkpt lat="47.99854" lon="-4.19443">
        <ele>135.7</ele>
        <time>2024-04-10T20:00:32.189Z</time>
      </trkpt>
      <trkpt lat="47.99858" lon="-4.19427">
        <ele>135.9</ele>
        <time>2024-04-10T20:00:34.395Z</time>
      </trkpt>
      <trkpt lat="47.99863" lon="-4.19419">
        <ele>136</ele>
        <time>2024-04-10T20:00:35.753Z</time>
      </trkpt>
      <trkpt lat="47.99871" lon="-4.19397">
        <ele>135.5</ele>
        <time>2024-04-10T20:00:37.850Z</time>
      </trkpt>
      <trkpt lat="47.99888" lon="-4.19252">
        <ele>134.9</ele>
        <time>2024-04-10T20:00:52.916Z</time>
      </trkpt>
      <trkpt lat="47.99892" lon="-4.19228">
        <ele>134.3</ele>
        <time>2024-04-10T20:00:54.889Z</time>
      </trkpt>
      <trkpt lat="47.99904" lon="-4.19168">
        <ele>133.6</ele>
        <time>2024-04-10T20:01:00.725Z</time>
      </trkpt>
      <trkpt lat="47.9993" lon="-4.19072">
        <ele>137.2</ele>
        <time>2024-04-10T20:01:20.789Z</time>
      </trkpt>
      <trkpt lat="47.99962" lon="-4.18982">
        <ele>138.2</ele>
        <time>2024-04-10T20:01:33.568Z</time>
      </trkpt>
      <trkpt lat="47.99981" lon="-4.18918">
        <ele>138</ele>
        <time>2024-04-10T20:01:40.855Z</time>
        <extensions>
          <visugpx:TrkExtension xmlns:visugpx="https://www.visugpx.com/editgpx/">
            <visugpx:node>26</visugpx:node>
            </visugpx:TrkExtension>
        </extensions>
      </trkpt>
      <trkpt lat="47.99987" lon="-4.18898">
        <ele>137.3</ele>
        <time>2024-04-10T20:01:42.465Z</time>
      </trkpt>
      <trkpt lat="48.00045" lon="-4.18669">
        <ele>135.6</ele>
        <time>2024-04-10T20:02:06.575Z</time>
      </trkpt>
      <trkpt lat="48.00081" lon="-4.1852">
        <ele>136</ele>
        <time>2024-04-10T20:02:24.370Z</time>
      </trkpt>
      <trkpt lat="48.0016" lon="-4.18026">
        <ele>144.3</ele>
        <time>2024-04-10T20:03:35.106Z</time>
      </trkpt>
      <trkpt lat="48.00175" lon="-4.17924">
        <ele>146.7</ele>
        <time>2024-04-10T20:03:51.395Z</time>
      </trkpt>
      <trkpt lat="48.00181" lon="-4.17858">
        <ele>147.5</ele>
        <time>2024-04-10T20:04:00.041Z</time>
      </trkpt>
      <trkpt lat="48.00184" lon="-4.1776">
        <ele>149.6</ele>
        <time>2024-04-10T20:04:14.928Z</time>
      </trkpt>
      <trkpt lat="48.00182" lon="-4.17718">
        <ele>150</ele>
        <time>2024-04-10T20:04:20.182Z</time>
      </trkpt>
      <trkpt lat="48.00172" lon="-4.1762">
        <ele>148.5</ele>
        <time>2024-04-10T20:04:28.975Z</time>
      </trkpt>
      <trkpt lat="48.00161" lon="-4.17517">
        <ele>144.2</ele>
        <time>2024-04-10T20:04:35.969Z</time>
      </trkpt>
      <trkpt lat="48.00157" lon="-4.17495">
        <ele>143.1</ele>
        <time>2024-04-10T20:04:37.451Z</time>
      </trkpt>
      <trkpt lat="48.00149" lon="-4.17465">
        <ele>141.2</ele>
        <time>2024-04-10T20:04:39.550Z</time>
      </trkpt>
      <trkpt lat="48.0009" lon="-4.17281">
        <ele>136.4</ele>
        <time>2024-04-10T20:04:55.954Z</time>
      </trkpt>
      <trkpt lat="48.00088" lon="-4.17274">
        <ele>136.3</ele>
        <time>2024-04-10T20:04:56.646Z</time>
      </trkpt>
      <trkpt lat="48.00033" lon="-4.17092">
        <ele>130.6</ele>
        <time>2024-04-10T20:05:11.843Z</time>
      </trkpt>
      <trkpt lat="48.00003" lon="-4.16955">
        <ele>126.2</ele>
        <time>2024-04-10T20:05:22.587Z</time>
      </trkpt>
      <trkpt lat="48" lon="-4.16946">
        <ele>125.1</ele>
        <time>2024-04-10T20:05:23.240Z</time>
        <extensions>
          <visugpx:TrkExtension xmlns:visugpx="https://www.visugpx.com/editgpx/">
            <visugpx:node>27</visugpx:node>
            </visugpx:TrkExtension>
        </extensions>
      </trkpt>
      <trkpt lat="47.99975" lon="-4.16864">
        <ele>121.5</ele>
        <time>2024-04-10T20:05:29.355Z</time>
      </trkpt>
      <trkpt lat="47.99964" lon="-4.16813">
        <ele>119.7</ele>
        <time>2024-04-10T20:05:33.225Z</time>
      </trkpt>
      <trkpt lat="47.99924" lon="-4.16561">
        <ele>110</ele>
        <time>2024-04-10T20:05:51.227Z</time>
      </trkpt>
      <trkpt lat="47.99913" lon="-4.16494">
        <ele>107.5</ele>
        <time>2024-04-10T20:05:56.080Z</time>
      </trkpt>
      <trkpt lat="47.99908" lon="-4.16433">
        <ele>106</ele>
        <time>2024-04-10T20:06:00.972Z</time>
      </trkpt>
      <trkpt lat="47.99907" lon="-4.16384">
        <ele>104.2</ele>
        <time>2024-04-10T20:06:04.404Z</time>
      </trkpt>
      <trkpt lat="47.99907" lon="-4.16365">
        <ele>104</ele>
        <time>2024-04-10T20:06:06.190Z</time>
      </trkpt>
      <trkpt lat="47.9991" lon="-4.16282">
        <ele>103.5</ele>
        <time>2024-04-10T20:06:14.477Z</time>
      </trkpt>
      <trkpt lat="47.99917" lon="-4.16187">
        <ele>100.5</ele>
        <time>2024-04-10T20:06:21.536Z</time>
      </trkpt>
      <trkpt lat="47.9992" lon="-4.16149">
        <ele>99</ele>
        <time>2024-04-10T20:06:24.151Z</time>
      </trkpt>
      <trkpt lat="47.99926" lon="-4.16117">
        <ele>98.1</ele>
        <time>2024-04-10T20:06:26.721Z</time>
      </trkpt>
      <trkpt lat="47.99938" lon="-4.1608">
        <ele>96</ele>
        <time>2024-04-10T20:06:29.393Z</time>
      </trkpt>
      <trkpt lat="47.99955" lon="-4.16046">
        <ele>94.7</ele>
        <time>2024-04-10T20:06:32.553Z</time>
      </trkpt>
      <trkpt lat="47.99984" lon="-4.16002">
        <ele>92.5</ele>
        <time>2024-04-10T20:06:36.923Z</time>
      </trkpt>
      <trkpt lat="48.00015" lon="-4.15965">
        <ele>90.1</ele>
        <time>2024-04-10T20:06:40.927Z</time>
      </trkpt>
      <trkpt lat="48.00091" lon="-4.15888">
        <ele>86.5</ele>
        <time>2024-04-10T20:06:51.633Z</time>
      </trkpt>
      <trkpt lat="48.00106" lon="-4.15871">
        <ele>85.7</ele>
        <time>2024-04-10T20:06:53.777Z</time>
      </trkpt>
      <trkpt lat="48.00115" lon="-4.15859">
        <ele>85.1</ele>
        <time>2024-04-10T20:06:55.082Z</time>
      </trkpt>
      <trkpt lat="48.00132" lon="-4.1583">
        <ele>85.7</ele>
        <time>2024-04-10T20:07:00.383Z</time>
      </trkpt>
      <trkpt lat="48.00144" lon="-4.15798">
        <ele>85.9</ele>
        <time>2024-04-10T20:07:04.686Z</time>
      </trkpt>
      <trkpt lat="48.00152" lon="-4.15763">
        <ele>87.3</ele>
        <time>2024-04-10T20:07:12.294Z</time>
      </trkpt>
      <trkpt lat="48.00151" lon="-4.15742">
        <ele>88.3</ele>
        <time>2024-04-10T20:07:17.546Z</time>
      </trkpt>
      <trkpt lat="48.00144" lon="-4.15727">
        <ele>88.8</ele>
        <time>2024-04-10T20:07:20.630Z</time>
      </trkpt>
      <trkpt lat="48.00142" lon="-4.15718">
        <ele>89</ele>
        <time>2024-04-10T20:07:22.061Z</time>
      </trkpt>
      <trkpt lat="48.00142" lon="-4.157">
        <ele>89</ele>
        <time>2024-04-10T20:07:24.011Z</time>
      </trkpt>
      <trkpt lat="48.00145" lon="-4.15689">
        <ele>89</ele>
        <time>2024-04-10T20:07:25.298Z</time>
      </trkpt>
      <trkpt lat="48.00149" lon="-4.15679">
        <ele>89</ele>
        <time>2024-04-10T20:07:26.560Z</time>
      </trkpt>
      <trkpt lat="48.00154" lon="-4.15672">
        <ele>89</ele>
        <time>2024-04-10T20:07:27.669Z</time>
      </trkpt>
      <trkpt lat="48.00165" lon="-4.15664">
        <ele>89.5</ele>
        <time>2024-04-10T20:07:30.752Z</time>
      </trkpt>
      <trkpt lat="48.0017" lon="-4.15663">
        <ele>89.6</ele>
        <time>2024-04-10T20:07:31.751Z</time>
      </trkpt>
      <trkpt lat="48.00176" lon="-4.15652">
        <ele>91.1</ele>
        <time>2024-04-10T20:07:38.339Z</time>
      </trkpt>
      <trkpt lat="48.00181" lon="-4.15639">
        <ele>92.4</ele>
        <time>2024-04-10T20:07:45.261Z</time>
      </trkpt>
      <trkpt lat="48.00181" lon="-4.15622">
        <ele>92.8</ele>
        <time>2024-04-10T20:07:47.938Z</time>
      </trkpt>
      <trkpt lat="48.00178" lon="-4.15609">
        <ele>93.2</ele>
        <time>2024-04-10T20:07:50.333Z</time>
      </trkpt>
      <trkpt lat="48.00161" lon="-4.15578">
        <ele>92.3</ele>
        <time>2024-04-10T20:07:53.594Z</time>
      </trkpt>
      <trkpt lat="48.00126" lon="-4.15527">
        <ele>93</ele>
        <time>2024-04-10T20:08:02.721Z</time>
      </trkpt>
      <trkpt lat="48.00111" lon="-4.15503">
        <ele>93</ele>
        <time>2024-04-10T20:08:06.278Z</time>
      </trkpt>
      <trkpt lat="48.00102" lon="-4.15484">
        <ele>93.5</ele>
        <time>2024-04-10T20:08:09.815Z</time>
      </trkpt>
      <trkpt lat="48.00092" lon="-4.15453">
        <ele>94.8</ele>
        <time>2024-04-10T20:08:16.884Z</time>
      </trkpt>
      <trkpt lat="48.00089" lon="-4.15435">
        <ele>95.1</ele>
        <time>2024-04-10T20:08:19.460Z</time>
      </trkpt>
      <trkpt lat="48.00086" lon="-4.15415">
        <ele>95.1</ele>
        <time>2024-04-10T20:08:21.680Z</time>
      </trkpt>
      <trkpt lat="48.00086" lon="-4.15337">
        <ele>97.7</ele>
        <time>2024-04-10T20:08:36.385Z</time>
      </trkpt>
      <trkpt lat="48.00084" lon="-4.15294">
        <ele>98.4</ele>
        <time>2024-04-10T20:08:42.378Z</time>
      </trkpt>
      <trkpt lat="48.00079" lon="-4.15226">
        <ele>100</ele>
        <time>2024-04-10T20:08:53.125Z</time>
      </trkpt>
      <trkpt lat="48.00077" lon="-4.15215">
        <ele>100.2</ele>
        <time>2024-04-10T20:08:54.745Z</time>
      </trkpt>
      <trkpt lat="48.0007" lon="-4.15205">
        <ele>100.5</ele>
        <time>2024-04-10T20:08:56.915Z</time>
      </trkpt>
      <trkpt lat="48.00061" lon="-4.15201">
        <ele>100.8</ele>
        <time>2024-04-10T20:08:59.044Z</time>
      </trkpt>
      <trkpt lat="48.00057" lon="-4.15196">
        <ele>100.9</ele>
        <time>2024-04-10T20:09:00.069Z</time>
      </trkpt>
      <trkpt lat="48.00054" lon="-4.15183">
        <ele>100.9</ele>
        <time>2024-04-10T20:09:01.558Z</time>
      </trkpt>
      <trkpt lat="48.00054" lon="-4.15176">
        <ele>100.9</ele>
        <time>2024-04-10T20:09:02.317Z</time>
      </trkpt>
      <trkpt lat="48.00057" lon="-4.15167">
        <ele>101</ele>
        <time>2024-04-10T20:09:03.580Z</time>
      </trkpt>
      <trkpt lat="48.00062" lon="-4.1516">
        <ele>101</ele>
        <time>2024-04-10T20:09:04.689Z</time>
      </trkpt>
      <trkpt lat="48.00064" lon="-4.15137">
        <ele>101</ele>
        <time>2024-04-10T20:09:07.202Z</time>
      </trkpt>
      <trkpt lat="48.00063" lon="-4.15122">
        <ele>101</ele>
        <time>2024-04-10T20:09:08.834Z</time>
      </trkpt>
      <trkpt lat="48.00043" lon="-4.14975">
        <ele>101</ele>
        <time>2024-04-10T20:09:25.084Z</time>
      </trkpt>
      <trkpt lat="48.0004" lon="-4.14959">
        <ele>101</ele>
        <time>2024-04-10T20:09:26.884Z</time>
      </trkpt>
      <trkpt lat="48.00032" lon="-4.14931">
        <ele>100.6</ele>
        <time>2024-04-10T20:09:29.652Z</time>
      </trkpt>
      <trkpt lat="48.00019" lon="-4.14908">
        <ele>97.6</ele>
        <time>2024-04-10T20:09:31.609Z</time>
      </trkpt>
      <trkpt lat="48.00005" lon="-4.14884">
        <ele>94</ele>
        <time>2024-04-10T20:09:33.678Z</time>
      </trkpt>
      <trkpt lat="47.99985" lon="-4.14857">
        <ele>96.3</ele>
        <time>2024-04-10T20:09:45.890Z</time>
      </trkpt>
      <trkpt lat="47.99951" lon="-4.14824">
        <ele>98.5</ele>
        <time>2024-04-10T20:09:57.985Z</time>
      </trkpt>
      <trkpt lat="47.99944" lon="-4.14827">
        <ele>98.2</ele>
        <time>2024-04-10T20:09:58.821Z</time>
      </trkpt>
      <trkpt lat="47.9994" lon="-4.14827">
        <ele>98.1</ele>
        <time>2024-04-10T20:09:59.342Z</time>
        <extensions>
          <visugpx:TrkExtension xmlns:visugpx="https://www.visugpx.com/editgpx/">
            <visugpx:node>28</visugpx:node>
            </visugpx:TrkExtension>
        </extensions>
      </trkpt>
      <trkpt lat="47.9994" lon="-4.14827">
        <ele>98.1</ele>
        <time>2024-04-10T20:09:59.342Z</time>
      </trkpt>
      <trkpt lat="47.99938" lon="-4.14827">
        <ele>98</ele>
        <time>2024-04-10T20:09:59.558Z</time>
      </trkpt>
      <trkpt lat="47.99932" lon="-4.14824">
        <ele>97.9</ele>
        <time>2024-04-10T20:10:00.446Z</time>
      </trkpt>
      <trkpt lat="47.99926" lon="-4.14818">
        <ele>97.9</ele>
        <time>2024-04-10T20:10:01.614Z</time>
      </trkpt>
      <trkpt lat="47.99922" lon="-4.14811">
        <ele>98</ele>
        <time>2024-04-10T20:10:02.788Z</time>
      </trkpt>
      <trkpt lat="47.99919" lon="-4.14796">
        <ele>98.1</ele>
        <time>2024-04-10T20:10:04.650Z</time>
      </trkpt>
      <trkpt lat="47.99919" lon="-4.14788">
        <ele>98.1</ele>
        <time>2024-04-10T20:10:05.517Z</time>
      </trkpt>
      <trkpt lat="47.99921" lon="-4.14778">
        <ele>98.2</ele>
        <time>2024-04-10T20:10:06.821Z</time>
      </trkpt>
      <trkpt lat="47.99926" lon="-4.1477">
        <ele>98.2</ele>
        <time>2024-04-10T20:10:08.007Z</time>
      </trkpt>
      <trkpt lat="47.99931" lon="-4.14764">
        <ele>98.3</ele>
        <time>2024-04-10T20:10:09.220Z</time>
      </trkpt>
      <trkpt lat="47.99938" lon="-4.14761">
        <ele>98.3</ele>
        <time>2024-04-10T20:10:10.399Z</time>
      </trkpt>
      <trkpt lat="47.99946" lon="-4.14742">
        <ele>98.3</ele>
        <time>2024-04-10T20:10:12.830Z</time>
      </trkpt>
      <trkpt lat="47.99957" lon="-4.1471">
        <ele>99.2</ele>
        <time>2024-04-10T20:10:18.648Z</time>
      </trkpt>
      <trkpt lat="47.9997" lon="-4.14643">
        <ele>98.2</ele>
        <time>2024-04-10T20:10:24.897Z</time>
      </trkpt>
      <trkpt lat="47.99974" lon="-4.14612">
        <ele>97</ele>
        <time>2024-04-10T20:10:27.080Z</time>
      </trkpt>
      <trkpt lat="47.99975" lon="-4.14587">
        <ele>96.9</ele>
        <time>2024-04-10T20:10:29.646Z</time>
      </trkpt>
      <trkpt lat="47.99974" lon="-4.14558">
        <ele>96</ele>
        <time>2024-04-10T20:10:31.800Z</time>
      </trkpt>
      <trkpt lat="47.9997" lon="-4.14526">
        <ele>95.2</ele>
        <time>2024-04-10T20:10:34.387Z</time>
      </trkpt>
      <trkpt lat="47.99924" lon="-4.14306">
        <ele>91</ele>
        <time>2024-04-10T20:10:54.087Z</time>
      </trkpt>
      <trkpt lat="47.99915" lon="-4.1426">
        <ele>90</ele>
        <time>2024-04-10T20:10:58.059Z</time>
      </trkpt>
      <trkpt lat="47.99911" lon="-4.14231">
        <ele>89.3</ele>
        <time>2024-04-10T20:11:00.436Z</time>
      </trkpt>
      <trkpt lat="47.99907" lon="-4.1418">
        <ele>89</ele>
        <time>2024-04-10T20:11:05.567Z</time>
      </trkpt>
      <trkpt lat="47.99904" lon="-4.14112">
        <ele>89.5</ele>
        <time>2024-04-10T20:11:13.792Z</time>
      </trkpt>
      <trkpt lat="47.99903" lon="-4.14063">
        <ele>89</ele>
        <time>2024-04-10T20:11:18.418Z</time>
      </trkpt>
      <trkpt lat="47.99903" lon="-4.14035">
        <ele>89.4</ele>
        <time>2024-04-10T20:11:22.188Z</time>
      </trkpt>
      <trkpt lat="47.99906" lon="-4.13939">
        <ele>89.5</ele>
        <time>2024-04-10T20:11:32.755Z</time>
      </trkpt>
      <trkpt lat="47.99914" lon="-4.13792">
        <ele>85.7</ele>
        <time>2024-04-10T20:11:44.321Z</time>
      </trkpt>
      <trkpt lat="47.99913" lon="-4.13738">
        <ele>84.8</ele>
        <time>2024-04-10T20:11:49.026Z</time>
      </trkpt>
      <trkpt lat="47.99912" lon="-4.1373">
        <ele>84.6</ele>
        <time>2024-04-10T20:11:49.672Z</time>
      </trkpt>
      <trkpt lat="47.99909" lon="-4.13679">
        <ele>83.1</ele>
        <time>2024-04-10T20:11:53.537Z</time>
      </trkpt>
      <trkpt lat="47.99894" lon="-4.13522">
        <ele>81.8</ele>
        <time>2024-04-10T20:12:08.898Z</time>
      </trkpt>
      <trkpt lat="47.99893" lon="-4.13496">
        <ele>81.8</ele>
        <time>2024-04-10T20:12:11.719Z</time>
      </trkpt>
      <trkpt lat="47.99894" lon="-4.13472">
        <ele>82.3</ele>
        <time>2024-04-10T20:12:15.330Z</time>
      </trkpt>
      <trkpt lat="47.99898" lon="-4.1345">
        <ele>81.4</ele>
        <time>2024-04-10T20:12:16.884Z</time>
      </trkpt>
      <trkpt lat="47.99919" lon="-4.13382">
        <ele>80.7</ele>
        <time>2024-04-10T20:12:24.030Z</time>
      </trkpt>
      <trkpt lat="47.99924" lon="-4.13354">
        <ele>80</ele>
        <time>2024-04-10T20:12:26.344Z</time>
      </trkpt>
      <trkpt lat="47.99924" lon="-4.13337">
        <ele>79.7</ele>
        <time>2024-04-10T20:12:27.807Z</time>
      </trkpt>
      <trkpt lat="47.99921" lon="-4.13321">
        <ele>79.6</ele>
        <time>2024-04-10T20:12:29.463Z</time>
      </trkpt>
      <trkpt lat="47.99916" lon="-4.13305">
        <ele>80</ele>
        <time>2024-04-10T20:12:32.202Z</time>
      </trkpt>
      <trkpt lat="47.99884" lon="-4.13224">
        <ele>77.9</ele>
        <time>2024-04-10T20:12:39.868Z</time>
      </trkpt>
      <trkpt lat="47.9988" lon="-4.13205">
        <ele>77.3</ele>
        <time>2024-04-10T20:12:41.358Z</time>
      </trkpt>
      <trkpt lat="47.99879" lon="-4.13188">
        <ele>77</ele>
        <time>2024-04-10T20:12:42.828Z</time>
      </trkpt>
      <trkpt lat="47.99882" lon="-4.1317">
        <ele>76.6</ele>
        <time>2024-04-10T20:12:44.353Z</time>
      </trkpt>
      <trkpt lat="47.99886" lon="-4.13159">
        <ele>76</ele>
        <time>2024-04-10T20:12:45.167Z</time>
      </trkpt>
      <trkpt lat="47.99914" lon="-4.13094">
        <ele>74</ele>
        <time>2024-04-10T20:12:51.222Z</time>
      </trkpt>
      <trkpt lat="47.99927" lon="-4.13054">
        <ele>71.7</ele>
        <time>2024-04-10T20:12:54.113Z</time>
      </trkpt>
      <trkpt lat="47.99932" lon="-4.13028">
        <ele>70.6</ele>
        <time>2024-04-10T20:12:55.936Z</time>
      </trkpt>
      <trkpt lat="47.99934" lon="-4.12991">
        <ele>71</ele>
        <time>2024-04-10T20:13:00.661Z</time>
      </trkpt>
      <trkpt lat="47.99931" lon="-4.12948">
        <ele>69.6</ele>
        <time>2024-04-10T20:13:03.822Z</time>
      </trkpt>
      <trkpt lat="47.99923" lon="-4.12912">
        <ele>67.8</ele>
        <time>2024-04-10T20:13:06.288Z</time>
      </trkpt>
      <trkpt lat="47.99916" lon="-4.12891">
        <ele>68.2</ele>
        <time>2024-04-10T20:13:09.594Z</time>
      </trkpt>
      <trkpt lat="47.99906" lon="-4.12867">
        <ele>68</ele>
        <time>2024-04-10T20:13:12.373Z</time>
      </trkpt>
      <trkpt lat="47.99893" lon="-4.12842">
        <ele>66.7</ele>
        <time>2024-04-10T20:13:14.500Z</time>
      </trkpt>
      <trkpt lat="47.99856" lon="-4.128">
        <ele>64.1</ele>
        <time>2024-04-10T20:13:19.327Z</time>
      </trkpt>
      <trkpt lat="47.99849" lon="-4.1279">
        <ele>63.7</ele>
        <time>2024-04-10T20:13:20.439Z</time>
      </trkpt>
      <trkpt lat="47.99839" lon="-4.12765">
        <ele>62</ele>
        <time>2024-04-10T20:13:22.332Z</time>
      </trkpt>
      <trkpt lat="47.99837" lon="-4.12744">
        <ele>60.4</ele>
        <time>2024-04-10T20:13:23.710Z</time>
      </trkpt>
      <trkpt lat="47.99834" lon="-4.12745">
        <ele>61.4</ele>
        <time>2024-04-10T20:13:25.843Z</time>
        <extensions>
          <visugpx:TrkExtension xmlns:visugpx="https://www.visugpx.com/editgpx/">
            <visugpx:node>29</visugpx:node>
            </visugpx:TrkExtension>
        </extensions>
      </trkpt>
      <trkpt lat="47.99837" lon="-4.12744">
        <ele>60.4</ele>
        <time>2024-04-10T20:13:26.142Z</time>
      </trkpt>
      <trkpt lat="47.9984" lon="-4.12725">
        <ele>58</ele>
        <time>2024-04-10T20:13:27.410Z</time>
      </trkpt>
      <trkpt lat="47.99848" lon="-4.12701">
        <ele>58.4</ele>
        <time>2024-04-10T20:13:31.058Z</time>
      </trkpt>
      <trkpt lat="47.9988" lon="-4.12644">
        <ele>57.7</ele>
        <time>2024-04-10T20:13:38.152Z</time>
      </trkpt>
      <trkpt lat="47.99894" lon="-4.12613">
        <ele>57.7</ele>
        <time>2024-04-10T20:13:42.203Z</time>
      </trkpt>
      <trkpt lat="47.99898" lon="-4.12592">
        <ele>58.1</ele>
        <time>2024-04-10T20:13:45.346Z</time>
      </trkpt>
      <trkpt lat="47.999" lon="-4.12571">
        <ele>57.8</ele>
        <time>2024-04-10T20:13:47.251Z</time>
      </trkpt>
      <trkpt lat="47.99898" lon="-4.12551">
        <ele>57.1</ele>
        <time>2024-04-10T20:13:48.697Z</time>
      </trkpt>
      <trkpt lat="47.9986" lon="-4.12319">
        <ele>50.7</ele>
        <time>2024-04-10T20:14:07.219Z</time>
      </trkpt>
      <trkpt lat="47.99851" lon="-4.12292">
        <ele>50.4</ele>
        <time>2024-04-10T20:14:10.075Z</time>
      </trkpt>
      <trkpt lat="47.99841" lon="-4.12271">
        <ele>49.8</ele>
        <time>2024-04-10T20:14:12.153Z</time>
      </trkpt>
      <trkpt lat="47.99829" lon="-4.12253">
        <ele>49.9</ele>
        <time>2024-04-10T20:14:15.067Z</time>
      </trkpt>
      <trkpt lat="47.99816" lon="-4.12232">
        <ele>48</ele>
        <time>2024-04-10T20:14:16.927Z</time>
      </trkpt>
      <trkpt lat="47.99786" lon="-4.12194">
        <ele>47.1</ele>
        <time>2024-04-10T20:14:22.129Z</time>
      </trkpt>
      <trkpt lat="47.99769" lon="-4.12164">
        <ele>46.7</ele>
        <time>2024-04-10T20:14:25.840Z</time>
      </trkpt>
      <trkpt lat="47.99763" lon="-4.12151">
        <ele>46.2</ele>
        <time>2024-04-10T20:14:27.003Z</time>
      </trkpt>
      <trkpt lat="47.99758" lon="-4.1213">
        <ele>45.2</ele>
        <time>2024-04-10T20:14:28.452Z</time>
      </trkpt>
      <trkpt lat="47.99752" lon="-4.12101">
        <ele>45.3</ele>
        <time>2024-04-10T20:14:31.901Z</time>
      </trkpt>
      <trkpt lat="47.99748" lon="-4.12057">
        <ele>44.3</ele>
        <time>2024-04-10T20:14:35.511Z</time>
      </trkpt>
      <trkpt lat="47.99745" lon="-4.11962">
        <ele>42.4</ele>
        <time>2024-04-10T20:14:43.475Z</time>
      </trkpt>
      <trkpt lat="47.99744" lon="-4.11945">
        <ele>42.2</ele>
        <time>2024-04-10T20:14:45.054Z</time>
      </trkpt>
      <trkpt lat="47.99744" lon="-4.11935">
        <ele>41.9</ele>
        <time>2024-04-10T20:14:45.804Z</time>
      </trkpt>
      <trkpt lat="47.99744" lon="-4.1192">
        <ele>41.3</ele>
        <time>2024-04-10T20:14:46.821Z</time>
      </trkpt>
      <trkpt lat="47.99751" lon="-4.11847">
        <ele>39.9</ele>
        <time>2024-04-10T20:14:53.068Z</time>
      </trkpt>
      <trkpt lat="47.99754" lon="-4.11818">
        <ele>39.1</ele>
        <time>2024-04-10T20:14:55.333Z</time>
      </trkpt>
      <trkpt lat="47.99759" lon="-4.11796">
        <ele>38.4</ele>
        <time>2024-04-10T20:14:57.072Z</time>
      </trkpt>
      <trkpt lat="47.99771" lon="-4.11765">
        <ele>37.5</ele>
        <time>2024-04-10T20:14:59.900Z</time>
      </trkpt>
      <trkpt lat="47.99784" lon="-4.11737">
        <ele>36.4</ele>
        <time>2024-04-10T20:15:02.394Z</time>
      </trkpt>
      <trkpt lat="47.99806" lon="-4.11701">
        <ele>35.7</ele>
        <time>2024-04-10T20:15:06.761Z</time>
      </trkpt>
      <trkpt lat="47.99865" lon="-4.11632">
        <ele>33.6</ele>
        <time>2024-04-10T20:15:16.270Z</time>
      </trkpt>
      <trkpt lat="47.99881" lon="-4.11608">
        <ele>32.6</ele>
        <time>2024-04-10T20:15:18.822Z</time>
      </trkpt>
      <trkpt lat="47.99894" lon="-4.11576">
        <ele>31.7</ele>
        <time>2024-04-10T20:15:21.815Z</time>
      </trkpt>
      <trkpt lat="47.99901" lon="-4.11553">
        <ele>31.6</ele>
        <time>2024-04-10T20:15:24.405Z</time>
      </trkpt>
      <trkpt lat="47.99912" lon="-4.11524">
        <ele>31.2</ele>
        <time>2024-04-10T20:15:27.479Z</time>
      </trkpt>
      <trkpt lat="47.99939" lon="-4.11454">
        <ele>29.4</ele>
        <time>2024-04-10T20:15:34.068Z</time>
      </trkpt>
      <trkpt lat="47.9995" lon="-4.11432">
        <ele>28.4</ele>
        <time>2024-04-10T20:15:35.996Z</time>
      </trkpt>
      <trkpt lat="47.99952" lon="-4.11427">
        <ele>28.2</ele>
        <time>2024-04-10T20:15:36.414Z</time>
      </trkpt>
      <trkpt lat="47.99975" lon="-4.11369">
        <ele>26.7</ele>
        <time>2024-04-10T20:15:41.913Z</time>
      </trkpt>
      <trkpt lat="47.99982" lon="-4.1135">
        <ele>26.1</ele>
        <time>2024-04-10T20:15:43.579Z</time>
      </trkpt>
      <trkpt lat="48.00003" lon="-4.11294">
        <ele>24.2</ele>
        <time>2024-04-10T20:15:48.410Z</time>
      </trkpt>
      <trkpt lat="48.00012" lon="-4.11256">
        <ele>21.8</ele>
        <time>2024-04-10T20:15:51.030Z</time>
      </trkpt>
      <trkpt lat="48.00013" lon="-4.11239">
        <ele>21.6</ele>
        <time>2024-04-10T20:15:52.610Z</time>
      </trkpt>
      <trkpt lat="48.00047" lon="-4.11264">
        <ele>18.3</ele>
        <time>2024-04-10T20:15:56.290Z</time>
      </trkpt>
      <trkpt lat="48.00056" lon="-4.11273">
        <ele>17.1</ele>
        <time>2024-04-10T20:15:57.342Z</time>
      </trkpt>
      <trkpt lat="48.00084" lon="-4.11294">
        <ele>15</ele>
        <time>2024-04-10T20:16:00.385Z</time>
      </trkpt>
      <trkpt lat="48.00095" lon="-4.11303">
        <ele>14.2</ele>
        <time>2024-04-10T20:16:01.625Z</time>
      </trkpt>
      <trkpt lat="48.00103" lon="-4.1131">
        <ele>13.7</ele>
        <time>2024-04-10T20:16:02.601Z</time>
      </trkpt>
      <trkpt lat="48.00136" lon="-4.11337">
        <ele>11.4</ele>
        <time>2024-04-10T20:16:06.382Z</time>
      </trkpt>
      <trkpt lat="48.00156" lon="-4.11352">
        <ele>10</ele>
        <time>2024-04-10T20:16:08.612Z</time>
      </trkpt>
      <trkpt lat="48.0019" lon="-4.1138">
        <ele>6.6</ele>
        <time>2024-04-10T20:16:12.382Z</time>
      </trkpt>
      <trkpt lat="48.00197" lon="-4.11383">
        <ele>6.2</ele>
        <time>2024-04-10T20:16:13.144Z</time>
      </trkpt>
      <trkpt lat="48.00203" lon="-4.11387">
        <ele>6</ele>
        <time>2024-04-10T20:16:13.962Z</time>
      </trkpt>
      <trkpt lat="48.00213" lon="-4.11394">
        <ele>6</ele>
        <time>2024-04-10T20:16:15.750Z</time>
      </trkpt>
      <trkpt lat="48.00222" lon="-4.11393">
        <ele>6</ele>
        <time>2024-04-10T20:16:17.211Z</time>
      </trkpt>
      <trkpt lat="48.00224" lon="-4.11391">
        <ele>5.9</ele>
        <time>2024-04-10T20:16:17.487Z</time>
      </trkpt>
      <trkpt lat="48.00232" lon="-4.11389">
        <ele>5.6</ele>
        <time>2024-04-10T20:16:18.448Z</time>
      </trkpt>
      <trkpt lat="48.00235" lon="-4.1139">
        <ele>5.5</ele>
        <time>2024-04-10T20:16:18.825Z</time>
      </trkpt>
      <trkpt lat="48.00237" lon="-4.11393">
        <ele>5.5</ele>
        <time>2024-04-10T20:16:19.284Z</time>
      </trkpt>
      <trkpt lat="48.0024" lon="-4.11404">
        <ele>5.4</ele>
        <time>2024-04-10T20:16:20.431Z</time>
      </trkpt>
      <trkpt lat="48.00246" lon="-4.11417">
        <ele>5.1</ele>
        <time>2024-04-10T20:16:21.768Z</time>
      </trkpt>
      <trkpt lat="48.00254" lon="-4.11426">
        <ele>5</ele>
        <time>2024-04-10T20:16:23.247Z</time>
      </trkpt>
      <trkpt lat="48.0027" lon="-4.11438">
        <ele>5</ele>
        <time>2024-04-10T20:16:26.145Z</time>
      </trkpt>
      <trkpt lat="48.00294" lon="-4.1146">
        <ele>4.7</ele>
        <time>2024-04-10T20:16:30.278Z</time>
      </trkpt>
      <trkpt lat="48.003" lon="-4.1147">
        <ele>4.9</ele>
        <time>2024-04-10T20:16:32.104Z</time>
      </trkpt>
      <trkpt lat="48.00304" lon="-4.11477">
        <ele>5</ele>
        <time>2024-04-10T20:16:33.278Z</time>
      </trkpt>
      <trkpt lat="48.00343" lon="-4.1157">
        <ele>5.8</ele>
        <time>2024-04-10T20:16:46.513Z</time>
      </trkpt>
      <trkpt lat="48.00343" lon="-4.11572">
        <ele>5.9</ele>
        <time>2024-04-10T20:16:47.038Z</time>
      </trkpt>
      <trkpt lat="48.00348" lon="-4.1158">
        <ele>5.9</ele>
        <time>2024-04-10T20:16:48.224Z</time>
      </trkpt>
      <trkpt lat="48.00355" lon="-4.11594">
        <ele>6</ele>
        <time>2024-04-10T20:16:50.282Z</time>
      </trkpt>
      <trkpt lat="48.00359" lon="-4.11607">
        <ele>6</ele>
        <time>2024-04-10T20:16:51.832Z</time>
      </trkpt>
      <trkpt lat="48.00361" lon="-4.11614">
        <ele>6</ele>
        <time>2024-04-10T20:16:52.656Z</time>
      </trkpt>
      <trkpt lat="48.00362" lon="-4.11617">
        <ele>6</ele>
        <time>2024-04-10T20:16:53.019Z</time>
      </trkpt>
      <trkpt lat="48.00384" lon="-4.11673">
        <ele>7</ele>
        <time>2024-04-10T20:17:01.923Z</time>
      </trkpt>
      <trkpt lat="48.00393" lon="-4.1169">
        <ele>7</ele>
        <time>2024-04-10T20:17:04.271Z</time>
      </trkpt>
      <trkpt lat="48.00418" lon="-4.11721">
        <ele>8</ele>
        <time>2024-04-10T20:17:11.536Z</time>
      </trkpt>
      <trkpt lat="48.00422" lon="-4.11723">
        <ele>8</ele>
        <time>2024-04-10T20:17:12.219Z</time>
      </trkpt>
      <trkpt lat="48.00423" lon="-4.11727">
        <ele>8.2</ele>
        <time>2024-04-10T20:17:13.270Z</time>
      </trkpt>
      <trkpt lat="48.00423" lon="-4.11729">
        <ele>8.2</ele>
        <time>2024-04-10T20:17:13.487Z</time>
      </trkpt>
      <trkpt lat="48.00459" lon="-4.11758">
        <ele>9.1</ele>
        <time>2024-04-10T20:17:21.776Z</time>
      </trkpt>
      <trkpt lat="48.00469" lon="-4.11731">
        <ele>8</ele>
        <time>2024-04-10T20:17:23.959Z</time>
      </trkpt>
      <trkpt lat="48.00478" lon="-4.11721">
        <ele>7.7</ele>
        <time>2024-04-10T20:17:25.397Z</time>
      </trkpt>
      <trkpt lat="48.00484" lon="-4.11719">
        <ele>7.5</ele>
        <time>2024-04-10T20:17:26.150Z</time>
      </trkpt>
      <trkpt lat="48.00511" lon="-4.11712">
        <ele>6.6</ele>
        <time>2024-04-10T20:17:29.501Z</time>
      </trkpt>
      <trkpt lat="48.00537" lon="-4.117">
        <ele>6.5</ele>
        <time>2024-04-10T20:17:33.757Z</time>
      </trkpt>
      <trkpt lat="48.00596" lon="-4.11658">
        <ele>6.3</ele>
        <time>2024-04-10T20:17:44.036Z</time>
      </trkpt>
      <trkpt lat="48.00613" lon="-4.11648">
        <ele>6.3</ele>
        <time>2024-04-10T20:17:46.993Z</time>
      </trkpt>
      <trkpt lat="48.00619" lon="-4.11646">
        <ele>6.2</ele>
        <time>2024-04-10T20:17:47.852Z</time>
      </trkpt>
      <trkpt lat="48.00624" lon="-4.11637">
        <ele>6</ele>
        <time>2024-04-10T20:17:48.866Z</time>
      </trkpt>
      <trkpt lat="48.0063" lon="-4.11634">
        <ele>6</ele>
        <time>2024-04-10T20:17:49.890Z</time>
      </trkpt>
      <trkpt lat="48.00636" lon="-4.11632">
        <ele>6</ele>
        <time>2024-04-10T20:17:50.885Z</time>
      </trkpt>
      <trkpt lat="48.00643" lon="-4.11635">
        <ele>6.1</ele>
        <time>2024-04-10T20:17:52.236Z</time>
      </trkpt>
      <trkpt lat="48.00649" lon="-4.11631">
        <ele>6.3</ele>
        <time>2024-04-10T20:17:53.700Z</time>
      </trkpt>
      <trkpt lat="48.00657" lon="-4.11625">
        <ele>6.3</ele>
        <time>2024-04-10T20:17:55.149Z</time>
      </trkpt>
      <trkpt lat="48.00683" lon="-4.11606">
        <ele>6.5</ele>
        <time>2024-04-10T20:18:00.160Z</time>
      </trkpt>
      <trkpt lat="48.00698" lon="-4.11599">
        <ele>6.6</ele>
        <time>2024-04-10T20:18:02.866Z</time>
      </trkpt>
      <trkpt lat="48.0071" lon="-4.11595">
        <ele>6.4</ele>
        <time>2024-04-10T20:18:04.585Z</time>
      </trkpt>
      <trkpt lat="48.00721" lon="-4.11592">
        <ele>6.3</ele>
        <time>2024-04-10T20:18:06.251Z</time>
      </trkpt>
      <trkpt lat="48.0073" lon="-4.11588">
        <ele>6.1</ele>
        <time>2024-04-10T20:18:07.510Z</time>
      </trkpt>
      <trkpt lat="48.0073" lon="-4.11588">
        <ele>6.1</ele>
        <time>2024-04-10T20:18:07.510Z</time>
        <extensions>
          <visugpx:TrkExtension xmlns:visugpx="https://www.visugpx.com/editgpx/">
            <visugpx:node>30</visugpx:node>
            </visugpx:TrkExtension>
        </extensions>
      </trkpt>
    </trkseg>
  </trk>
</gpx>